﻿<?xml version="1.0" encoding="utf-8"?><gpx creator="Garmin Desktop App" version="1.1" xsi:schemaLocation="http://www.topografix.com/GPX/1/1 http://www.topografix.com/GPX/1/1/gpx.xsd http://www.garmin.com/xmlschemas/WaypointExtension/v1 http://www8.garmin.com/xmlschemas/WaypointExtensionv1.xsd http://www.garmin.com/xmlschemas/TrackPointExtension/v1 http://www.garmin.com/xmlschemas/TrackPointExtensionv1.xsd http://www.garmin.com/xmlschemas/GpxExtensions/v3 http://www8.garmin.com/xmlschemas/GpxExtensionsv3.xsd http://www.garmin.com/xmlschemas/ActivityExtension/v1 http://www8.garmin.com/xmlschemas/ActivityExtensionv1.xsd http://www.garmin.com/xmlschemas/AdventuresExtensions/v1 http://www8.garmin.com/xmlschemas/AdventuresExtensionv1.xsd http://www.garmin.com/xmlschemas/PressureExtension/v1 http://www.garmin.com/xmlschemas/PressureExtensionv1.xsd http://www.garmin.com/xmlschemas/TripExtensions/v1 http://www.garmin.com/xmlschemas/TripExtensionsv1.xsd http://www.garmin.com/xmlschemas/TripMetaDataExtensions/v1 http://www.garmin.com/xmlschemas/TripMetaDataExtensionsv1.xsd http://www.garmin.com/xmlschemas/ViaPointTransportationModeExtensions/v1 http://www.garmin.com/xmlschemas/ViaPointTransportationModeExtensionsv1.xsd http://www.garmin.com/xmlschemas/CreationTimeExtension/v1 http://www.garmin.com/xmlschemas/CreationTimeExtensionsv1.xsd http://www.garmin.com/xmlschemas/AccelerationExtension/v1 http://www.garmin.com/xmlschemas/AccelerationExtensionv1.xsd http://www.garmin.com/xmlschemas/PowerExtension/v1 http://www.garmin.com/xmlschemas/PowerExtensionv1.xsd http://www.garmin.com/xmlschemas/VideoExtension/v1 http://www.garmin.com/xmlschemas/VideoExtensionv1.xsd" xmlns="http://www.topografix.com/GPX/1/1" xmlns:xsi="http://www.w3.org/2001/XMLSchema-instance" xmlns:wptx1="http://www.garmin.com/xmlschemas/WaypointExtension/v1" xmlns:gpxtrx="http://www.garmin.com/xmlschemas/GpxExtensions/v3" xmlns:gpxtpx="http://www.garmin.com/xmlschemas/TrackPointExtension/v1" xmlns:gpxx="http://www.garmin.com/xmlschemas/GpxExtensions/v3" xmlns:trp="http://www.garmin.com/xmlschemas/TripExtensions/v1" xmlns:adv="http://www.garmin.com/xmlschemas/AdventuresExtensions/v1" xmlns:prs="http://www.garmin.com/xmlschemas/PressureExtension/v1" xmlns:tmd="http://www.garmin.com/xmlschemas/TripMetaDataExtensions/v1" xmlns:vptm="http://www.garmin.com/xmlschemas/ViaPointTransportationModeExtensions/v1" xmlns:ctx="http://www.garmin.com/xmlschemas/CreationTimeExtension/v1" xmlns:gpxacc="http://www.garmin.com/xmlschemas/AccelerationExtension/v1" xmlns:gpxpx="http://www.garmin.com/xmlschemas/PowerExtension/v1" xmlns:vidx1="http://www.garmin.com/xmlschemas/VideoExtension/v1">

  <metadata>
    <link href="http://www.garmin.com">
      <text>Garmin International</text>
    </link>
    <time>2024-02-21T14:41:10Z</time>
    <bounds maxlat="50.681009972468019" maxlon="6.307515995576978" minlat="50.523549132049084" minlon="6.193360006436706" />
  </metadata>

  <trk>
    <name>EIF3 Dartshof21 ruitzhof 27 km</name>
    <extensions>
      <gpxx:TrackExtension>
        <gpxx:DisplayColor>Blue</gpxx:DisplayColor>
      </gpxx:TrackExtension>
    </extensions>
    <trkseg>
      <trkpt lat="50.680879969149828" lon="6.307515995576978">
        <ele>546.04908599999999</ele>
        <time>2016-03-24T15:33:40Z</time>
      </trkpt>
      <trkpt lat="50.680890027433634" lon="6.307446006685495">
        <ele>546.04908599999999</ele>
        <time>2016-03-24T15:33:37Z</time>
      </trkpt>
      <trkpt lat="50.680900001898408" lon="6.307371994480491">
        <ele>546.04908599999999</ele>
        <time>2016-03-24T15:33:34Z</time>
      </trkpt>
      <trkpt lat="50.680909976363182" lon="6.307280967012048">
        <ele>546.04908599999999</ele>
        <time>2016-03-24T15:33:31Z</time>
      </trkpt>
      <trkpt lat="50.680909976363182" lon="6.307207960635424">
        <ele>546.04908599999999</ele>
        <time>2016-03-24T15:33:29Z</time>
      </trkpt>
      <trkpt lat="50.680922968313098" lon="6.307104025036097">
        <ele>546.04908599999999</ele>
        <time>2016-03-24T15:33:25Z</time>
      </trkpt>
      <trkpt lat="50.680960016325116" lon="6.307038981467485">
        <ele>546.04908599999999</ele>
        <time>2016-03-24T15:33:21Z</time>
      </trkpt>
      <trkpt lat="50.680999998003244" lon="6.306986007839441">
        <ele>546.04908599999999</ele>
        <time>2016-03-24T15:33:16Z</time>
      </trkpt>
      <trkpt lat="50.681009972468019" lon="6.306907972320914">
        <ele>546.04908599999999</ele>
        <time>2016-03-24T15:33:10Z</time>
      </trkpt>
      <trkpt lat="50.680983988568187" lon="6.306838989257813">
        <ele>546.04908599999999</ele>
        <time>2016-03-24T15:33:03Z</time>
      </trkpt>
      <trkpt lat="50.680930009111762" lon="6.306799007579684">
        <ele>546.04908599999999</ele>
        <time>2016-03-24T15:32:59Z</time>
      </trkpt>
      <trkpt lat="50.680878041312099" lon="6.306800013408065">
        <ele>546.04908599999999</ele>
        <time>2016-03-24T15:32:56Z</time>
      </trkpt>
      <trkpt lat="50.680489959195256" lon="6.306592980399728">
        <ele>548.34073799999999</ele>
        <time>2016-03-24T15:32:27Z</time>
      </trkpt>
      <trkpt lat="50.680440003052354" lon="6.30657303147018">
        <ele>548.680924</ele>
        <time>2016-03-24T15:32:22Z</time>
      </trkpt>
      <trkpt lat="50.680386023595929" lon="6.306534977629781">
        <ele>549.07086400000003</ele>
        <time>2016-03-24T15:32:18Z</time>
      </trkpt>
      <trkpt lat="50.680340006947517" lon="6.30648803897202">
        <ele>549.43227200000001</ele>
        <time>2016-03-24T15:32:14Z</time>
      </trkpt>
      <trkpt lat="50.680283010005951" lon="6.306479992344976">
        <ele>549.80968099999996</ele>
        <time>2016-03-24T15:32:10Z</time>
      </trkpt>
      <trkpt lat="50.680232970044017" lon="6.306472029536963">
        <ele>550.14112999999998</ele>
        <time>2016-03-24T15:32:06Z</time>
      </trkpt>
      <trkpt lat="50.680189970880747" lon="6.306435987353325">
        <ele>550.46215600000005</ele>
        <time>2016-03-24T15:32:02Z</time>
      </trkpt>
      <trkpt lat="50.680138003081083" lon="6.306405980139971">
        <ele>550.82730300000003</ele>
        <time>2016-03-24T15:31:58Z</time>
      </trkpt>
      <trkpt lat="50.680076982825994" lon="6.306377984583378">
        <ele>551.24627999999996</ele>
        <time>2016-03-24T15:31:55Z</time>
      </trkpt>
      <trkpt lat="50.680034989491105" lon="6.306352000683546">
        <ele>551.54382499999997</ele>
        <time>2016-03-24T15:31:53Z</time>
      </trkpt>
      <trkpt lat="50.679985033348203" lon="6.306340014562011">
        <ele>551.87737500000003</ele>
        <time>2016-03-24T15:31:50Z</time>
      </trkpt>
      <trkpt lat="50.679929964244366" lon="6.306315958499908">
        <ele>552.25372000000004</ele>
        <time>2016-03-24T15:31:47Z</time>
      </trkpt>
      <trkpt lat="50.67987397313118" lon="6.306285029277206">
        <ele>552.64511200000004</ele>
        <time>2016-03-24T15:31:44Z</time>
      </trkpt>
      <trkpt lat="50.679829968139529" lon="6.306269019842148">
        <ele>552.942904</ele>
        <time>2016-03-24T15:31:41Z</time>
      </trkpt>
      <trkpt lat="50.679780011996627" lon="6.306266002357006">
        <ele>553.27290000000005</ele>
        <time>2016-03-24T15:31:38Z</time>
      </trkpt>
      <trkpt lat="50.679726032540202" lon="6.306254016235471">
        <ele>553.63255300000003</ele>
        <time>2016-03-24T15:31:35Z</time>
      </trkpt>
      <trkpt lat="50.679665012285113" lon="6.306240018457174">
        <ele>554.03909099999998</ele>
        <time>2016-03-24T15:31:32Z</time>
      </trkpt>
      <trkpt lat="50.679420009255409" lon="6.306057963520289">
        <ele>555.83974999999998</ele>
        <time>2016-03-24T15:31:17Z</time>
      </trkpt>
      <trkpt lat="50.679369969293475" lon="6.306018987670541">
        <ele>556.20758799999999</ele>
        <time>2016-03-24T15:31:13Z</time>
      </trkpt>
      <trkpt lat="50.679324958473444" lon="6.305991997942329">
        <ele>556.52509699999996</ele>
        <time>2016-03-24T15:31:08Z</time>
      </trkpt>
      <trkpt lat="50.679269973188639" lon="6.305970959365368">
        <ele>556.89829699999996</ele>
        <time>2016-03-24T15:31:05Z</time>
      </trkpt>
      <trkpt lat="50.679225968196988" lon="6.305940030142665">
        <ele>557.21609000000001</ele>
        <time>2016-03-24T15:31:02Z</time>
      </trkpt>
      <trkpt lat="50.679187998175621" lon="6.305903987959027">
        <ele>557.50839699999995</ele>
        <time>2016-03-24T15:30:59Z</time>
      </trkpt>
      <trkpt lat="50.679134018719196" lon="6.305870041251183">
        <ele>557.89183500000001</ele>
        <time>2016-03-24T15:30:56Z</time>
      </trkpt>
      <trkpt lat="50.679084984585643" lon="6.305827964097261">
        <ele>558.27937199999997</ele>
        <time>2016-03-24T15:30:53Z</time>
      </trkpt>
      <trkpt lat="50.679042991250753" lon="6.305793011561036">
        <ele>558.61041799999998</ele>
        <time>2016-03-24T15:30:50Z</time>
      </trkpt>
      <trkpt lat="50.678990017622709" lon="6.305751018226147">
        <ele>559.02378399999998</ele>
        <time>2016-03-24T15:30:46Z</time>
      </trkpt>
      <trkpt lat="50.678939977660775" lon="6.305743977427483">
        <ele>559.37365</ele>
        <time>2016-03-24T15:30:33Z</time>
      </trkpt>
      <trkpt lat="50.678897984325886" lon="6.305714976042509">
        <ele>559.69318199999998</ele>
        <time>2016-03-24T15:30:27Z</time>
      </trkpt>
      <trkpt lat="50.678855990990996" lon="6.305689997971058">
        <ele>560.00605099999996</ele>
        <time>2016-03-24T15:30:24Z</time>
      </trkpt>
      <trkpt lat="50.678809974342585" lon="6.305678011849523">
        <ele>560.33101999999997</ele>
        <time>2016-03-24T15:30:20Z</time>
      </trkpt>
      <trkpt lat="50.678764041513205" lon="6.305659990757704">
        <ele>560.66134799999998</ele>
        <time>2016-03-24T15:30:17Z</time>
      </trkpt>
      <trkpt lat="50.678709978237748" lon="6.305627971887589">
        <ele>561.06338600000004</ele>
        <time>2016-03-24T15:30:13Z</time>
      </trkpt>
      <trkpt lat="50.678660022094846" lon="6.305583966895938">
        <ele>561.46240499999999</ele>
        <time>2016-03-24T15:30:09Z</time>
      </trkpt>
      <trkpt lat="50.678616017103195" lon="6.305549014359713">
        <ele>561.80583899999999</ele>
        <time>2016-03-24T15:30:05Z</time>
      </trkpt>
      <trkpt lat="50.678570000454783" lon="6.305497968569398">
        <ele>562.19767200000001</ele>
        <time>2016-03-24T15:30:01Z</time>
      </trkpt>
      <trkpt lat="50.678530018776655" lon="6.305455975234509">
        <ele>562.53254300000003</ele>
        <time>2016-03-24T15:29:58Z</time>
      </trkpt>
      <trkpt lat="50.678496994078159" lon="6.305400989949703">
        <ele>562.867076</ele>
        <time>2016-03-24T15:29:55Z</time>
      </trkpt>
      <trkpt lat="50.678460029885173" lon="6.305361008271575">
        <ele>563.17967399999998</ele>
        <time>2016-03-24T15:29:52Z</time>
      </trkpt>
      <trkpt lat="50.678417030721903" lon="6.305295964702964">
        <ele>563.594694</ele>
        <time>2016-03-24T15:29:47Z</time>
      </trkpt>
      <trkpt lat="50.678370008245111" lon="6.30524299107492">
        <ele>563.99732200000005</ele>
        <time>2016-03-24T15:29:43Z</time>
      </trkpt>
      <trkpt lat="50.67832600325346" lon="6.305197980254889">
        <ele>564.36277099999995</ele>
        <time>2016-03-24T15:29:38Z</time>
      </trkpt>
      <trkpt lat="50.678160041570663" lon="6.304953983053565">
        <ele>566.24350000000004</ele>
        <time>2016-03-24T15:29:18Z</time>
      </trkpt>
      <trkpt lat="50.67815400660038" lon="6.30487703718245">
        <ele>566.58614699999998</ele>
        <time>2016-03-24T15:29:13Z</time>
      </trkpt>
      <trkpt lat="50.677259992808104" lon="6.304009007290006">
        <ele>572.80560800000001</ele>
        <time>2016-03-24T15:27:45Z</time>
      </trkpt>
      <trkpt lat="50.677223028615117" lon="6.303972965106368">
        <ele>572.99854000000005</ele>
        <time>2016-03-24T15:27:40Z</time>
      </trkpt>
      <trkpt lat="50.677177011966705" lon="6.303946981206536">
        <ele>573.21541400000001</ele>
        <time>2016-03-24T15:27:37Z</time>
      </trkpt>
      <trkpt lat="50.677115991711617" lon="6.303931977599859">
        <ele>573.48943199999997</ele>
        <time>2016-03-24T15:27:34Z</time>
      </trkpt>
      <trkpt lat="50.677067041397095" lon="6.303915968164802">
        <ele>573.71152800000004</ele>
        <time>2016-03-24T15:27:32Z</time>
      </trkpt>
      <trkpt lat="50.677001997828484" lon="6.303899958729744">
        <ele>574.00352099999998</ele>
        <time>2016-03-24T15:27:29Z</time>
      </trkpt>
      <trkpt lat="50.676945000886917" lon="6.303885960951448">
        <ele>574.25956399999995</ele>
        <time>2016-03-24T15:27:24Z</time>
      </trkpt>
      <trkpt lat="50.676888003945351" lon="6.303871963173151">
        <ele>574.51560700000005</ele>
        <time>2016-03-24T15:27:20Z</time>
      </trkpt>
      <trkpt lat="50.676837963983417" lon="6.303861988708377">
        <ele>574.73930900000005</ele>
        <time>2016-03-24T15:27:17Z</time>
      </trkpt>
      <trkpt lat="50.676784990355372" lon="6.303844973444939">
        <ele>574.97936100000004</ele>
        <time>2016-03-24T15:27:14Z</time>
      </trkpt>
      <trkpt lat="50.67673503421247" lon="6.303828964009881">
        <ele>575.20580500000005</ele>
        <time>2016-03-24T15:27:11Z</time>
      </trkpt>
      <trkpt lat="50.676679965108633" lon="6.303816977888346">
        <ele>575.45224700000006</ele>
        <time>2016-03-24T15:27:07Z</time>
      </trkpt>
      <trkpt lat="50.676620034500957" lon="6.30380499176681">
        <ele>575.72068899999999</ele>
        <time>2016-03-24T15:27:02Z</time>
      </trkpt>
      <trkpt lat="50.676575023680925" lon="6.303793005645275">
        <ele>575.92325500000004</ele>
        <time>2016-03-24T15:26:58Z</time>
      </trkpt>
      <trkpt lat="50.676530012860894" lon="6.303787976503372">
        <ele>576.12348399999996</ele>
        <time>2016-03-24T15:26:54Z</time>
      </trkpt>
      <trkpt lat="50.676476033404469" lon="6.303784037008882">
        <ele>576.363429</ele>
        <time>2016-03-24T15:26:51Z</time>
      </trkpt>
      <trkpt lat="50.676421970129013" lon="6.303770039230585">
        <ele>576.60632299999997</ele>
        <time>2016-03-24T15:26:48Z</time>
      </trkpt>
      <trkpt lat="50.676364973187447" lon="6.303749000653625">
        <ele>576.86612300000002</ele>
        <time>2016-03-24T15:26:44Z</time>
      </trkpt>
      <trkpt lat="50.67630797624588" lon="6.30373902618885">
        <ele>577.120678</ele>
        <time>2016-03-24T15:26:40Z</time>
      </trkpt>
      <trkpt lat="50.676249973475933" lon="6.303722010925412">
        <ele>577.38251600000001</ele>
        <time>2016-03-24T15:26:36Z</time>
      </trkpt>
      <trkpt lat="50.675985859706998" lon="6.303714215755463">
        <ele>577.60446100000001</ele>
        <time>2016-03-24T15:26:33Z</time>
      </trkpt>
      <trkpt lat="50.675651673227549" lon="6.30341213196516">
        <ele>577.80513199999996</ele>
        <time>2016-03-24T15:26:29Z</time>
      </trkpt>
      <trkpt lat="50.675299968570471" lon="6.302806958556175">
        <ele>582.68182000000002</ele>
        <time>2016-03-24T15:25:16Z</time>
      </trkpt>
      <trkpt lat="50.675250012427568" lon="6.302767982706428">
        <ele>582.93268799999998</ele>
        <time>2016-03-24T15:25:13Z</time>
      </trkpt>
      <trkpt lat="50.675199972465634" lon="6.302726995199919">
        <ele>583.18613400000004</ele>
        <time>2016-03-24T15:25:10Z</time>
      </trkpt>
      <trkpt lat="50.675155967473984" lon="6.302674021571875">
        <ele>583.43511000000001</ele>
        <time>2016-03-24T15:25:07Z</time>
      </trkpt>
      <trkpt lat="50.675113974139094" lon="6.302636973559856">
        <ele>583.65146600000003</ele>
        <time>2016-03-24T15:25:05Z</time>
      </trkpt>
      <trkpt lat="50.675068041309714" lon="6.302596991881728">
        <ele>583.88770299999999</ele>
        <time>2016-03-24T15:25:03Z</time>
      </trkpt>
      <trkpt lat="50.675029987469316" lon="6.302558016031981">
        <ele>584.09159299999999</ele>
        <time>2016-03-24T15:25:01Z</time>
      </trkpt>
      <trkpt lat="50.674980031326413" lon="6.302522979676724">
        <ele>584.33762100000001</ele>
        <time>2016-03-24T15:24:55Z</time>
      </trkpt>
      <trkpt lat="50.674929991364479" lon="6.302511999383569">
        <ele>584.56469000000004</ele>
        <time>2016-03-24T15:24:34Z</time>
      </trkpt>
      <trkpt lat="50.674884980544448" lon="6.302484003826976">
        <ele>584.78226099999995</ele>
        <time>2016-03-24T15:24:30Z</time>
      </trkpt>
      <trkpt lat="50.674839969724417" lon="6.302455002442002">
        <ele>585.00089400000002</ele>
        <time>2016-03-24T15:24:26Z</time>
      </trkpt>
      <trkpt lat="50.674799988046288" lon="6.302405968308449">
        <ele>585.22865999999999</ele>
        <time>2016-03-24T15:24:21Z</time>
      </trkpt>
      <trkpt lat="50.67476000636816" lon="6.302370009943843">
        <ele>585.43578100000002</ele>
        <time>2016-03-24T15:24:18Z</time>
      </trkpt>
      <trkpt lat="50.674712983891368" lon="6.302332961931825">
        <ele>585.67202799999995</ele>
        <time>2016-03-24T15:24:15Z</time>
      </trkpt>
      <trkpt lat="50.674666967242956" lon="6.302289962768555">
        <ele>585.912509</ele>
        <time>2016-03-24T15:24:11Z</time>
      </trkpt>
      <trkpt lat="50.674618016928434" lon="6.302255010232329">
        <ele>586.15443400000004</ele>
        <time>2016-03-24T15:24:08Z</time>
      </trkpt>
      <trkpt lat="50.674569988623261" lon="6.302211005240679">
        <ele>586.40411700000004</ele>
        <time>2016-03-24T15:24:05Z</time>
      </trkpt>
      <trkpt lat="50.674509974196553" lon="6.302173035219312">
        <ele>586.809527</ele>
        <time>2016-03-24T15:24:01Z</time>
      </trkpt>
      <trkpt lat="50.674460018053651" lon="6.302132969722152">
        <ele>587.22815000000003</ele>
        <time>2016-03-24T15:23:57Z</time>
      </trkpt>
      <trkpt lat="50.674420036375523" lon="6.302100028842688">
        <ele>587.56521599999996</ele>
        <time>2016-03-24T15:23:54Z</time>
      </trkpt>
      <trkpt lat="50.674377037212253" lon="6.302067004144192">
        <ele>587.92228599999999</ele>
        <time>2016-03-24T15:23:51Z</time>
      </trkpt>
      <trkpt lat="50.674339989200234" lon="6.302026016637683">
        <ele>588.25990999999999</ele>
        <time>2016-03-24T15:23:47Z</time>
      </trkpt>
      <trkpt lat="50.674296990036964" lon="6.301971031352878">
        <ele>588.67325800000003</ele>
        <time>2016-03-24T15:23:43Z</time>
      </trkpt>
      <trkpt lat="50.674239993095398" lon="6.301930965855718">
        <ele>589.13910599999997</ele>
        <time>2016-03-24T15:23:40Z</time>
      </trkpt>
      <trkpt lat="50.674193976446986" lon="6.301903976127505">
        <ele>589.50561100000004</ele>
        <time>2016-03-24T15:23:38Z</time>
      </trkpt>
      <trkpt lat="50.674133040010929" lon="6.301866006106138">
        <ele>589.99534800000004</ele>
        <time>2016-03-24T15:23:35Z</time>
      </trkpt>
      <trkpt lat="50.673629958182573" lon="6.301395026966929">
        <ele>594.476133</ele>
        <time>2016-03-24T15:22:59Z</time>
      </trkpt>
      <trkpt lat="50.673570027574897" lon="6.301368959248066">
        <ele>594.94077800000002</ele>
        <time>2016-03-24T15:22:56Z</time>
      </trkpt>
      <trkpt lat="50.673510013148189" lon="6.301329983398318">
        <ele>595.42535999999996</ele>
        <time>2016-03-24T15:22:52Z</time>
      </trkpt>
      <trkpt lat="50.67347003147006" lon="6.301307016983628">
        <ele>595.74327800000003</ele>
        <time>2016-03-24T15:22:49Z</time>
      </trkpt>
      <trkpt lat="50.673419991508126" lon="6.30126996897161">
        <ele>596.15567799999997</ele>
        <time>2016-03-24T15:22:34Z</time>
      </trkpt>
      <trkpt lat="50.673370035365224" lon="6.301238033920527">
        <ele>596.55860199999995</ele>
        <time>2016-03-24T15:22:31Z</time>
      </trkpt>
      <trkpt lat="50.673325024545193" lon="6.301235016435385">
        <ele>596.89494400000001</ele>
        <time>2016-03-24T15:22:28Z</time>
      </trkpt>
      <trkpt lat="50.673274984583259" lon="6.301219007000327">
        <ele>597.27592400000003</ele>
        <time>2016-03-24T15:22:24Z</time>
      </trkpt>
      <trkpt lat="50.673217987641692" lon="6.301214983686805">
        <ele>597.701999</ele>
        <time>2016-03-24T15:22:20Z</time>
      </trkpt>
      <trkpt lat="50.673159984871745" lon="6.301212972030044">
        <ele>598.135223</ele>
        <time>2016-03-24T15:22:17Z</time>
      </trkpt>
      <trkpt lat="50.673099970445037" lon="6.301201991736889">
        <ele>598.58629399999995</ele>
        <time>2016-03-24T15:22:14Z</time>
      </trkpt>
      <trkpt lat="50.673035010695457" lon="6.301192017272115">
        <ele>599.07398899999998</ele>
        <time>2016-03-24T15:22:10Z</time>
      </trkpt>
      <trkpt lat="50.672984970733523" lon="6.301163015887141">
        <ele>599.47179400000005</ele>
        <time>2016-03-24T15:22:06Z</time>
      </trkpt>
      <trkpt lat="50.672927973791957" lon="6.301150023937225">
        <ele>599.90187100000003</ele>
        <time>2016-03-24T15:22:02Z</time>
      </trkpt>
      <trkpt lat="50.672873994335532" lon="6.301176007837057">
        <ele>600.28128500000003</ele>
        <time>2016-03-24T15:21:59Z</time>
      </trkpt>
      <trkpt lat="50.672829989343882" lon="6.301185982301831">
        <ele>600.57545600000003</ele>
        <time>2016-03-24T15:21:56Z</time>
      </trkpt>
      <trkpt lat="50.672769974917173" lon="6.30118296481669">
        <ele>600.97270000000003</ele>
        <time>2016-03-24T15:21:51Z</time>
      </trkpt>
      <trkpt lat="50.672725969925523" lon="6.301210960373282">
        <ele>601.286654</ele>
        <time>2016-03-24T15:21:47Z</time>
      </trkpt>
      <trkpt lat="50.672634020447731" lon="6.301270974799991">
        <ele>601.94552599999997</ele>
        <time>2016-03-24T15:21:40Z</time>
      </trkpt>
      <trkpt lat="50.672287009656429" lon="6.301345992833376">
        <ele>604.71507499999996</ele>
        <time>2016-03-24T15:21:07Z</time>
      </trkpt>
      <trkpt lat="50.672091962769628" lon="6.301438026130199">
        <ele>606.11415799999997</ele>
        <time>2016-03-24T15:20:47Z</time>
      </trkpt>
      <trkpt lat="50.672039994969964" lon="6.30146199837327">
        <ele>606.47268199999996</ele>
        <time>2016-03-24T15:20:44Z</time>
      </trkpt>
      <trkpt lat="50.671992972493172" lon="6.301466021686792">
        <ele>606.78415199999995</ele>
        <time>2016-03-24T15:20:41Z</time>
      </trkpt>
      <trkpt lat="50.671932036057115" lon="6.301478007808328">
        <ele>607.19093999999996</ele>
        <time>2016-03-24T15:20:38Z</time>
      </trkpt>
      <trkpt lat="50.671870009973645" lon="6.301469961181283">
        <ele>607.60258899999997</ele>
        <time>2016-03-24T15:20:35Z</time>
      </trkpt>
      <trkpt lat="50.67181795835495" lon="6.30146199837327">
        <ele>607.94832699999995</ele>
        <time>2016-03-24T15:20:33Z</time>
      </trkpt>
      <trkpt lat="50.671757021918893" lon="6.301443977281451">
        <ele>608.35898699999996</ele>
        <time>2016-03-24T15:20:30Z</time>
      </trkpt>
      <trkpt lat="50.671702958643436" lon="6.301408018916845">
        <ele>608.74691399999995</ele>
        <time>2016-03-24T15:20:27Z</time>
      </trkpt>
      <trkpt lat="50.671664988622069" lon="6.301359990611672">
        <ele>609.069028</ele>
        <time>2016-03-24T15:20:23Z</time>
      </trkpt>
      <trkpt lat="50.671630036085844" lon="6.301303999498487">
        <ele>609.39887699999997</ele>
        <time>2016-03-24T15:20:19Z</time>
      </trkpt>
      <trkpt lat="50.671592988073826" lon="6.301252031698823">
        <ele>609.72676200000001</ele>
        <time>2016-03-24T15:20:15Z</time>
      </trkpt>
      <trkpt lat="50.671561975032091" lon="6.301196040585637">
        <ele>610.03859599999998</ele>
        <time>2016-03-24T15:20:12Z</time>
      </trkpt>
      <trkpt lat="50.671524005010724" lon="6.301151029765606">
        <ele>610.35300099999995</ele>
        <time>2016-03-24T15:20:09Z</time>
      </trkpt>
      <trkpt lat="50.671486034989357" lon="6.301109958440065">
        <ele>610.65763100000004</ele>
        <time>2016-03-24T15:20:06Z</time>
      </trkpt>
      <trkpt lat="50.671449992805719" lon="6.30105396732688">
        <ele>610.99216100000001</ele>
        <time>2016-03-24T15:20:03Z</time>
      </trkpt>
      <trkpt lat="50.671413028612733" lon="6.300984984263778">
        <ele>611.37122499999998</ele>
        <time>2016-03-24T15:19:59Z</time>
      </trkpt>
      <trkpt lat="50.671374974772334" lon="6.300942990928888">
        <ele>611.67824199999995</ele>
        <time>2016-03-24T15:19:55Z</time>
      </trkpt>
      <trkpt lat="50.671332981437445" lon="6.300884988158941">
        <ele>611.85677999999996</ele>
        <time>2016-03-24T15:19:50Z</time>
      </trkpt>
      <trkpt lat="50.671295011416078" lon="6.300822040066123">
        <ele>611.85967000000005</ele>
        <time>2016-03-24T15:19:46Z</time>
      </trkpt>
      <trkpt lat="50.671250000596046" lon="6.300767976790667">
        <ele>611.86263499999995</ele>
        <time>2016-03-24T15:19:42Z</time>
      </trkpt>
      <trkpt lat="50.671219993382692" lon="6.300705028697848">
        <ele>611.86525500000005</ele>
        <time>2016-03-24T15:19:38Z</time>
      </trkpt>
      <trkpt lat="50.671189986169338" lon="6.300650965422392">
        <ele>611.86764100000005</ele>
        <time>2016-03-24T15:19:35Z</time>
      </trkpt>
      <trkpt lat="50.671145981177688" lon="6.300591034814715">
        <ele>611.87069099999997</ele>
        <time>2016-03-24T15:19:32Z</time>
      </trkpt>
      <trkpt lat="50.671089990064502" lon="6.300543006509543">
        <ele>611.87403300000005</ele>
        <time>2016-03-24T15:19:29Z</time>
      </trkpt>
      <trkpt lat="50.671042967587709" lon="6.300486009567976">
        <ele>611.87714200000005</ele>
        <time>2016-03-24T15:19:26Z</time>
      </trkpt>
      <trkpt lat="50.670999968424439" lon="6.300431024283171">
        <ele>611.880045</ele>
        <time>2016-03-24T15:19:23Z</time>
      </trkpt>
      <trkpt lat="50.670974990352988" lon="6.300364974886179">
        <ele>611.88260100000002</ele>
        <time>2016-03-24T15:19:20Z</time>
      </trkpt>
      <trkpt lat="50.670940037816763" lon="6.300316024571657">
        <ele>611.88505499999997</ele>
        <time>2016-03-24T15:19:17Z</time>
      </trkpt>
      <trkpt lat="50.670883040875196" lon="6.300271013751626">
        <ele>611.88839700000005</ele>
        <time>2016-03-24T15:19:13Z</time>
      </trkpt>
      <trkpt lat="50.670837024226785" lon="6.300216028466821">
        <ele>611.89142400000003</ele>
        <time>2016-03-24T15:19:10Z</time>
      </trkpt>
      <trkpt lat="50.670810034498572" lon="6.300154002383351">
        <ele>611.89392399999997</ele>
        <time>2016-03-24T15:19:07Z</time>
      </trkpt>
      <trkpt lat="50.670787990093231" lon="6.300071021541953">
        <ele>611.89691400000004</ele>
        <time>2016-03-24T15:19:04Z</time>
      </trkpt>
      <trkpt lat="50.670776003971696" lon="6.299985023215413">
        <ele>611.89984100000004</ele>
        <time>2016-03-24T15:19:00Z</time>
      </trkpt>
      <trkpt lat="50.670745996758342" lon="6.299908999353647">
        <ele>611.90281700000003</ele>
        <time>2016-03-24T15:18:54Z</time>
      </trkpt>
      <trkpt lat="50.669679986312985" lon="6.298275031149387">
        <ele>614.56064000000003</ele>
        <time>2016-03-24T15:17:06Z</time>
      </trkpt>
      <trkpt lat="50.669540008530021" lon="6.297998009249568">
        <ele>615.41211299999998</ele>
        <time>2016-03-24T15:16:54Z</time>
      </trkpt>
      <trkpt lat="50.669489968568087" lon="6.297932965680957">
        <ele>615.651205</ele>
        <time>2016-03-24T15:16:51Z</time>
      </trkpt>
      <trkpt lat="50.669406987726688" lon="6.29783296957612">
        <ele>616.04555100000005</ele>
        <time>2016-03-24T15:16:43Z</time>
      </trkpt>
      <trkpt lat="50.669363653287292" lon="6.297773541882634">
        <ele>616.21175600000004</ele>
        <time>2016-03-24T15:16:35Z</time>
      </trkpt>
      <trkpt lat="50.669290898367763" lon="6.29763113334775">
        <ele>616.55303900000001</ele>
        <time>2016-03-24T15:16:18Z</time>
      </trkpt>
      <trkpt lat="50.669390559196472" lon="6.297562150284648">
        <ele>616.748017</ele>
        <time>2016-03-24T15:16:12Z</time>
      </trkpt>
      <trkpt lat="50.669640004634857" lon="6.297338018193841">
        <ele>617.71371099999999</ele>
        <time>2016-03-24T15:15:55Z</time>
      </trkpt>
      <trkpt lat="50.669670011848211" lon="6.297268029302359">
        <ele>617.91136200000005</ele>
        <time>2016-03-24T15:15:52Z</time>
      </trkpt>
      <trkpt lat="50.66970999352634" lon="6.297203991562128">
        <ele>618.12160200000005</ele>
        <time>2016-03-24T15:15:49Z</time>
      </trkpt>
      <trkpt lat="50.669764978811145" lon="6.297199968248606">
        <ele>618.32479599999999</ele>
        <time>2016-03-24T15:15:45Z</time>
      </trkpt>
      <trkpt lat="50.669970000162721" lon="6.296866033226252">
        <ele>617.04313999999999</ele>
        <time>2016-03-24T15:15:23Z</time>
      </trkpt>
      <trkpt lat="50.670009981840849" lon="6.296807024627924">
        <ele>616.697857</ele>
        <time>2016-03-24T15:15:19Z</time>
      </trkpt>
      <trkpt lat="50.670033032074571" lon="6.296747010201216">
        <ele>616.41761699999995</ele>
        <time>2016-03-24T15:15:16Z</time>
      </trkpt>
      <trkpt lat="50.670063039287925" lon="6.296677021309733">
        <ele>616.07990400000006</ele>
        <time>2016-03-24T15:15:13Z</time>
      </trkpt>
      <trkpt lat="50.67009698599577" lon="6.296618012711406">
        <ele>615.761211</ele>
        <time>2016-03-24T15:15:10Z</time>
      </trkpt>
      <trkpt lat="50.670135039836168" lon="6.296582976356149">
        <ele>615.48375199999998</ele>
        <time>2016-03-24T15:15:07Z</time>
      </trkpt>
      <trkpt lat="50.670169992372394" lon="6.296535031870008">
        <ele>615.19133199999999</ele>
        <time>2016-03-24T15:15:04Z</time>
      </trkpt>
      <trkpt lat="50.670207962393761" lon="6.296471999958158">
        <ele>614.84375299999999</ele>
        <time>2016-03-24T15:15:01Z</time>
      </trkpt>
      <trkpt lat="50.670241992920637" lon="6.296417014673352">
        <ele>614.5367</ele>
        <time>2016-03-24T15:14:58Z</time>
      </trkpt>
      <trkpt lat="50.67026998847723" lon="6.29634995944798">
        <ele>614.21596299999999</ele>
        <time>2016-03-24T15:14:55Z</time>
      </trkpt>
      <trkpt lat="50.670288009569049" lon="6.296282988041639">
        <ele>613.92513399999996</ele>
        <time>2016-03-24T15:14:52Z</time>
      </trkpt>
      <trkpt lat="50.670307036489248" lon="6.296196989715099">
        <ele>613.561151</ele>
        <time>2016-03-24T15:14:48Z</time>
      </trkpt>
      <trkpt lat="50.670337965711951" lon="6.296116020530462">
        <ele>613.18299200000001</ele>
        <time>2016-03-24T15:14:44Z</time>
      </trkpt>
      <trkpt lat="50.670356992632151" lon="6.29604603163898">
        <ele>612.87866099999997</ele>
        <time>2016-03-24T15:14:41Z</time>
      </trkpt>
      <trkpt lat="50.670369984582067" lon="6.295963972806931">
        <ele>612.54085199999997</ele>
        <time>2016-03-24T15:14:38Z</time>
      </trkpt>
      <trkpt lat="50.670394962653518" lon="6.295893983915448">
        <ele>612.21973800000001</ele>
        <time>2016-03-24T15:14:35Z</time>
      </trkpt>
      <trkpt lat="50.670418012887239" lon="6.295829024165869">
        <ele>611.92222100000004</ele>
        <time>2016-03-24T15:14:32Z</time>
      </trkpt>
      <trkpt lat="50.670439973473549" lon="6.295763980597258">
        <ele>611.62772700000005</ele>
        <time>2016-03-24T15:14:29Z</time>
      </trkpt>
      <trkpt lat="50.670466963201761" lon="6.295678988099098">
        <ele>611.247748</ele>
        <time>2016-03-24T15:14:25Z</time>
      </trkpt>
      <trkpt lat="50.670494036749005" lon="6.295612016692758">
        <ele>610.93043899999998</ele>
        <time>2016-03-24T15:14:19Z</time>
      </trkpt>
      <trkpt lat="50.670517003163695" lon="6.295541021972895">
        <ele>610.61177199999997</ele>
        <time>2016-03-24T15:14:14Z</time>
      </trkpt>
      <trkpt lat="50.670539969578385" lon="6.295464998111129">
        <ele>610.27518899999995</ele>
        <time>2016-03-24T15:14:10Z</time>
      </trkpt>
      <trkpt lat="50.670569976791739" lon="6.295406995341182">
        <ele>609.97599700000001</ele>
        <time>2016-03-24T15:14:07Z</time>
      </trkpt>
      <trkpt lat="50.670590009540319" lon="6.295342035591602">
        <ele>609.687231</ele>
        <time>2016-03-24T15:14:04Z</time>
      </trkpt>
      <trkpt lat="50.670605013146996" lon="6.295265005901456">
        <ele>609.36529399999995</ele>
        <time>2016-03-24T15:14:01Z</time>
      </trkpt>
      <trkpt lat="50.670635020360351" lon="6.295190993696451">
        <ele>609.01422700000001</ele>
        <time>2016-03-24T15:13:58Z</time>
      </trkpt>
      <trkpt lat="50.670653963461518" lon="6.295119998976588">
        <ele>608.70622000000003</ele>
        <time>2016-03-24T15:13:54Z</time>
      </trkpt>
      <trkpt lat="50.670680031180382" lon="6.295058978721499">
        <ele>608.41243299999996</ele>
        <time>2016-03-24T15:13:50Z</time>
      </trkpt>
      <trkpt lat="50.670708026736975" lon="6.294989995658398">
        <ele>608.08499500000005</ele>
        <time>2016-03-24T15:13:46Z</time>
      </trkpt>
      <trkpt lat="50.670739961788058" lon="6.294925035908818">
        <ele>607.75606100000005</ele>
        <time>2016-03-24T15:13:42Z</time>
      </trkpt>
      <trkpt lat="50.671196021139622" lon="6.29340497776866">
        <ele>600.08311600000002</ele>
        <time>2016-03-24T15:12:24Z</time>
      </trkpt>
      <trkpt lat="50.671210018917918" lon="6.293331971392036">
        <ele>599.745632</ele>
        <time>2016-03-24T15:12:20Z</time>
      </trkpt>
      <trkpt lat="50.671238014474511" lon="6.293266005814076">
        <ele>599.39419499999997</ele>
        <time>2016-03-24T15:12:17Z</time>
      </trkpt>
      <trkpt lat="50.671295011416078" lon="6.293235998600721">
        <ele>598.97467099999994</ele>
        <time>2016-03-24T15:12:14Z</time>
      </trkpt>
      <trkpt lat="50.671340022236109" lon="6.293209008872509">
        <ele>598.63853700000004</ele>
        <time>2016-03-24T15:12:12Z</time>
      </trkpt>
      <trkpt lat="50.671386960893869" lon="6.293186964467168">
        <ele>598.29625299999998</ele>
        <time>2016-03-24T15:12:10Z</time>
      </trkpt>
      <trkpt lat="50.671440018340945" lon="6.293168021366">
        <ele>597.91678200000001</ele>
        <time>2016-03-24T15:12:08Z</time>
      </trkpt>
      <trkpt lat="50.671486034989357" lon="6.293172966688871">
        <ele>597.59485299999994</ele>
        <time>2016-03-24T15:12:06Z</time>
      </trkpt>
      <trkpt lat="50.671540014445782" lon="6.293185036629438">
        <ele>597.21411000000001</ele>
        <time>2016-03-24T15:12:03Z</time>
      </trkpt>
      <trkpt lat="50.671589970588684" lon="6.293214960023761">
        <ele>596.84062800000004</ele>
        <time>2016-03-24T15:12:00Z</time>
      </trkpt>
      <trkpt lat="50.671630036085844" lon="6.29325301386416">
        <ele>596.51463999999999</ele>
        <time>2016-03-24T15:11:58Z</time>
      </trkpt>
      <trkpt lat="50.671679992228746" lon="6.293288972228766">
        <ele>596.13091899999995</ele>
        <time>2016-03-24T15:11:53Z</time>
      </trkpt>
      <trkpt lat="50.671706981956959" lon="6.293347980827093">
        <ele>595.80890499999998</ele>
        <time>2016-03-24T15:11:41Z</time>
      </trkpt>
      <trkpt lat="50.671740006655455" lon="6.293395003303886">
        <ele>595.49852399999997</ele>
        <time>2016-03-24T15:11:38Z</time>
      </trkpt>
      <trkpt lat="50.671787029132247" lon="6.293449988588691">
        <ele>595.08997799999997</ele>
        <time>2016-03-24T15:11:33Z</time>
      </trkpt>
      <trkpt lat="50.67181795835495" lon="6.293506985530257">
        <ele>594.75762399999996</ele>
        <time>2016-03-24T15:11:29Z</time>
      </trkpt>
      <trkpt lat="50.672062039375305" lon="6.293529029935598">
        <ele>592.99068299999999</ele>
        <time>2016-03-24T15:08:52Z</time>
      </trkpt>
      <trkpt lat="50.672049969434738" lon="6.293450994417071">
        <ele>592.62237500000003</ele>
        <time>2016-03-24T15:08:45Z</time>
      </trkpt>
      <trkpt lat="50.672065978869796" lon="6.293381005525589">
        <ele>592.28091800000004</ele>
        <time>2016-03-24T15:08:41Z</time>
      </trkpt>
      <trkpt lat="50.672076959162951" lon="6.293303975835443">
        <ele>591.91872799999999</ele>
        <time>2016-03-24T15:08:36Z</time>
      </trkpt>
      <trkpt lat="50.672085005789995" lon="6.293229963630438">
        <ele>591.57426399999997</ele>
        <time>2016-03-24T15:08:33Z</time>
      </trkpt>
      <trkpt lat="50.67207301966846" lon="6.293158968910575">
        <ele>591.23708499999998</ele>
        <time>2016-03-24T15:08:27Z</time>
      </trkpt>
      <trkpt lat="50.672070002183318" lon="6.293085040524602">
        <ele>590.89683100000002</ele>
        <time>2016-03-24T15:08:23Z</time>
      </trkpt>
      <trkpt lat="50.672070002183318" lon="6.292990995571017">
        <ele>590.46550000000002</ele>
        <time>2016-03-24T15:08:20Z</time>
      </trkpt>
      <trkpt lat="50.672079976648092" lon="6.292912038043141">
        <ele>590.09583699999996</ele>
        <time>2016-03-24T15:08:17Z</time>
      </trkpt>
      <trkpt lat="50.67209598608315" lon="6.29282402805984">
        <ele>589.675749</ele>
        <time>2016-03-24T15:08:14Z</time>
      </trkpt>
      <trkpt lat="50.672107972204685" lon="6.2927380297333">
        <ele>589.27167499999996</ele>
        <time>2016-03-24T15:08:11Z</time>
      </trkpt>
      <trkpt lat="50.672115013003349" lon="6.292666029185057">
        <ele>588.93742799999995</ele>
        <time>2016-03-24T15:08:09Z</time>
      </trkpt>
      <trkpt lat="50.672104032710195" lon="6.291736979037523">
        <ele>584.57500000000005</ele>
        <time>2016-03-24T15:07:31Z</time>
      </trkpt>
      <trkpt lat="50.67209598608315" lon="6.291638994589448">
        <ele>584.12159899999995</ele>
        <time>2016-03-24T15:07:28Z</time>
      </trkpt>
      <trkpt lat="50.67207301966846" lon="6.291549978777766">
        <ele>583.68056300000001</ele>
        <time>2016-03-24T15:07:24Z</time>
      </trkpt>
      <trkpt lat="50.672065978869796" lon="6.291460040956736">
        <ele>583.26448700000003</ele>
        <time>2016-03-24T15:07:20Z</time>
      </trkpt>
      <trkpt lat="50.672060027718544" lon="6.291379993781447">
        <ele>582.89483499999994</ele>
        <time>2016-03-24T15:07:17Z</time>
      </trkpt>
      <trkpt lat="50.67203002050519" lon="6.29129801876843">
        <ele>582.46037100000001</ele>
        <time>2016-03-24T15:07:13Z</time>
      </trkpt>
      <trkpt lat="50.672004958614707" lon="6.29123599268496">
        <ele>582.12317399999995</ele>
        <time>2016-03-24T15:07:09Z</time>
      </trkpt>
      <trkpt lat="50.671996995806694" lon="6.291146976873279">
        <ele>581.71069799999998</ele>
        <time>2016-03-24T15:07:05Z</time>
      </trkpt>
      <trkpt lat="50.671996995806694" lon="6.29106399603188">
        <ele>581.73597400000006</ele>
        <time>2016-03-24T15:07:01Z</time>
      </trkpt>
      <trkpt lat="50.671977968886495" lon="6.29097699187696">
        <ele>581.82559600000002</ele>
        <time>2016-03-24T15:06:58Z</time>
      </trkpt>
      <trkpt lat="50.671979980543256" lon="6.290900968015194">
        <ele>581.89967799999999</ele>
        <time>2016-03-24T15:06:56Z</time>
      </trkpt>
      <trkpt lat="50.671979980543256" lon="6.290824022144079">
        <ele>581.97467099999994</ele>
        <time>2016-03-24T15:06:55Z</time>
      </trkpt>
      <trkpt lat="50.671977968886495" lon="6.290693012997508">
        <ele>582.10229300000003</ele>
        <time>2016-03-24T15:06:53Z</time>
      </trkpt>
      <trkpt lat="50.671962965279818" lon="6.290592011064291">
        <ele>582.20332499999995</ele>
        <time>2016-03-24T15:06:51Z</time>
      </trkpt>
      <trkpt lat="50.671939998865128" lon="6.290485979989171">
        <ele>582.31244500000003</ele>
        <time>2016-03-24T15:06:48Z</time>
      </trkpt>
      <trkpt lat="50.671909991651773" lon="6.290405010804534">
        <ele>582.403817</ele>
        <time>2016-03-24T15:06:45Z</time>
      </trkpt>
      <trkpt lat="50.671875039115548" lon="6.290326975286007">
        <ele>582.49689799999999</ele>
        <time>2016-03-24T15:06:35Z</time>
      </trkpt>
      <trkpt lat="50.671863975003362" lon="6.290250029414892">
        <ele>582.57377199999996</ele>
        <time>2016-03-24T15:06:29Z</time>
      </trkpt>
      <trkpt lat="50.671856012195349" lon="6.290175011381507">
        <ele>582.64784499999996</ele>
        <time>2016-03-24T15:06:26Z</time>
      </trkpt>
      <trkpt lat="50.671800021082163" lon="6.289900001138449">
        <ele>582.99177399999996</ele>
        <time>2016-03-24T15:06:07Z</time>
      </trkpt>
      <trkpt lat="50.671775965020061" lon="6.289828000590205">
        <ele>583.07100500000001</ele>
        <time>2016-03-24T15:06:03Z</time>
      </trkpt>
      <trkpt lat="50.671763978898525" lon="6.289758011698723">
        <ele>583.14163099999996</ele>
        <time>2016-03-24T15:05:59Z</time>
      </trkpt>
      <trkpt lat="50.671730032190681" lon="6.289704032242298">
        <ele>583.21576600000003</ele>
        <time>2016-03-24T15:05:55Z</time>
      </trkpt>
      <trkpt lat="50.671702958643436" lon="6.289634965360165">
        <ele>583.29474500000003</ele>
        <time>2016-03-24T15:05:50Z</time>
      </trkpt>
      <trkpt lat="50.671352008357644" lon="6.287770997732878">
        <ele>586.70404199999996</ele>
        <time>2016-03-24T15:04:18Z</time>
      </trkpt>
      <trkpt lat="50.671302974224091" lon="6.287721963599324">
        <ele>586.886213</ele>
        <time>2016-03-24T15:04:15Z</time>
      </trkpt>
      <trkpt lat="50.671287970617414" lon="6.287636971101165">
        <ele>587.06181400000003</ele>
        <time>2016-03-24T15:04:11Z</time>
      </trkpt>
      <trkpt lat="50.670822020620108" lon="6.286087995395064">
        <ele>589.08658300000002</ele>
        <time>2016-03-24T15:02:46Z</time>
      </trkpt>
      <trkpt lat="50.670780027285218" lon="6.286059999838471">
        <ele>588.89695900000004</ele>
        <time>2016-03-24T15:02:35Z</time>
      </trkpt>
      <trkpt lat="50.66977302543819" lon="6.284162001684308">
        <ele>582.64714800000002</ele>
        <time>2016-03-24T15:00:37Z</time>
      </trkpt>
      <trkpt lat="50.669723991304636" lon="6.284100981429219">
        <ele>582.65551700000003</ele>
        <time>2016-03-24T15:00:34Z</time>
      </trkpt>
      <trkpt lat="50.669674035161734" lon="6.284049013629556">
        <ele>582.66354699999999</ele>
        <time>2016-03-24T15:00:31Z</time>
      </trkpt>
      <trkpt lat="50.669619971886277" lon="6.284011965617538">
        <ele>582.67144099999996</ele>
        <time>2016-03-24T15:00:27Z</time>
      </trkpt>
      <trkpt lat="50.669579990208149" lon="6.283890008926392">
        <ele>582.68460800000003</ele>
        <time>2016-03-24T15:00:15Z</time>
      </trkpt>
      <trkpt lat="50.669574961066246" lon="6.283807028084993">
        <ele>582.69169399999998</ele>
        <time>2016-03-24T15:00:11Z</time>
      </trkpt>
      <trkpt lat="50.66913197748363" lon="6.281953034922481">
        <ele>583.62202100000002</ele>
        <time>2016-03-24T14:58:50Z</time>
      </trkpt>
      <trkpt lat="50.669113034382463" lon="6.281879022717476">
        <ele>583.74190199999998</ele>
        <time>2016-03-24T14:58:47Z</time>
      </trkpt>
      <trkpt lat="50.669094007462263" lon="6.281816996634007">
        <ele>583.84530500000005</ele>
        <time>2016-03-24T14:58:41Z</time>
      </trkpt>
      <trkpt lat="50.669074980542064" lon="6.281752036884427">
        <ele>583.95278099999996</ele>
        <time>2016-03-24T14:58:35Z</time>
      </trkpt>
      <trkpt lat="50.669037010520697" lon="6.28169403411448">
        <ele>584.078034</ele>
        <time>2016-03-24T14:58:33Z</time>
      </trkpt>
      <trkpt lat="50.66900297999382" lon="6.281622033566237">
        <ele>584.21284800000001</ele>
        <time>2016-03-24T14:58:30Z</time>
      </trkpt>
      <trkpt lat="50.668975990265608" lon="6.281547015532851">
        <ele>584.34235799999999</ele>
        <time>2016-03-24T14:58:27Z</time>
      </trkpt>
      <trkpt lat="50.66895998083055" lon="6.281474009156227">
        <ele>584.45833600000003</ele>
        <time>2016-03-24T14:58:24Z</time>
      </trkpt>
      <trkpt lat="50.668944977223873" lon="6.281407037749887">
        <ele>584.56502799999998</ele>
        <time>2016-03-24T14:58:21Z</time>
      </trkpt>
      <trkpt lat="50.668933996930718" lon="6.281318021938205">
        <ele>584.70117800000003</ele>
        <time>2016-03-24T14:58:17Z</time>
      </trkpt>
      <trkpt lat="50.668889991939068" lon="6.281231017783284">
        <ele>584.86829899999998</ele>
        <time>2016-03-24T14:58:14Z</time>
      </trkpt>
      <trkpt lat="50.668109972029924" lon="6.279135039076209">
        <ele>583.85377600000004</ele>
        <time>2016-03-24T14:56:32Z</time>
      </trkpt>
      <trkpt lat="50.668052975088358" lon="6.279083993285894">
        <ele>583.57065899999998</ele>
        <time>2016-03-24T14:56:29Z</time>
      </trkpt>
      <trkpt lat="50.6680369656533" lon="6.278991037979722">
        <ele>583.30676900000003</ele>
        <time>2016-03-24T14:56:24Z</time>
      </trkpt>
      <trkpt lat="50.66803403198719" lon="6.278919037431479">
        <ele>583.10917600000005</ele>
        <time>2016-03-24T14:56:21Z</time>
      </trkpt>
      <trkpt lat="50.668015005066991" lon="6.27883899025619">
        <ele>582.875226</ele>
        <time>2016-03-24T14:56:18Z</time>
      </trkpt>
      <trkpt lat="50.667994972318411" lon="6.278759026899934">
        <ele>582.639725</ele>
        <time>2016-03-24T14:56:15Z</time>
      </trkpt>
      <trkpt lat="50.667811995372176" lon="6.278309002518654">
        <ele>581.17558199999996</ele>
        <time>2016-03-24T14:51:11Z</time>
      </trkpt>
      <trkpt lat="50.667786011472344" lon="6.278241025283933">
        <ele>580.95810800000004</ele>
        <time>2016-03-24T14:51:08Z</time>
      </trkpt>
      <trkpt lat="50.667225010693073" lon="6.276401029899716">
        <ele>578.11722299999997</ele>
        <time>2016-03-24T14:44:59Z</time>
      </trkpt>
      <trkpt lat="50.667193997651339" lon="6.276342021301389">
        <ele>578.05661799999996</ele>
        <time>2016-03-24T14:44:55Z</time>
      </trkpt>
      <trkpt lat="50.666329991072416" lon="6.273159999400377">
        <ele>575.50338599999998</ele>
        <time>2016-03-24T14:42:01Z</time>
      </trkpt>
      <trkpt lat="50.66582003608346" lon="6.272277971729636">
        <ele>571.12994600000002</ele>
        <time>2016-03-24T14:40:44Z</time>
      </trkpt>
      <trkpt lat="50.665806038305163" lon="6.272202031686902">
        <ele>570.72305200000005</ele>
        <time>2016-03-24T14:40:41Z</time>
      </trkpt>
      <trkpt lat="50.665793968364596" lon="6.272121984511614">
        <ele>570.30040099999997</ele>
        <time>2016-03-24T14:40:38Z</time>
      </trkpt>
      <trkpt lat="50.665733031928539" lon="6.272007990628481">
        <ele>569.498063</ele>
        <time>2016-03-24T14:40:33Z</time>
      </trkpt>
      <trkpt lat="50.665690032765269" lon="6.271958034485579">
        <ele>569.06479200000001</ele>
        <time>2016-03-24T14:40:30Z</time>
      </trkpt>
      <trkpt lat="50.665657008066773" lon="6.271911012008786">
        <ele>568.70419300000003</ele>
        <time>2016-03-24T14:40:27Z</time>
      </trkpt>
      <trkpt lat="50.665615014731884" lon="6.271861977875233">
        <ele>568.28050099999996</ele>
        <time>2016-03-24T14:40:23Z</time>
      </trkpt>
      <trkpt lat="50.66556497476995" lon="6.271815961226821">
        <ele>567.81102999999996</ele>
        <time>2016-03-24T14:40:19Z</time>
      </trkpt>
      <trkpt lat="50.665534967556596" lon="6.27174898982048">
        <ele>567.38929299999995</ele>
        <time>2016-03-24T14:40:16Z</time>
      </trkpt>
      <trkpt lat="50.665509989485145" lon="6.271670032292604">
        <ele>566.93533500000001</ele>
        <time>2016-03-24T14:40:12Z</time>
      </trkpt>
      <trkpt lat="50.665474031120539" lon="6.271603982895613">
        <ele>566.48767499999997</ele>
        <time>2016-03-24T14:40:09Z</time>
      </trkpt>
      <trkpt lat="50.66543597728014" lon="6.271541034802795">
        <ele>566.04056500000002</ele>
        <time>2016-03-24T14:40:05Z</time>
      </trkpt>
      <trkpt lat="50.665366994217038" lon="6.271164016798139">
        <ele>563.92409399999997</ele>
        <time>2016-03-24T14:39:47Z</time>
      </trkpt>
      <trkpt lat="50.665344027802348" lon="6.271076006814838">
        <ele>563.43471599999998</ele>
        <time>2016-03-24T14:39:44Z</time>
      </trkpt>
      <trkpt lat="50.665336987003684" lon="6.270977016538382">
        <ele>562.92258100000004</ele>
        <time>2016-03-24T14:39:41Z</time>
      </trkpt>
      <trkpt lat="50.66526398062706" lon="6.270449040457606">
        <ele>560.54550099999994</ele>
        <time>2016-03-24T14:38:45Z</time>
      </trkpt>
      <trkpt lat="50.665030041709542" lon="6.269101984798908">
        <ele>560.37905699999999</ele>
        <time>2016-03-24T14:37:37Z</time>
      </trkpt>
      <trkpt lat="50.665040016174316" lon="6.269001988694072">
        <ele>560.36753099999999</ele>
        <time>2016-03-24T14:37:34Z</time>
      </trkpt>
      <trkpt lat="50.664223032072186" lon="6.267273975536227">
        <ele>551.49629800000002</ele>
        <time>2016-03-24T14:35:53Z</time>
      </trkpt>
      <trkpt lat="50.66259996034205" lon="6.265090992674232">
        <ele>544.73992899999996</ele>
        <time>2016-03-24T14:34:00Z</time>
      </trkpt>
      <trkpt lat="50.662574982270598" lon="6.264995019882917">
        <ele>544.830376</ele>
        <time>2016-03-24T14:33:57Z</time>
      </trkpt>
      <trkpt lat="50.662559978663921" lon="6.264904998242855">
        <ele>544.911474</ele>
        <time>2016-03-24T14:33:54Z</time>
      </trkpt>
      <trkpt lat="50.661956984549761" lon="6.263833958655596">
        <ele>549.28487199999995</ele>
        <time>2016-03-24T14:33:18Z</time>
      </trkpt>
      <trkpt lat="50.66154501400888" lon="6.262780018150806">
        <ele>555.16587400000003</ele>
        <time>2016-03-24T14:32:46Z</time>
      </trkpt>
      <trkpt lat="50.661506960168481" lon="6.262726960703731">
        <ele>555.48547099999996</ele>
        <time>2016-03-24T14:32:43Z</time>
      </trkpt>
      <trkpt lat="50.661490028724074" lon="6.262641968205571">
        <ele>555.84147199999995</ele>
        <time>2016-03-24T14:32:39Z</time>
      </trkpt>
      <trkpt lat="50.661277966573834" lon="6.262081973254681">
        <ele>557.15810699999997</ele>
        <time>2016-03-24T14:32:06Z</time>
      </trkpt>
      <trkpt lat="50.661235973238945" lon="6.262034028768539">
        <ele>557.24179400000003</ele>
        <time>2016-03-24T14:32:01Z</time>
      </trkpt>
      <trkpt lat="50.66120496019721" lon="6.261974014341831">
        <ele>557.32096899999999</ele>
        <time>2016-03-24T14:31:57Z</time>
      </trkpt>
      <trkpt lat="50.661190040409565" lon="6.261893967166543">
        <ele>557.40630299999998</ele>
        <time>2016-03-24T14:31:55Z</time>
      </trkpt>
      <trkpt lat="50.661006979644299" lon="6.261322991922498">
        <ele>558.06958599999996</ele>
        <time>2016-03-24T14:31:28Z</time>
      </trkpt>
      <trkpt lat="50.660964986309409" lon="6.261347969993949">
        <ele>558.50346300000001</ele>
        <time>2016-03-24T14:31:04Z</time>
      </trkpt>
      <trkpt lat="50.660919975489378" lon="6.261365991085768">
        <ele>558.57837300000006</ele>
        <time>2016-03-24T14:31:00Z</time>
      </trkpt>
      <trkpt lat="50.660828026011586" lon="6.261431034654379">
        <ele>558.751216</ele>
        <time>2016-03-24T14:30:54Z</time>
      </trkpt>
      <trkpt lat="50.66077396273613" lon="6.26143597997725">
        <ele>558.83850099999995</ele>
        <time>2016-03-24T14:30:51Z</time>
      </trkpt>
      <trkpt lat="50.660725012421608" lon="6.261450983583927">
        <ele>558.91904199999999</ele>
        <time>2016-03-24T14:30:47Z</time>
      </trkpt>
      <trkpt lat="50.660670027136803" lon="6.261445032432675">
        <ele>559.00800200000003</ele>
        <time>2016-03-24T14:30:43Z</time>
      </trkpt>
      <trkpt lat="50.660625016316772" lon="6.26145601272583">
        <ele>559.08148100000005</ele>
        <time>2016-03-24T14:30:38Z</time>
      </trkpt>
      <trkpt lat="50.660586962476373" lon="6.261504041031003">
        <ele>559.160033</ele>
        <time>2016-03-24T14:30:35Z</time>
      </trkpt>
      <trkpt lat="50.660540023818612" lon="6.261560032144189">
        <ele>559.25507400000004</ele>
        <time>2016-03-24T14:30:32Z</time>
      </trkpt>
      <trkpt lat="50.659509971737862" lon="6.262176018208265">
        <ele>560.373062</ele>
        <time>2016-03-24T14:29:06Z</time>
      </trkpt>
      <trkpt lat="50.65946202725172" lon="6.262199990451336">
        <ele>560.41642200000001</ele>
        <time>2016-03-24T14:29:04Z</time>
      </trkpt>
      <trkpt lat="50.659405030310154" lon="6.262221029028297">
        <ele>560.46682699999997</ele>
        <time>2016-03-24T14:29:01Z</time>
      </trkpt>
      <trkpt lat="50.65935499034822" lon="6.262241983786225">
        <ele>560.51138200000003</ele>
        <time>2016-03-24T14:28:58Z</time>
      </trkpt>
      <trkpt lat="50.659306040033698" lon="6.262266961857677">
        <ele>560.55572900000004</ele>
        <time>2016-03-24T14:28:55Z</time>
      </trkpt>
      <trkpt lat="50.659263962879777" lon="6.262291017919779">
        <ele>560.59419600000001</ele>
        <time>2016-03-24T14:28:50Z</time>
      </trkpt>
      <trkpt lat="50.659200008958578" lon="6.262313984334469">
        <ele>560.65071899999998</ele>
        <time>2016-03-24T14:28:47Z</time>
      </trkpt>
      <trkpt lat="50.659149968996644" lon="6.262365030124784">
        <ele>560.70199200000002</ele>
        <time>2016-03-24T14:28:41Z</time>
      </trkpt>
      <trkpt lat="50.658645965158939" lon="6.262630987912417">
        <ele>560.87382300000002</ele>
        <time>2016-03-24T14:28:01Z</time>
      </trkpt>
      <trkpt lat="50.658600032329559" lon="6.262625958770514">
        <ele>560.67481099999998</ele>
        <time>2016-03-24T14:27:56Z</time>
      </trkpt>
      <trkpt lat="50.658545969054103" lon="6.262621013447642">
        <ele>560.44133999999997</ele>
        <time>2016-03-24T14:27:52Z</time>
      </trkpt>
      <trkpt lat="50.658497018739581" lon="6.262641968205571">
        <ele>560.22218399999997</ele>
        <time>2016-03-24T14:27:49Z</time>
      </trkpt>
      <trkpt lat="50.658449996262789" lon="6.262663006782532">
        <ele>560.011346</ele>
        <time>2016-03-24T14:27:46Z</time>
      </trkpt>
      <trkpt lat="50.658398028463125" lon="6.262681027874351">
        <ele>559.781567</ele>
        <time>2016-03-24T14:27:43Z</time>
      </trkpt>
      <trkpt lat="50.658347988501191" lon="6.262709023430944">
        <ele>559.55256599999996</ele>
        <time>2016-03-24T14:27:40Z</time>
      </trkpt>
      <trkpt lat="50.658289985731244" lon="6.262727966532111">
        <ele>559.29688999999996</ele>
        <time>2016-03-24T14:27:35Z</time>
      </trkpt>
      <trkpt lat="50.658229971304536" lon="6.262720003724098">
        <ele>559.03700000000003</ele>
        <time>2016-03-24T14:27:31Z</time>
      </trkpt>
      <trkpt lat="50.658180015161633" lon="6.262701982632279">
        <ele>558.81564600000002</ele>
        <time>2016-03-24T14:27:27Z</time>
      </trkpt>
      <trkpt lat="50.658129975199699" lon="6.262706005945802">
        <ele>558.59956299999999</ele>
        <time>2016-03-24T14:27:24Z</time>
      </trkpt>
      <trkpt lat="50.658084964379668" lon="6.262706005945802">
        <ele>558.40533800000003</ele>
        <time>2016-03-24T14:27:22Z</time>
      </trkpt>
      <trkpt lat="50.658035008236766" lon="6.262698965147138">
        <ele>558.18868399999997</ele>
        <time>2016-03-24T14:27:20Z</time>
      </trkpt>
      <trkpt lat="50.657969964668155" lon="6.262682033702731">
        <ele>557.90430600000002</ele>
        <time>2016-03-24T14:27:17Z</time>
      </trkpt>
      <trkpt lat="50.657920008525252" lon="6.262632999569178">
        <ele>557.65024400000004</ele>
        <time>2016-03-24T14:27:15Z</time>
      </trkpt>
      <trkpt lat="50.657859994098544" lon="6.262582959607244">
        <ele>557.35735999999997</ele>
        <time>2016-03-24T14:27:13Z</time>
      </trkpt>
      <trkpt lat="50.657795034348965" lon="6.262542977929115">
        <ele>557.05622000000005</ele>
        <time>2016-03-24T14:27:11Z</time>
      </trkpt>
      <trkpt lat="50.657725967466831" lon="6.262485980987549">
        <ele>556.72004000000004</ele>
        <time>2016-03-24T14:27:09Z</time>
      </trkpt>
      <trkpt lat="50.657626977190375" lon="6.262435019016266">
        <ele>556.27053599999999</ele>
        <time>2016-03-24T14:27:02Z</time>
      </trkpt>
      <trkpt lat="50.657580038532615" lon="6.262423032894731">
        <ele>556.06503799999996</ele>
        <time>2016-03-24T14:26:55Z</time>
      </trkpt>
      <trkpt lat="50.657529998570681" lon="6.262430995702744">
        <ele>555.84812499999998</ele>
        <time>2016-03-24T14:26:50Z</time>
      </trkpt>
      <trkpt lat="50.657479958608747" lon="6.262425966560841">
        <ele>555.63188600000001</ele>
        <time>2016-03-24T14:26:45Z</time>
      </trkpt>
      <trkpt lat="50.657433019950986" lon="6.262457985430956">
        <ele>555.41093899999998</ele>
        <time>2016-03-24T14:26:34Z</time>
      </trkpt>
      <trkpt lat="50.657387003302574" lon="6.262478018179536">
        <ele>555.20499400000006</ele>
        <time>2016-03-24T14:26:21Z</time>
      </trkpt>
      <trkpt lat="50.657345009967685" lon="6.262526968494058">
        <ele>554.97952299999997</ele>
        <time>2016-03-24T14:26:16Z</time>
      </trkpt>
      <trkpt lat="50.657307039946318" lon="6.262564016506076">
        <ele>554.78678000000002</ele>
        <time>2016-03-24T14:26:12Z</time>
      </trkpt>
      <trkpt lat="50.657256999984384" lon="6.262588994577527">
        <ele>554.56039199999998</ele>
        <time>2016-03-24T14:26:08Z</time>
      </trkpt>
      <trkpt lat="50.657206960022449" lon="6.262599974870682">
        <ele>554.34249799999998</ele>
        <time>2016-03-24T14:26:05Z</time>
      </trkpt>
      <trkpt lat="50.657160021364689" lon="6.262629982084036">
        <ele>554.12366099999997</ele>
        <time>2016-03-24T14:26:01Z</time>
      </trkpt>
      <trkpt lat="50.657111993059516" lon="6.262683961540461">
        <ele>553.86919499999999</ele>
        <time>2016-03-24T14:25:57Z</time>
      </trkpt>
      <trkpt lat="50.656257960945368" lon="6.263095010071993">
        <ele>557.52281800000003</ele>
        <time>2016-03-24T14:25:06Z</time>
      </trkpt>
      <trkpt lat="50.656203981488943" lon="6.263119988143444">
        <ele>557.82126000000005</ele>
        <time>2016-03-24T14:25:02Z</time>
      </trkpt>
      <trkpt lat="50.656150002032518" lon="6.263119988143444">
        <ele>558.10762199999999</ele>
        <time>2016-03-24T14:24:36Z</time>
      </trkpt>
      <trkpt lat="50.656104991212487" lon="6.263131974264979">
        <ele>558.34964400000001</ele>
        <time>2016-03-24T14:24:31Z</time>
      </trkpt>
      <trkpt lat="50.656059980392456" lon="6.263171033933759">
        <ele>558.62192800000003</ele>
        <time>2016-03-24T14:24:28Z</time>
      </trkpt>
      <trkpt lat="50.656006000936031" lon="6.263209003955126">
        <ele>558.93549499999995</ele>
        <time>2016-03-24T14:24:25Z</time>
      </trkpt>
      <trkpt lat="50.655952021479607" lon="6.263260971754789">
        <ele>559.27100399999995</ele>
        <time>2016-03-24T14:24:22Z</time>
      </trkpt>
      <trkpt lat="50.655889995396137" lon="6.263289973139763">
        <ele>559.61394199999995</ele>
        <time>2016-03-24T14:24:19Z</time>
      </trkpt>
      <trkpt lat="50.655845990404487" lon="6.263309000059962">
        <ele>559.85586000000001</ele>
        <time>2016-03-24T14:24:17Z</time>
      </trkpt>
      <trkpt lat="50.655792010948062" lon="6.263333978131414">
        <ele>560.15430200000003</ele>
        <time>2016-03-24T14:24:14Z</time>
      </trkpt>
      <trkpt lat="50.655742976814508" lon="6.263345964252949">
        <ele>560.41726300000005</ele>
        <time>2016-03-24T14:24:11Z</time>
      </trkpt>
      <trkpt lat="50.655699977651238" lon="6.263376977294684">
        <ele>560.66798100000005</ele>
        <time>2016-03-24T14:24:08Z</time>
      </trkpt>
      <trkpt lat="50.655663013458252" lon="6.263430034741759">
        <ele>560.93302600000004</ele>
        <time>2016-03-24T14:24:04Z</time>
      </trkpt>
      <trkpt lat="50.655388003215194" lon="6.263569006696343">
        <ele>562.53788899999995</ele>
        <time>2016-03-24T14:23:44Z</time>
      </trkpt>
      <trkpt lat="50.655341986566782" lon="6.263569006696343">
        <ele>562.78182700000002</ele>
        <time>2016-03-24T14:23:40Z</time>
      </trkpt>
      <trkpt lat="50.655299993231893" lon="6.263595996424556">
        <ele>562.94144600000004</ele>
        <time>2016-03-24T14:23:33Z</time>
      </trkpt>
      <trkpt lat="50.655260011553764" lon="6.263631032779813">
        <ele>563.03479600000003</ele>
        <time>2016-03-24T14:23:29Z</time>
      </trkpt>
      <trkpt lat="50.65520997159183" lon="6.263661039993167">
        <ele>563.14396799999997</ele>
        <time>2016-03-24T14:23:25Z</time>
      </trkpt>
      <trkpt lat="50.65516303293407" lon="6.263680988922715">
        <ele>563.24331400000005</ele>
        <time>2016-03-24T14:23:22Z</time>
      </trkpt>
      <trkpt lat="50.655109975486994" lon="6.263701021671295">
        <ele>563.35452799999996</ele>
        <time>2016-03-24T14:23:17Z</time>
      </trkpt>
      <trkpt lat="50.655055996030569" lon="6.263723988085985">
        <ele>563.46867699999996</ele>
        <time>2016-03-24T14:23:12Z</time>
      </trkpt>
      <trkpt lat="50.655009979382157" lon="6.263735974207521">
        <ele>563.56382799999994</ele>
        <time>2016-03-24T14:23:07Z</time>
      </trkpt>
      <trkpt lat="50.654963962733746" lon="6.263778973370791">
        <ele>563.67295100000001</ele>
        <time>2016-03-24T14:23:03Z</time>
      </trkpt>
      <trkpt lat="50.654909983277321" lon="6.263824990019202">
        <ele>563.79819699999996</ele>
        <time>2016-03-24T14:23:00Z</time>
      </trkpt>
      <trkpt lat="50.654879976063967" lon="6.263880981132388">
        <ele>563.893055</ele>
        <time>2016-03-24T14:22:58Z</time>
      </trkpt>
      <trkpt lat="50.654834965243936" lon="6.263934960588813">
        <ele>564.00844600000005</ele>
        <time>2016-03-24T14:22:55Z</time>
      </trkpt>
      <trkpt lat="50.654790038242936" lon="6.263973014429212">
        <ele>564.11261400000001</ele>
        <time>2016-03-24T14:22:52Z</time>
      </trkpt>
      <trkpt lat="50.654747039079666" lon="6.264017019420862">
        <ele>564.21721600000001</ele>
        <time>2016-03-24T14:22:48Z</time>
      </trkpt>
      <trkpt lat="50.65464997664094" lon="6.26407602801919">
        <ele>564.43013299999996</ele>
        <time>2016-03-24T14:22:42Z</time>
      </trkpt>
      <trkpt lat="50.654600020498037" lon="6.264093965291977">
        <ele>564.53479600000003</ele>
        <time>2016-03-24T14:22:39Z</time>
      </trkpt>
      <trkpt lat="50.653933994472027" lon="6.264350032433868">
        <ele>566.00370699999996</ele>
        <time>2016-03-24T14:21:51Z</time>
      </trkpt>
      <trkpt lat="50.653884960338473" lon="6.264345003291965">
        <ele>566.10391400000003</ele>
        <time>2016-03-24T14:21:48Z</time>
      </trkpt>
      <trkpt lat="50.653633000329137" lon="6.264472994953394">
        <ele>566.56932900000004</ele>
        <time>2016-03-24T14:19:21Z</time>
      </trkpt>
      <trkpt lat="50.653586983680725" lon="6.264494033530355">
        <ele>566.57861300000002</ele>
        <time>2016-03-24T14:19:17Z</time>
      </trkpt>
      <trkpt lat="50.653569968417287" lon="6.264422032982111">
        <ele>566.58805600000005</ele>
        <time>2016-03-24T14:19:14Z</time>
      </trkpt>
      <trkpt lat="50.653120027855039" lon="6.261964961886406">
        <ele>566.866579</ele>
        <time>2016-03-24T14:17:44Z</time>
      </trkpt>
      <trkpt lat="50.653076022863388" lon="6.26190603710711">
        <ele>566.388645</ele>
        <time>2016-03-24T14:17:41Z</time>
      </trkpt>
      <trkpt lat="50.653064958751202" lon="6.261819032952189">
        <ele>565.92317800000001</ele>
        <time>2016-03-24T14:17:22Z</time>
      </trkpt>
      <trkpt lat="50.653064958751202" lon="6.26173596829176">
        <ele>565.48768600000005</ele>
        <time>2016-03-24T14:17:16Z</time>
      </trkpt>
      <trkpt lat="50.65293001011014" lon="6.261249985545874">
        <ele>562.70369300000004</ele>
        <time>2016-03-24T14:16:23Z</time>
      </trkpt>
      <trkpt lat="50.652159964665771" lon="6.257751965895295">
        <ele>543.33982700000001</ele>
        <time>2016-03-24T14:11:08Z</time>
      </trkpt>
      <trkpt lat="50.652144961059093" lon="6.257649036124349">
        <ele>543.406114</ele>
        <time>2016-03-24T14:11:05Z</time>
      </trkpt>
      <trkpt lat="50.652023004367948" lon="6.257221978157759">
        <ele>543.718526</ele>
        <time>2016-03-24T14:10:15Z</time>
      </trkpt>
      <trkpt lat="50.651970030739903" lon="6.257218960672617">
        <ele>543.77099099999998</ele>
        <time>2016-03-24T14:10:11Z</time>
      </trkpt>
      <trkpt lat="50.651919990777969" lon="6.257249973714352">
        <ele>543.82414000000006</ele>
        <time>2016-03-24T14:10:07Z</time>
      </trkpt>
      <trkpt lat="50.651870034635067" lon="6.257303031161428">
        <ele>543.88373799999999</ele>
        <time>2016-03-24T14:10:03Z</time>
      </trkpt>
      <trkpt lat="50.651836004108191" lon="6.257356004789472">
        <ele>543.93102899999997</ele>
        <time>2016-03-24T14:10:00Z</time>
      </trkpt>
      <trkpt lat="50.651511959731579" lon="6.257622968405485">
        <ele>544.30012299999999</ele>
        <time>2016-03-24T14:09:36Z</time>
      </trkpt>
      <trkpt lat="50.651459991931915" lon="6.257634032517672">
        <ele>544.35202600000002</ele>
        <time>2016-03-24T14:09:33Z</time>
      </trkpt>
      <trkpt lat="50.651416992768645" lon="6.257667979225516">
        <ele>544.39961200000005</ele>
        <time>2016-03-24T14:09:30Z</time>
      </trkpt>
      <trkpt lat="50.651374999433756" lon="6.257701003924012">
        <ele>544.44603199999995</ele>
        <time>2016-03-24T14:09:27Z</time>
      </trkpt>
      <trkpt lat="50.651329988613725" lon="6.257748026400805">
        <ele>544.49942599999997</ele>
        <time>2016-03-24T14:09:23Z</time>
      </trkpt>
      <trkpt lat="50.651282966136932" lon="6.257793037220836">
        <ele>544.55381999999997</ele>
        <time>2016-03-24T14:09:19Z</time>
      </trkpt>
      <trkpt lat="50.651239966973662" lon="6.257828995585442">
        <ele>544.60198100000002</ele>
        <time>2016-03-24T14:09:16Z</time>
      </trkpt>
      <trkpt lat="50.651195961982012" lon="6.257888004183769">
        <ele>544.65911500000004</ele>
        <time>2016-03-24T14:09:13Z</time>
      </trkpt>
      <trkpt lat="50.651150029152632" lon="6.257937038317323">
        <ele>544.71402799999998</ele>
        <time>2016-03-24T14:09:10Z</time>
      </trkpt>
      <trkpt lat="50.651005022227764" lon="6.257842993363738">
        <ele>544.76181199999996</ele>
        <time>2016-03-24T14:08:18Z</time>
      </trkpt>
      <trkpt lat="50.650993036106229" lon="6.257765963673592">
        <ele>544.47430499999996</ele>
        <time>2016-03-24T14:08:13Z</time>
      </trkpt>
      <trkpt lat="50.650969985872507" lon="6.257706033065915">
        <ele>544.22007900000006</ele>
        <time>2016-03-24T14:08:10Z</time>
      </trkpt>
      <trkpt lat="50.650660023093224" lon="6.256743958219886">
        <ele>540.14875099999995</ele>
        <time>2016-03-24T14:07:36Z</time>
      </trkpt>
      <trkpt lat="50.650642002001405" lon="6.256656032055616">
        <ele>539.81347400000004</ele>
        <time>2016-03-24T14:07:34Z</time>
      </trkpt>
      <trkpt lat="50.650622975081205" lon="6.256567016243935">
        <ele>539.47296300000005</ele>
        <time>2016-03-24T14:07:32Z</time>
      </trkpt>
      <trkpt lat="50.650600008666515" lon="6.256490992382169">
        <ele>539.16760899999997</ele>
        <time>2016-03-24T14:07:30Z</time>
      </trkpt>
      <trkpt lat="50.650579975917935" lon="6.25640700571239">
        <ele>538.84226200000001</ele>
        <time>2016-03-24T14:07:28Z</time>
      </trkpt>
      <trkpt lat="50.650560026988387" lon="6.256323019042611">
        <ele>538.51691500000004</ele>
        <time>2016-03-24T14:07:26Z</time>
      </trkpt>
      <trkpt lat="50.650543011724949" lon="6.256238026544452">
        <ele>538.19373800000005</ele>
        <time>2016-03-24T14:07:24Z</time>
      </trkpt>
      <trkpt lat="50.650528008118272" lon="6.256142975762487">
        <ele>537.838752</ele>
        <time>2016-03-24T14:07:22Z</time>
      </trkpt>
      <trkpt lat="50.650500012561679" lon="6.256051026284695">
        <ele>537.46872299999995</ele>
        <time>2016-03-24T14:07:20Z</time>
      </trkpt>
      <trkpt lat="50.650486014783382" lon="6.255973996594548">
        <ele>537.178271</ele>
        <time>2016-03-24T14:07:18Z</time>
      </trkpt>
      <trkpt lat="50.650466987863183" lon="6.255899984389544">
        <ele>536.88878399999999</ele>
        <time>2016-03-24T14:07:16Z</time>
      </trkpt>
      <trkpt lat="50.650439998134971" lon="6.255804011598229">
        <ele>536.50798299999997</ele>
        <time>2016-03-24T14:07:14Z</time>
      </trkpt>
      <trkpt lat="50.650409990921617" lon="6.255691023543477">
        <ele>536.06377999999995</ele>
        <time>2016-03-24T14:07:12Z</time>
      </trkpt>
      <trkpt lat="50.650393981486559" lon="6.255621034651995">
        <ele>535.79397300000005</ele>
        <time>2016-03-24T14:07:11Z</time>
      </trkpt>
      <trkpt lat="50.650375038385391" lon="6.255545010790229">
        <ele>535.49775099999999</ele>
        <time>2016-03-24T14:07:10Z</time>
      </trkpt>
      <trkpt lat="50.650345031172037" lon="6.255441997200251">
        <ele>535.08675500000004</ele>
        <time>2016-03-24T14:07:08Z</time>
      </trkpt>
      <trkpt lat="50.65030999481678" lon="6.25533202663064">
        <ele>534.64049299999999</ele>
        <time>2016-03-24T14:07:06Z</time>
      </trkpt>
      <trkpt lat="50.650275964289904" lon="6.255247034132481">
        <ele>534.58410300000003</ele>
        <time>2016-03-24T14:07:04Z</time>
      </trkpt>
      <trkpt lat="50.650246040895581" lon="6.255174027755857">
        <ele>534.60228600000005</ele>
        <time>2016-03-24T14:07:02Z</time>
      </trkpt>
      <trkpt lat="50.650219973176718" lon="6.255100015550852">
        <ele>534.61996999999997</ele>
        <time>2016-03-24T14:07:00Z</time>
      </trkpt>
      <trkpt lat="50.650196000933647" lon="6.255001025274396">
        <ele>534.64212499999996</ele>
        <time>2016-03-24T14:06:58Z</time>
      </trkpt>
      <trkpt lat="50.650170017033815" lon="6.254888037219644">
        <ele>534.66725199999996</ele>
        <time>2016-03-24T14:06:56Z</time>
      </trkpt>
      <trkpt lat="50.650143027305603" lon="6.254777982831001">
        <ele>534.69190700000001</ele>
        <time>2016-03-24T14:06:54Z</time>
      </trkpt>
      <trkpt lat="50.650116037577391" lon="6.254674969241023">
        <ele>534.71520399999997</ele>
        <time>2016-03-24T14:06:52Z</time>
      </trkpt>
      <trkpt lat="50.650089969858527" lon="6.254572039470077">
        <ele>534.73837700000001</ele>
        <time>2016-03-24T14:06:50Z</time>
      </trkpt>
      <trkpt lat="50.650065997615457" lon="6.254496015608311">
        <ele>534.756124</ele>
        <time>2016-03-24T14:06:48Z</time>
      </trkpt>
      <trkpt lat="50.650043031200767" lon="6.25442803837359">
        <ele>534.77223400000003</ele>
        <time>2016-03-24T14:06:46Z</time>
      </trkpt>
      <trkpt lat="50.650019980967045" lon="6.254361988976598">
        <ele>534.78797599999996</ele>
        <time>2016-03-24T14:06:44Z</time>
      </trkpt>
      <trkpt lat="50.650000032037497" lon="6.254292000085115">
        <ele>534.80402500000002</ele>
        <time>2016-03-24T14:06:42Z</time>
      </trkpt>
      <trkpt lat="50.649974970147014" lon="6.254222011193633">
        <ele>534.82081800000003</ele>
        <time>2016-03-24T14:06:39Z</time>
      </trkpt>
      <trkpt lat="50.649952003732324" lon="6.254160990938544">
        <ele>534.83565199999998</ele>
        <time>2016-03-24T14:06:37Z</time>
      </trkpt>
      <trkpt lat="50.649919984862208" lon="6.254098964855075">
        <ele>534.85236299999997</ele>
        <time>2016-03-24T14:06:32Z</time>
      </trkpt>
      <trkpt lat="50.649886960163713" lon="6.254045991227031">
        <ele>534.86788999999999</ele>
        <time>2016-03-24T14:06:29Z</time>
      </trkpt>
      <trkpt lat="50.649849995970726" lon="6.25397901982069">
        <ele>534.88646200000005</ele>
        <time>2016-03-24T14:06:26Z</time>
      </trkpt>
      <trkpt lat="50.649806996807456" lon="6.253922022879124">
        <ele>534.90497900000003</ele>
        <time>2016-03-24T14:06:23Z</time>
      </trkpt>
      <trkpt lat="50.649765003472567" lon="6.253842981532216">
        <ele>534.92652899999996</ele>
        <time>2016-03-24T14:06:20Z</time>
      </trkpt>
      <trkpt lat="50.649745976552367" lon="6.253770980983973">
        <ele>534.94282999999996</ele>
        <time>2016-03-24T14:06:18Z</time>
      </trkpt>
      <trkpt lat="50.649714963510633" lon="6.253692023456097">
        <ele>534.96225000000004</ele>
        <time>2016-03-24T14:06:15Z</time>
      </trkpt>
      <trkpt lat="50.649689985439181" lon="6.253637038171291">
        <ele>534.97639500000002</ele>
        <time>2016-03-24T14:06:15Z</time>
      </trkpt>
      <trkpt lat="50.649654027074575" lon="6.253589009866118">
        <ele>534.99193600000001</ele>
        <time>2016-03-24T14:06:13Z</time>
      </trkpt>
      <trkpt lat="50.649604992941022" lon="6.253517009317875">
        <ele>535.01401399999997</ele>
        <time>2016-03-24T14:06:10Z</time>
      </trkpt>
      <trkpt lat="50.649582026526332" lon="6.253436962142587">
        <ele>535.032375</ele>
        <time>2016-03-24T14:06:07Z</time>
      </trkpt>
      <trkpt lat="50.649550007656217" lon="6.253354987129569">
        <ele>535.05250100000001</ele>
        <time>2016-03-24T14:06:04Z</time>
      </trkpt>
      <trkpt lat="50.649512959644198" lon="6.253289021551609">
        <ele>535.07091600000001</ele>
        <time>2016-03-24T14:06:02Z</time>
      </trkpt>
      <trkpt lat="50.649480018764734" lon="6.253221966326237">
        <ele>535.08865000000003</ele>
        <time>2016-03-24T14:06:00Z</time>
      </trkpt>
      <trkpt lat="50.649440037086606" lon="6.253163041546941">
        <ele>535.10670500000003</ele>
        <time>2016-03-24T14:05:58Z</time>
      </trkpt>
      <trkpt lat="50.649410029873252" lon="6.253108978271484">
        <ele>535.121712</ele>
        <time>2016-03-24T14:05:56Z</time>
      </trkpt>
      <trkpt lat="50.649369964376092" lon="6.253024991601706">
        <ele>535.14367100000004</ele>
        <time>2016-03-24T14:05:53Z</time>
      </trkpt>
      <trkpt lat="50.649139964953065" lon="6.252515958622098">
        <ele>534.01306099999999</ele>
        <time>2016-03-24T14:05:37Z</time>
      </trkpt>
      <trkpt lat="50.649096965789795" lon="6.252452004700899">
        <ele>533.82120799999996</ele>
        <time>2016-03-24T14:05:35Z</time>
      </trkpt>
      <trkpt lat="50.64906301908195" lon="6.252388972789049">
        <ele>533.65099199999997</ele>
        <time>2016-03-24T14:05:33Z</time>
      </trkpt>
      <trkpt lat="50.649029994383454" lon="6.252313032746315">
        <ele>533.46147399999995</ele>
        <time>2016-03-24T14:05:31Z</time>
      </trkpt>
      <trkpt lat="50.6489999871701" lon="6.252242960035801">
        <ele>533.28763700000002</ele>
        <time>2016-03-24T14:05:29Z</time>
      </trkpt>
      <trkpt lat="50.648449966683984" lon="6.251192959025502">
        <ele>530.47409900000002</ele>
        <time>2016-03-24T14:04:51Z</time>
      </trkpt>
      <trkpt lat="50.648421971127391" lon="6.251135040074587">
        <ele>530.32411300000001</ele>
        <time>2016-03-24T14:04:48Z</time>
      </trkpt>
      <trkpt lat="50.648390036076307" lon="6.25107703730464">
        <ele>530.16592700000001</ele>
        <time>2016-03-24T14:04:45Z</time>
      </trkpt>
      <trkpt lat="50.648370003327727" lon="6.251017022877932">
        <ele>530.02645800000005</ele>
        <time>2016-03-24T14:04:42Z</time>
      </trkpt>
      <trkpt lat="50.648339996114373" lon="6.250952985137701">
        <ele>529.86270200000001</ele>
        <time>2016-03-24T14:04:39Z</time>
      </trkpt>
      <trkpt lat="50.648315018042922" lon="6.25088500790298">
        <ele>529.70097499999997</ele>
        <time>2016-03-24T14:04:36Z</time>
      </trkpt>
      <trkpt lat="50.648290039971471" lon="6.250818958505988">
        <ele>529.54279399999996</ele>
        <time>2016-03-24T14:04:33Z</time>
      </trkpt>
      <trkpt lat="50.648265983909369" lon="6.250743018463254">
        <ele>529.36810300000002</ele>
        <time>2016-03-24T14:04:30Z</time>
      </trkpt>
      <trkpt lat="50.648243017494678" lon="6.25067001208663">
        <ele>529.23065399999996</ele>
        <time>2016-03-24T14:04:27Z</time>
      </trkpt>
      <trkpt lat="50.648216027766466" lon="6.250589964911342">
        <ele>529.08988899999997</ele>
        <time>2016-03-24T14:04:23Z</time>
      </trkpt>
      <trkpt lat="50.648189960047603" lon="6.250516036525369">
        <ele>528.958484</ele>
        <time>2016-03-24T14:04:19Z</time>
      </trkpt>
      <trkpt lat="50.648179985582829" lon="6.250440012663603">
        <ele>528.83792300000005</ele>
        <time>2016-03-24T14:04:16Z</time>
      </trkpt>
      <trkpt lat="50.648166993632913" lon="6.250361977145076">
        <ele>528.71265500000004</ele>
        <time>2016-03-24T14:04:13Z</time>
      </trkpt>
      <trkpt lat="50.648149978369474" lon="6.250275978818536">
        <ele>528.57273599999996</ele>
        <time>2016-03-24T14:04:10Z</time>
      </trkpt>
      <trkpt lat="50.647957026958466" lon="6.249530995264649">
        <ele>527.29210599999999</ele>
        <time>2016-03-24T14:03:31Z</time>
      </trkpt>
      <trkpt lat="50.647694002836943" lon="6.248549977317452">
        <ele>525.60810700000002</ele>
        <time>2016-03-24T14:02:48Z</time>
      </trkpt>
      <trkpt lat="50.647659972310066" lon="6.24849901534617">
        <ele>525.49316499999998</ele>
        <time>2016-03-24T14:02:45Z</time>
      </trkpt>
      <trkpt lat="50.647619990631938" lon="6.248454004526138">
        <ele>525.37280599999997</ele>
        <time>2016-03-24T14:02:42Z</time>
      </trkpt>
      <trkpt lat="50.647568022832274" lon="6.248427014797926">
        <ele>525.23870099999999</ele>
        <time>2016-03-24T14:02:39Z</time>
      </trkpt>
      <trkpt lat="50.647502979263663" lon="6.248432965949178">
        <ele>525.079205</ele>
        <time>2016-03-24T14:02:36Z</time>
      </trkpt>
      <trkpt lat="50.647453023120761" lon="6.248459033668041">
        <ele>524.95023900000001</ele>
        <time>2016-03-24T14:02:32Z</time>
      </trkpt>
      <trkpt lat="50.647403988987207" lon="6.248474959284067">
        <ele>525.112931</ele>
        <time>2016-03-24T14:02:29Z</time>
      </trkpt>
      <trkpt lat="50.647320002317429" lon="6.248490968719125">
        <ele>525.56055200000003</ele>
        <time>2016-03-24T14:02:26Z</time>
      </trkpt>
      <trkpt lat="50.647263005375862" lon="6.248501027002931">
        <ele>525.86396400000001</ele>
        <time>2016-03-24T14:02:23Z</time>
      </trkpt>
      <trkpt lat="50.647220006212592" lon="6.248545031994581">
        <ele>526.13514099999998</ele>
        <time>2016-03-24T14:02:15Z</time>
      </trkpt>
      <trkpt lat="50.646682977676392" lon="6.248830016702414">
        <ele>529.20104300000003</ele>
        <time>2016-03-24T14:01:30Z</time>
      </trkpt>
      <trkpt lat="50.646630004048347" lon="6.248839991167188">
        <ele>529.48343299999999</ele>
        <time>2016-03-24T14:01:27Z</time>
      </trkpt>
      <trkpt lat="50.646576024591923" lon="6.248854994773865">
        <ele>529.77351199999998</ele>
        <time>2016-03-24T14:01:24Z</time>
      </trkpt>
      <trkpt lat="50.646520033478737" lon="6.248862035572529">
        <ele>530.07070199999998</ele>
        <time>2016-03-24T14:01:21Z</time>
      </trkpt>
      <trkpt lat="50.646460019052029" lon="6.248891958966851">
        <ele>530.40369799999996</ele>
        <time>2016-03-24T14:01:17Z</time>
      </trkpt>
      <trkpt lat="50.646416014060378" lon="6.24890897423029">
        <ele>530.64335900000003</ele>
        <time>2016-03-24T14:01:14Z</time>
      </trkpt>
      <trkpt lat="50.646369997411966" lon="6.248918026685715">
        <ele>530.88858200000004</ele>
        <time>2016-03-24T14:01:11Z</time>
      </trkpt>
      <trkpt lat="50.646320041269064" lon="6.248938981443644">
        <ele>531.16232100000002</ele>
        <time>2016-03-24T14:01:07Z</time>
      </trkpt>
      <trkpt lat="50.646279975771904" lon="6.248962031677365">
        <ele>531.387564</ele>
        <time>2016-03-24T14:01:03Z</time>
      </trkpt>
      <trkpt lat="50.646233037114143" lon="6.248989021405578">
        <ele>531.652196</ele>
        <time>2016-03-24T14:00:59Z</time>
      </trkpt>
      <trkpt lat="50.646179979667068" lon="6.249008970335126">
        <ele>531.94050200000004</ele>
        <time>2016-03-24T14:00:55Z</time>
      </trkpt>
      <trkpt lat="50.646136980503798" lon="6.249037971720099">
        <ele>532.18791699999997</ele>
        <time>2016-03-24T14:00:51Z</time>
      </trkpt>
      <trkpt lat="50.646090041846037" lon="6.249060016125441">
        <ele>532.44728699999996</ele>
        <time>2016-03-24T14:00:47Z</time>
      </trkpt>
      <trkpt lat="50.646037990227342" lon="6.249074013903737">
        <ele>532.72636799999998</ele>
        <time>2016-03-24T14:00:43Z</time>
      </trkpt>
      <trkpt lat="50.64599197357893" lon="6.249082982540131">
        <ele>532.97159099999999</ele>
        <time>2016-03-24T14:00:40Z</time>
      </trkpt>
      <trkpt lat="50.645940005779266" lon="6.249111983925104">
        <ele>533.26338599999997</ele>
        <time>2016-03-24T14:00:36Z</time>
      </trkpt>
      <trkpt lat="50.645889965817332" lon="6.249150959774852">
        <ele>533.558493</ele>
        <time>2016-03-24T14:00:32Z</time>
      </trkpt>
      <trkpt lat="50.64584000967443" lon="6.249189013615251">
        <ele>533.852127</ele>
        <time>2016-03-24T14:00:28Z</time>
      </trkpt>
      <trkpt lat="50.645782006904483" lon="6.249208962544799">
        <ele>534.16621899999996</ele>
        <time>2016-03-24T14:00:24Z</time>
      </trkpt>
      <trkpt lat="50.645725009962916" lon="6.249234024435282">
        <ele>534.48981300000003</ele>
        <time>2016-03-24T14:00:20Z</time>
      </trkpt>
      <trkpt lat="50.64566801302135" lon="6.249260008335114">
        <ele>534.87642600000004</ele>
        <time>2016-03-24T14:00:16Z</time>
      </trkpt>
      <trkpt lat="50.645621996372938" lon="6.249286998063326">
        <ele>535.19623100000001</ele>
        <time>2016-03-24T14:00:11Z</time>
      </trkpt>
      <trkpt lat="50.645570028573275" lon="6.24929403886199">
        <ele>535.53627400000005</ele>
        <time>2016-03-24T14:00:07Z</time>
      </trkpt>
      <trkpt lat="50.645523006096482" lon="6.249305019155145">
        <ele>535.84586200000001</ele>
        <time>2016-03-24T14:00:03Z</time>
      </trkpt>
      <trkpt lat="50.645476989448071" lon="6.249342989176512">
        <ele>536.184212</ele>
        <time>2016-03-24T13:59:59Z</time>
      </trkpt>
      <trkpt lat="50.645429966971278" lon="6.249356986954808">
        <ele>536.49585999999999</ele>
        <time>2016-03-24T13:59:55Z</time>
      </trkpt>
      <trkpt lat="50.645382022485137" lon="6.24938003718853">
        <ele>536.82272699999999</ele>
        <time>2016-03-24T13:59:51Z</time>
      </trkpt>
      <trkpt lat="50.645331982523203" lon="6.249400991946459">
        <ele>537.15986399999997</ele>
        <time>2016-03-24T13:59:47Z</time>
      </trkpt>
      <trkpt lat="50.645286971703172" lon="6.249439967796207">
        <ele>537.49442599999998</ele>
        <time>2016-03-24T13:59:43Z</time>
      </trkpt>
      <trkpt lat="50.645240033045411" lon="6.249487996101379">
        <ele>537.85926800000004</ele>
        <time>2016-03-24T13:59:39Z</time>
      </trkpt>
      <trkpt lat="50.645189993083477" lon="6.249526971951127">
        <ele>538.22271999999998</ele>
        <time>2016-03-24T13:59:36Z</time>
      </trkpt>
      <trkpt lat="50.645144982263446" lon="6.249557984992862">
        <ele>538.54267700000003</ele>
        <time>2016-03-24T13:59:34Z</time>
      </trkpt>
      <trkpt lat="50.645089996978641" lon="6.24959503300488">
        <ele>538.93227999999999</ele>
        <time>2016-03-24T13:59:31Z</time>
      </trkpt>
      <trkpt lat="50.645029982551932" lon="6.249615987762809">
        <ele>539.33272899999997</ele>
        <time>2016-03-24T13:59:28Z</time>
      </trkpt>
      <trkpt lat="50.644969968125224" lon="6.249639960005879">
        <ele>539.73604499999999</ele>
        <time>2016-03-24T13:59:25Z</time>
      </trkpt>
      <trkpt lat="50.644920011982322" lon="6.249668039381504">
        <ele>540.08175700000004</ele>
        <time>2016-03-24T13:59:22Z</time>
      </trkpt>
      <trkpt lat="50.644047036767006" lon="6.249993005767465">
        <ele>545.95768699999996</ele>
        <time>2016-03-24T13:58:12Z</time>
      </trkpt>
      <trkpt lat="50.643986016511917" lon="6.249996023252606">
        <ele>546.34894599999996</ele>
        <time>2016-03-24T13:58:08Z</time>
      </trkpt>
      <trkpt lat="50.643939999863505" lon="6.250004991889">
        <ele>546.64144299999998</ele>
        <time>2016-03-24T13:58:05Z</time>
      </trkpt>
      <trkpt lat="50.643893983215094" lon="6.250031981617212">
        <ele>546.95117000000005</ele>
        <time>2016-03-24T13:58:00Z</time>
      </trkpt>
      <trkpt lat="50.64386397600174" lon="6.250081015750766">
        <ele>547.22371999999996</ele>
        <time>2016-03-24T13:57:56Z</time>
      </trkpt>
      <trkpt lat="50.643817959353328" lon="6.25011102296412">
        <ele>547.53783599999997</ele>
        <time>2016-03-24T13:57:53Z</time>
      </trkpt>
      <trkpt lat="50.643772026523948" lon="6.250129966065288">
        <ele>547.83789999999999</ele>
        <time>2016-03-24T13:57:50Z</time>
      </trkpt>
      <trkpt lat="50.643730033189058" lon="6.250146981328726">
        <ele>548.11152200000004</ele>
        <time>2016-03-24T13:57:47Z</time>
      </trkpt>
      <trkpt lat="50.643684016540647" lon="6.250162990763784">
        <ele>548.408771</ele>
        <time>2016-03-24T13:57:44Z</time>
      </trkpt>
      <trkpt lat="50.643634982407093" lon="6.250170031562448">
        <ele>548.71923900000002</ele>
        <time>2016-03-24T13:57:41Z</time>
      </trkpt>
      <trkpt lat="50.643589971587062" lon="6.250183023512363">
        <ele>549.007926</ele>
        <time>2016-03-24T13:57:38Z</time>
      </trkpt>
      <trkpt lat="50.64354001544416" lon="6.250200960785151">
        <ele>549.33155599999998</ele>
        <time>2016-03-24T13:57:35Z</time>
      </trkpt>
      <trkpt lat="50.643493998795748" lon="6.250228034332395">
        <ele>549.64128300000004</ele>
        <time>2016-03-24T13:57:32Z</time>
      </trkpt>
      <trkpt lat="50.643435996025801" lon="6.250258041545749">
        <ele>550.02646400000003</ele>
        <time>2016-03-24T13:57:28Z</time>
      </trkpt>
      <trkpt lat="50.642929980531335" lon="6.250526010990143">
        <ele>553.42933200000004</ele>
        <time>2016-03-24T13:56:48Z</time>
      </trkpt>
      <trkpt lat="50.642886981368065" lon="6.250546965748072">
        <ele>553.71338800000001</ele>
        <time>2016-03-24T13:56:45Z</time>
      </trkpt>
      <trkpt lat="50.642839958891273" lon="6.250564986839891">
        <ele>554.01859100000001</ele>
        <time>2016-03-24T13:56:42Z</time>
      </trkpt>
      <trkpt lat="50.642796037718654" lon="6.250585019588471">
        <ele>554.307547</ele>
        <time>2016-03-24T13:56:39Z</time>
      </trkpt>
      <trkpt lat="50.642739962786436" lon="6.25060698017478">
        <ele>554.67172300000004</ele>
        <time>2016-03-24T13:56:35Z</time>
      </trkpt>
      <trkpt lat="50.642693024128675" lon="6.250630030408502">
        <ele>554.982257</ele>
        <time>2016-03-24T13:56:32Z</time>
      </trkpt>
      <trkpt lat="50.642635021358728" lon="6.250660037621856">
        <ele>555.36743799999999</ele>
        <time>2016-03-24T13:56:28Z</time>
      </trkpt>
      <trkpt lat="50.642581963911653" lon="6.250684009864926">
        <ele>555.71539800000005</ele>
        <time>2016-03-24T13:56:24Z</time>
      </trkpt>
      <trkpt lat="50.64253200776875" lon="6.250718040391803">
        <ele>556.05899699999998</ele>
        <time>2016-03-24T13:56:20Z</time>
      </trkpt>
      <trkpt lat="50.642490014433861" lon="6.250745030120015">
        <ele>556.34520499999996</ele>
        <time>2016-03-24T13:56:17Z</time>
      </trkpt>
      <trkpt lat="50.642437040805817" lon="6.250764979049563">
        <ele>556.68909099999996</ele>
        <time>2016-03-24T13:56:13Z</time>
      </trkpt>
      <trkpt lat="50.642387000843883" lon="6.250789035111666">
        <ele>557.01889700000004</ele>
        <time>2016-03-24T13:56:08Z</time>
      </trkpt>
      <trkpt lat="50.64233997836709" lon="6.250827005133033">
        <ele>557.35219099999995</ele>
        <time>2016-03-24T13:56:04Z</time>
      </trkpt>
      <trkpt lat="50.642292033880949" lon="6.250849971547723">
        <ele>557.76366900000005</ele>
        <time>2016-03-24T13:56:00Z</time>
      </trkpt>
      <trkpt lat="50.641562975943089" lon="6.251210980117321">
        <ele>565.47327700000005</ele>
        <time>2016-03-24T13:55:01Z</time>
      </trkpt>
      <trkpt lat="50.641064001247287" lon="6.251451037824154">
        <ele>570.89984600000003</ele>
        <time>2016-03-24T13:54:22Z</time>
      </trkpt>
      <trkpt lat="50.640762001276016" lon="6.251563020050526">
        <ele>574.01830399999994</ele>
        <time>2016-03-24T13:54:04Z</time>
      </trkpt>
      <trkpt lat="50.64070500433445" lon="6.251567965373397">
        <ele>574.58431800000005</ele>
        <time>2016-03-24T13:54:01Z</time>
      </trkpt>
      <trkpt lat="50.640659993514419" lon="6.251566037535667">
        <ele>575.03065800000002</ele>
        <time>2016-03-24T13:53:58Z</time>
      </trkpt>
      <trkpt lat="50.640606014057994" lon="6.251576012000442">
        <ele>575.39558899999997</ele>
        <time>2016-03-24T13:53:55Z</time>
      </trkpt>
      <trkpt lat="50.640550022944808" lon="6.251609036698937">
        <ele>575.54734800000006</ele>
        <time>2016-03-24T13:53:52Z</time>
      </trkpt>
      <trkpt lat="50.640503000468016" lon="6.251634014770389">
        <ele>575.67326300000002</ele>
        <time>2016-03-24T13:53:50Z</time>
      </trkpt>
      <trkpt lat="50.640460001304746" lon="6.251657987013459">
        <ele>575.78905499999996</ele>
        <time>2016-03-24T13:53:48Z</time>
      </trkpt>
      <trkpt lat="50.640408033505082" lon="6.251699980348349">
        <ele>575.93736699999999</ele>
        <time>2016-03-24T13:53:44Z</time>
      </trkpt>
      <trkpt lat="50.640357993543148" lon="6.251711966469884">
        <ele>576.06575399999997</ele>
        <time>2016-03-24T13:53:38Z</time>
      </trkpt>
      <trkpt lat="50.64016998745501" lon="6.251764018088579">
        <ele>576.56187</ele>
        <time>2016-03-24T13:53:24Z</time>
      </trkpt>
      <trkpt lat="50.640120031312108" lon="6.251776004210115">
        <ele>576.69025699999997</ele>
        <time>2016-03-24T13:53:19Z</time>
      </trkpt>
      <trkpt lat="50.640076026320457" lon="6.25180802308023">
        <ele>576.81326000000001</ele>
        <time>2016-03-24T13:53:15Z</time>
      </trkpt>
      <trkpt lat="50.640025986358523" lon="6.251853033900261">
        <ele>576.95940499999995</ele>
        <time>2016-03-24T13:53:11Z</time>
      </trkpt>
      <trkpt lat="50.639983993023634" lon="6.251885974779725">
        <ele>577.07852500000001</ele>
        <time>2016-03-24T13:53:08Z</time>
      </trkpt>
      <trkpt lat="50.639941999688745" lon="6.251925034448504">
        <ele>577.20225600000003</ele>
        <time>2016-03-24T13:53:05Z</time>
      </trkpt>
      <trkpt lat="50.639892965555191" lon="6.251967027783394">
        <ele>577.34383300000002</ele>
        <time>2016-03-24T13:53:02Z</time>
      </trkpt>
      <trkpt lat="50.639847032725811" lon="6.251987982541323">
        <ele>577.46540000000005</ele>
        <time>2016-03-24T13:52:59Z</time>
      </trkpt>
      <trkpt lat="50.639796992763877" lon="6.252010026946664">
        <ele>577.597174</ele>
        <time>2016-03-24T13:52:56Z</time>
      </trkpt>
      <trkpt lat="50.639754999428988" lon="6.252037016674876">
        <ele>577.712311</ele>
        <time>2016-03-24T13:52:53Z</time>
      </trkpt>
      <trkpt lat="50.639700014144182" lon="6.252021007239819">
        <ele>577.854285</ele>
        <time>2016-03-24T13:52:50Z</time>
      </trkpt>
      <trkpt lat="50.639656009152532" lon="6.252001980319619">
        <ele>577.97009200000002</ele>
        <time>2016-03-24T13:52:45Z</time>
      </trkpt>
      <trkpt lat="50.639603035524487" lon="6.251997034996748">
        <ele>578.104874</ele>
        <time>2016-03-24T13:52:42Z</time>
      </trkpt>
      <trkpt lat="50.639560036361217" lon="6.251958981156349">
        <ele>578.23000400000001</ele>
        <time>2016-03-24T13:52:39Z</time>
      </trkpt>
      <trkpt lat="50.639522988349199" lon="6.251910030841827">
        <ele>578.35266100000001</ele>
        <time>2016-03-24T13:52:35Z</time>
      </trkpt>
      <trkpt lat="50.639519970864058" lon="6.251838030293584">
        <ele>578.46882500000004</ele>
        <time>2016-03-24T13:52:32Z</time>
      </trkpt>
      <trkpt lat="50.639489963650703" lon="6.251782961189747">
        <ele>578.58561499999996</ele>
        <time>2016-03-24T13:52:29Z</time>
      </trkpt>
      <trkpt lat="50.63945802859962" lon="6.251713978126645">
        <ele>578.72323200000005</ele>
        <time>2016-03-24T13:52:26Z</time>
      </trkpt>
      <trkpt lat="50.639419974759221" lon="6.251664021983743">
        <ele>578.84886900000004</ele>
        <time>2016-03-24T13:52:23Z</time>
      </trkpt>
      <trkpt lat="50.639379993081093" lon="6.251595038920641">
        <ele>578.999369</ele>
        <time>2016-03-24T13:52:19Z</time>
      </trkpt>
      <trkpt lat="50.639340011402965" lon="6.251537958160043">
        <ele>579.13623099999995</ele>
        <time>2016-03-24T13:52:15Z</time>
      </trkpt>
      <trkpt lat="50.639300029724836" lon="6.251489007845521">
        <ele>579.264813</ele>
        <time>2016-03-24T13:52:12Z</time>
      </trkpt>
      <trkpt lat="50.639270022511482" lon="6.251436034217477">
        <ele>579.37918200000001</ele>
        <time>2016-03-24T13:52:09Z</time>
      </trkpt>
      <trkpt lat="50.639235991984606" lon="6.251374008134008">
        <ele>579.51113799999996</ele>
        <time>2016-03-24T13:52:05Z</time>
      </trkpt>
      <trkpt lat="50.639201961457729" lon="6.251307958737016">
        <ele>579.64802999999995</ele>
        <time>2016-03-24T13:52:01Z</time>
      </trkpt>
      <trkpt lat="50.639163991436362" lon="6.251241993159056">
        <ele>579.79154000000005</ele>
        <time>2016-03-24T13:51:57Z</time>
      </trkpt>
      <trkpt lat="50.639140019193292" lon="6.251179967075586">
        <ele>579.90355799999998</ele>
        <time>2016-03-24T13:51:53Z</time>
      </trkpt>
      <trkpt lat="50.639129960909486" lon="6.251109978184104">
        <ele>579.93732999999997</ele>
        <time>2016-03-24T13:51:50Z</time>
      </trkpt>
      <trkpt lat="50.639100037515163" lon="6.251039989292622">
        <ele>579.97709399999997</ele>
        <time>2016-03-24T13:51:46Z</time>
      </trkpt>
      <trkpt lat="50.639070030301809" lon="6.250970000401139">
        <ele>580.01685699999996</ele>
        <time>2016-03-24T13:51:43Z</time>
      </trkpt>
      <trkpt lat="50.638484973460436" lon="6.249964004382491">
        <ele>580.68549199999995</ele>
        <time>2016-03-24T13:50:43Z</time>
      </trkpt>
      <trkpt lat="50.638442980125546" lon="6.249929973855615">
        <ele>580.72052900000006</ele>
        <time>2016-03-24T13:50:40Z</time>
      </trkpt>
      <trkpt lat="50.63832001760602" lon="6.249812040477991">
        <ele>580.92173000000003</ele>
        <time>2016-03-24T13:48:20Z</time>
      </trkpt>
      <trkpt lat="50.638294033706188" lon="6.249737022444606">
        <ele>580.96195899999998</ele>
        <time>2016-03-24T13:48:16Z</time>
      </trkpt>
      <trkpt lat="50.638264026492834" lon="6.249679019674659">
        <ele>580.99718600000006</ele>
        <time>2016-03-24T13:48:13Z</time>
      </trkpt>
      <trkpt lat="50.638218009844422" lon="6.249630991369486">
        <ele>581.03812300000004</ele>
        <time>2016-03-24T13:48:10Z</time>
      </trkpt>
      <trkpt lat="50.638183979317546" lon="6.249588998034596">
        <ele>581.07017699999994</ele>
        <time>2016-03-24T13:48:07Z</time>
      </trkpt>
      <trkpt lat="50.638134023174644" lon="6.24953200109303">
        <ele>581.11596599999996</ele>
        <time>2016-03-24T13:48:03Z</time>
      </trkpt>
      <trkpt lat="50.638099992647767" lon="6.249458994716406">
        <ele>581.15859499999999</ele>
        <time>2016-03-24T13:47:58Z</time>
      </trkpt>
      <trkpt lat="50.638077026233077" lon="6.249377019703388">
        <ele>581.20079599999997</ele>
        <time>2016-03-24T13:47:54Z</time>
      </trkpt>
      <trkpt lat="50.638039978221059" lon="6.249323040246964">
        <ele>581.21589300000005</ele>
        <time>2016-03-24T13:47:51Z</time>
      </trkpt>
      <trkpt lat="50.638009971007705" lon="6.249271994456649">
        <ele>580.85501899999997</ele>
        <time>2016-03-24T13:47:48Z</time>
      </trkpt>
      <trkpt lat="50.637979963794351" lon="6.249196976423264">
        <ele>580.394994</ele>
        <time>2016-03-24T13:47:26Z</time>
      </trkpt>
      <trkpt lat="50.637950040400028" lon="6.249134028330445">
        <ele>579.98627599999998</ele>
        <time>2016-03-24T13:47:23Z</time>
      </trkpt>
      <trkpt lat="50.637920033186674" lon="6.249076025560498">
        <ele>579.59798899999998</ele>
        <time>2016-03-24T13:47:20Z</time>
      </trkpt>
      <trkpt lat="50.63789002597332" lon="6.249008970335126">
        <ele>579.17249300000003</ele>
        <time>2016-03-24T13:47:17Z</time>
      </trkpt>
      <trkpt lat="50.637863036245108" lon="6.248929006978869">
        <ele>578.70234400000004</ele>
        <time>2016-03-24T13:47:13Z</time>
      </trkpt>
      <trkpt lat="50.637253001332283" lon="6.247842963784933">
        <ele>571.02243699999997</ele>
        <time>2016-03-24T13:45:51Z</time>
      </trkpt>
      <trkpt lat="50.637226011604071" lon="6.247770041227341">
        <ele>570.58401100000003</ele>
        <time>2016-03-24T13:45:48Z</time>
      </trkpt>
      <trkpt lat="50.637200027704239" lon="6.247711032629013">
        <ele>570.21127799999999</ele>
        <time>2016-03-24T13:45:44Z</time>
      </trkpt>
      <trkpt lat="50.637164991348982" lon="6.247656969353557">
        <ele>569.81070499999998</ele>
        <time>2016-03-24T13:45:40Z</time>
      </trkpt>
      <trkpt lat="50.637122998014092" lon="6.24759997241199">
        <ele>569.35739699999999</ele>
        <time>2016-03-24T13:45:37Z</time>
      </trkpt>
      <trkpt lat="50.637089973315597" lon="6.247524032369256">
        <ele>568.879548</ele>
        <time>2016-03-24T13:45:34Z</time>
      </trkpt>
      <trkpt lat="50.637061977759004" lon="6.247459994629026">
        <ele>568.47617400000001</ele>
        <time>2016-03-24T13:45:31Z</time>
      </trkpt>
      <trkpt lat="50.637043034657836" lon="6.247498970478773">
        <ele>564.62503900000002</ele>
        <time>2016-03-24T13:44:36Z</time>
      </trkpt>
      <trkpt lat="50.637100031599402" lon="6.247472986578941">
        <ele>564.29689299999995</ele>
        <time>2016-03-24T13:44:29Z</time>
      </trkpt>
      <trkpt lat="50.637122998014092" lon="6.247396962717176">
        <ele>564.00153899999998</ele>
        <time>2016-03-24T13:44:27Z</time>
      </trkpt>
      <trkpt lat="50.637154011055827" lon="6.247308030724526">
        <ele>563.64540299999999</ele>
        <time>2016-03-24T13:44:24Z</time>
      </trkpt>
      <trkpt lat="50.637179994955659" lon="6.247236030176282">
        <ele>563.35480600000005</ele>
        <time>2016-03-24T13:44:21Z</time>
      </trkpt>
      <trkpt lat="50.637196004390717" lon="6.2471660412848">
        <ele>563.09383000000003</ele>
        <time>2016-03-24T13:44:18Z</time>
      </trkpt>
      <trkpt lat="50.637210002169013" lon="6.24708398245275">
        <ele>562.79598499999997</ele>
        <time>2016-03-24T13:44:15Z</time>
      </trkpt>
      <trkpt lat="50.637221988290548" lon="6.246994966641069">
        <ele>562.47685100000001</ele>
        <time>2016-03-24T13:44:12Z</time>
      </trkpt>
      <trkpt lat="50.637233974412084" lon="6.246923971921206">
        <ele>562.21913500000005</ele>
        <time>2016-03-24T13:44:10Z</time>
      </trkpt>
      <trkpt lat="50.637249983847141" lon="6.246847026050091">
        <ele>561.93494099999998</ele>
        <time>2016-03-24T13:44:08Z</time>
      </trkpt>
      <trkpt lat="50.63726800493896" lon="6.246764967218041">
        <ele>561.63059499999997</ele>
        <time>2016-03-24T13:44:06Z</time>
      </trkpt>
      <trkpt lat="50.637287031859159" lon="6.246676035225391">
        <ele>561.30122800000004</ele>
        <time>2016-03-24T13:44:04Z</time>
      </trkpt>
      <trkpt lat="50.637314021587372" lon="6.246591964736581">
        <ele>560.97093099999995</ele>
        <time>2016-03-24T13:44:02Z</time>
      </trkpt>
      <trkpt lat="50.637356014922261" lon="6.246512001380324">
        <ele>560.60667899999999</ele>
        <time>2016-03-24T13:44:00Z</time>
      </trkpt>
      <trkpt lat="50.637379987165332" lon="6.246441006660461">
        <ele>560.32449299999996</ele>
        <time>2016-03-24T13:43:58Z</time>
      </trkpt>
      <trkpt lat="50.637393984943628" lon="6.246368000283837">
        <ele>560.05700400000001</ele>
        <time>2016-03-24T13:43:56Z</time>
      </trkpt>
      <trkpt lat="50.637409994378686" lon="6.24628996476531">
        <ele>559.76947600000005</ele>
        <time>2016-03-24T13:43:54Z</time>
      </trkpt>
      <trkpt lat="50.637909974902868" lon="6.243701968342066">
        <ele>568.00246800000002</ele>
        <time>2016-03-24T13:42:42Z</time>
      </trkpt>
      <trkpt lat="50.637930007651448" lon="6.243599038571119">
        <ele>568.67552799999999</ele>
        <time>2016-03-24T13:42:39Z</time>
      </trkpt>
      <trkpt lat="50.637954985722899" lon="6.24351697973907">
        <ele>569.244012</ele>
        <time>2016-03-24T13:42:36Z</time>
      </trkpt>
      <trkpt lat="50.637965966016054" lon="6.243443973362446">
        <ele>569.71283300000005</ele>
        <time>2016-03-24T13:42:33Z</time>
      </trkpt>
      <trkpt lat="50.637974012643099" lon="6.243356969207525">
        <ele>570.26211699999999</ele>
        <time>2016-03-24T13:42:30Z</time>
      </trkpt>
      <trkpt lat="50.637979963794351" lon="6.243278011679649">
        <ele>570.75925700000005</ele>
        <time>2016-03-24T13:42:27Z</time>
      </trkpt>
      <trkpt lat="50.637984992936254" lon="6.243192013353109">
        <ele>571.29886199999999</ele>
        <time>2016-03-24T13:42:24Z</time>
      </trkpt>
      <trkpt lat="50.637996979057789" lon="6.243096962571144">
        <ele>571.90410599999996</ele>
        <time>2016-03-24T13:42:21Z</time>
      </trkpt>
      <trkpt lat="50.638009971007705" lon="6.243006018921733">
        <ele>572.48694399999999</ele>
        <time>2016-03-24T13:42:18Z</time>
      </trkpt>
      <trkpt lat="50.638011982664466" lon="6.242921026423574">
        <ele>573.01841200000001</ele>
        <time>2016-03-24T13:42:15Z</time>
      </trkpt>
      <trkpt lat="50.638019610196352" lon="6.240575099363923">
        <ele>584.96674299999995</ele>
        <time>2016-03-24T13:41:26Z</time>
      </trkpt>
      <trkpt lat="50.635300017893314" lon="6.236437037587166">
        <ele>596.36069599999996</ele>
        <time>2016-03-24T13:36:22Z</time>
      </trkpt>
      <trkpt lat="50.633857995271683" lon="6.234545996412635">
        <ele>594.08619399999998</ele>
        <time>2016-03-24T13:34:12Z</time>
      </trkpt>
      <trkpt lat="50.633820025250316" lon="6.234484976157546">
        <ele>594.294938</ele>
        <time>2016-03-24T13:34:09Z</time>
      </trkpt>
      <trkpt lat="50.631942981854081" lon="6.232459992170334">
        <ele>594.97459700000002</ele>
        <time>2016-03-24T13:31:21Z</time>
      </trkpt>
      <trkpt lat="50.631899982690811" lon="6.232411041855812">
        <ele>594.78864099999998</ele>
        <time>2016-03-24T13:31:16Z</time>
      </trkpt>
      <trkpt lat="50.631863018497825" lon="6.232371982187033">
        <ele>594.63264800000002</ele>
        <time>2016-03-24T13:31:12Z</time>
      </trkpt>
      <trkpt lat="50.631809961050749" lon="6.232333006337285">
        <ele>594.42765299999996</ele>
        <time>2016-03-24T13:31:10Z</time>
      </trkpt>
      <trkpt lat="50.631733015179634" lon="6.232292018830776">
        <ele>594.14280299999996</ele>
        <time>2016-03-24T13:31:08Z</time>
      </trkpt>
      <trkpt lat="50.631669983267784" lon="6.232243990525603">
        <ele>593.89756399999999</ele>
        <time>2016-03-24T13:31:05Z</time>
      </trkpt>
      <trkpt lat="50.631622038781643" lon="6.232213983312249">
        <ele>593.71659299999999</ele>
        <time>2016-03-24T13:31:01Z</time>
      </trkpt>
      <trkpt lat="50.631579961627722" lon="6.232181964442134">
        <ele>593.55309999999997</ele>
        <time>2016-03-24T13:30:58Z</time>
      </trkpt>
      <trkpt lat="50.631541991606355" lon="6.232127984985709">
        <ele>593.37379599999997</ele>
        <time>2016-03-24T13:30:55Z</time>
      </trkpt>
      <trkpt lat="50.630657030269504" lon="6.231120983138681">
        <ele>585.86561200000006</ele>
        <time>2016-03-24T13:27:52Z</time>
      </trkpt>
      <trkpt lat="50.629943981766701" lon="6.230340963229537">
        <ele>582.07698900000003</ele>
        <time>2016-03-24T13:26:49Z</time>
      </trkpt>
      <trkpt lat="50.629897965118289" lon="6.230285977944732">
        <ele>581.93851800000004</ele>
        <time>2016-03-24T13:26:45Z</time>
      </trkpt>
      <trkpt lat="50.629868041723967" lon="6.230231998488307">
        <ele>581.82930799999997</ele>
        <time>2016-03-24T13:26:42Z</time>
      </trkpt>
      <trkpt lat="50.62983300536871" lon="6.230168966576457">
        <ele>581.70189700000003</ele>
        <time>2016-03-24T13:26:39Z</time>
      </trkpt>
      <trkpt lat="50.629795035347342" lon="6.230109035968781">
        <ele>581.572903</ele>
        <time>2016-03-24T13:26:36Z</time>
      </trkpt>
      <trkpt lat="50.629759998992085" lon="6.230050027370453">
        <ele>581.45000400000004</ele>
        <time>2016-03-24T13:26:33Z</time>
      </trkpt>
      <trkpt lat="50.629725968465209" lon="6.229994036257267">
        <ele>581.33206900000005</ele>
        <time>2016-03-24T13:26:30Z</time>
      </trkpt>
      <trkpt lat="50.629629995673895" lon="6.229875013232231">
        <ele>581.03916400000003</ele>
        <time>2016-03-24T13:23:06Z</time>
      </trkpt>
      <trkpt lat="50.629677018150687" lon="6.229877024888992">
        <ele>580.92639699999995</ele>
        <time>2016-03-24T13:22:23Z</time>
      </trkpt>
      <trkpt lat="50.629629995673895" lon="6.229879958555102">
        <ele>580.81357800000001</ele>
        <time>2016-03-24T13:22:17Z</time>
      </trkpt>
      <trkpt lat="50.629604011774063" lon="6.229813992977142">
        <ele>580.69537700000001</ele>
        <time>2016-03-24T13:22:12Z</time>
      </trkpt>
      <trkpt lat="50.629580039530993" lon="6.229731012135744">
        <ele>580.55659900000001</ele>
        <time>2016-03-24T13:22:09Z</time>
      </trkpt>
      <trkpt lat="50.629578027874231" lon="6.229649959132075">
        <ele>580.43327199999999</ele>
        <time>2016-03-24T13:22:02Z</time>
      </trkpt>
      <trkpt lat="50.629574004560709" lon="6.229567984119058">
        <ele>580.30814799999996</ele>
        <time>2016-03-24T13:21:56Z</time>
      </trkpt>
      <trkpt lat="50.629455987364054" lon="6.228769021108747">
        <ele>579.03704600000003</ele>
        <time>2016-03-24T13:21:18Z</time>
      </trkpt>
      <trkpt lat="50.629436038434505" lon="6.228700960054994">
        <ele>578.92300999999998</ele>
        <time>2016-03-24T13:21:14Z</time>
      </trkpt>
      <trkpt lat="50.629424974322319" lon="6.228617979213595">
        <ele>578.79400699999997</ele>
        <time>2016-03-24T13:21:10Z</time>
      </trkpt>
      <trkpt lat="50.629413994029164" lon="6.228546984493733">
        <ele>578.68281100000002</ele>
        <time>2016-03-24T13:21:06Z</time>
      </trkpt>
      <trkpt lat="50.629226993769407" lon="6.22673699632287">
        <ele>574.06042500000001</ele>
        <time>2016-03-24T13:12:20Z</time>
      </trkpt>
      <trkpt lat="50.629234034568071" lon="6.226661978289485">
        <ele>573.87293399999999</ele>
        <time>2016-03-24T13:12:15Z</time>
      </trkpt>
      <trkpt lat="50.629222970455885" lon="6.226591989398003">
        <ele>573.69457299999999</ele>
        <time>2016-03-24T13:12:08Z</time>
      </trkpt>
      <trkpt lat="50.629200004041195" lon="6.22652099467814">
        <ele>573.49739999999997</ele>
        <time>2016-03-24T13:12:02Z</time>
      </trkpt>
      <trkpt lat="50.629173014312983" lon="6.22645796276629">
        <ele>573.30935599999998</ele>
        <time>2016-03-24T13:11:58Z</time>
      </trkpt>
      <trkpt lat="50.629134960472584" lon="6.226408006623387">
        <ele>573.11636999999996</ele>
        <time>2016-03-24T13:11:53Z</time>
      </trkpt>
      <trkpt lat="50.629105037078261" lon="6.226473972201347">
        <ele>572.91555300000005</ele>
        <time>2016-03-24T13:11:49Z</time>
      </trkpt>
      <trkpt lat="50.629077963531017" lon="6.226548990234733">
        <ele>572.702269</ele>
        <time>2016-03-24T13:11:45Z</time>
      </trkpt>
      <trkpt lat="50.62903999350965" lon="6.226615961641073">
        <ele>572.47998399999994</ele>
        <time>2016-03-24T13:11:41Z</time>
      </trkpt>
      <trkpt lat="50.628006001934409" lon="6.229605032131076">
        <ele>581.03896599999996</ele>
        <time>2016-03-24T13:08:46Z</time>
      </trkpt>
      <trkpt lat="50.627980018034577" lon="6.229672003537417">
        <ele>581.84550200000001</ele>
        <time>2016-03-24T13:08:41Z</time>
      </trkpt>
      <trkpt lat="50.62796400859952" lon="6.229747021570802">
        <ele>582.65804900000001</ele>
        <time>2016-03-24T13:08:35Z</time>
      </trkpt>
      <trkpt lat="50.627940036356449" lon="6.229822961613536">
        <ele>583.52983400000005</ele>
        <time>2016-03-24T13:08:29Z</time>
      </trkpt>
      <trkpt lat="50.627926038578153" lon="6.229898985475302">
        <ele>584.34250399999996</ele>
        <time>2016-03-24T13:08:23Z</time>
      </trkpt>
      <trkpt lat="50.627907011657953" lon="6.229964029043913">
        <ele>585.07743300000004</ele>
        <time>2016-03-24T13:08:18Z</time>
      </trkpt>
      <trkpt lat="50.627899970859289" lon="6.230035023763776">
        <ele>585.81527300000005</ele>
        <time>2016-03-24T13:08:13Z</time>
      </trkpt>
      <trkpt lat="50.627875998616219" lon="6.230112975463271">
        <ele>586.70549200000005</ele>
        <time>2016-03-24T13:08:08Z</time>
      </trkpt>
      <trkpt lat="50.627856971696019" lon="6.230178019031882">
        <ele>587.44042100000001</ele>
        <time>2016-03-24T13:08:04Z</time>
      </trkpt>
      <trkpt lat="50.627834005281329" lon="6.230248007923365">
        <ele>588.24994100000004</ele>
        <time>2016-03-24T13:08:00Z</time>
      </trkpt>
      <trkpt lat="50.627810033038259" lon="6.230328977108002">
        <ele>589.16797699999995</ele>
        <time>2016-03-24T13:07:56Z</time>
      </trkpt>
      <trkpt lat="50.627790000289679" lon="6.230405000969768">
        <ele>590.01289999999995</ele>
        <time>2016-03-24T13:07:52Z</time>
      </trkpt>
      <trkpt lat="50.627759993076324" lon="6.230472978204489">
        <ele>590.86345200000005</ele>
        <time>2016-03-24T13:07:48Z</time>
      </trkpt>
      <trkpt lat="50.627735015004873" lon="6.230532992631197">
        <ele>591.60060699999997</ele>
        <time>2016-03-24T13:07:44Z</time>
      </trkpt>
      <trkpt lat="50.627705007791519" lon="6.230593007057905">
        <ele>592.38512000000003</ele>
        <time>2016-03-24T13:07:39Z</time>
      </trkpt>
      <trkpt lat="50.627669971436262" lon="6.230653021484613">
        <ele>593.22215400000005</ele>
        <time>2016-03-24T13:07:30Z</time>
      </trkpt>
      <trkpt lat="50.627636024728417" lon="6.230714963749051">
        <ele>594.06374500000004</ele>
        <time>2016-03-24T13:07:21Z</time>
      </trkpt>
      <trkpt lat="50.62762001529336" lon="6.230784030631185">
        <ele>594.81815300000005</ele>
        <time>2016-03-24T13:07:17Z</time>
      </trkpt>
      <trkpt lat="50.62759998254478" lon="6.230855025351048">
        <ele>595.61589500000002</ele>
        <time>2016-03-24T13:07:13Z</time>
      </trkpt>
      <trkpt lat="50.627030013129115" lon="6.232554959133267">
        <ele>609.74707799999999</ele>
        <time>2016-03-24T13:05:28Z</time>
      </trkpt>
      <trkpt lat="50.627000005915761" lon="6.232609022408724">
        <ele>609.93087400000002</ele>
        <time>2016-03-24T13:05:23Z</time>
      </trkpt>
      <trkpt lat="50.62697603367269" lon="6.232685968279839">
        <ele>610.15054599999996</ele>
        <time>2016-03-24T13:05:19Z</time>
      </trkpt>
      <trkpt lat="50.626960024237633" lon="6.232761992141604">
        <ele>610.35558100000003</ele>
        <time>2016-03-24T13:05:16Z</time>
      </trkpt>
      <trkpt lat="50.626939991489053" lon="6.232844972983003">
        <ele>610.58291999999994</ele>
        <time>2016-03-24T13:05:13Z</time>
      </trkpt>
      <trkpt lat="50.626925993710756" lon="6.232913034036756">
        <ele>610.76597500000003</ele>
        <time>2016-03-24T13:05:10Z</time>
      </trkpt>
      <trkpt lat="50.626906966790557" lon="6.232983022928238">
        <ele>610.96092899999996</ele>
        <time>2016-03-24T13:05:06Z</time>
      </trkpt>
      <trkpt lat="50.626876959577203" lon="6.233038008213043">
        <ele>611.146658</ele>
        <time>2016-03-24T13:05:02Z</time>
      </trkpt>
      <trkpt lat="50.626842007040977" lon="6.233104979619384">
        <ele>611.36889399999995</ele>
        <time>2016-03-24T13:04:58Z</time>
      </trkpt>
      <trkpt lat="50.626816023141146" lon="6.233188966289163">
        <ele>611.60821499999997</ele>
        <time>2016-03-24T13:04:54Z</time>
      </trkpt>
      <trkpt lat="50.626792972907424" lon="6.233259961009026">
        <ele>611.81234300000006</ele>
        <time>2016-03-24T13:04:50Z</time>
      </trkpt>
      <trkpt lat="50.626774029806256" lon="6.233346965163946">
        <ele>612.04794000000004</ele>
        <time>2016-03-24T13:04:46Z</time>
      </trkpt>
      <trkpt lat="50.62676003202796" lon="6.233430029824376">
        <ele>612.26784799999996</ele>
        <time>2016-03-24T13:04:41Z</time>
      </trkpt>
      <trkpt lat="50.626470018178225" lon="6.234416998922825">
        <ele>615.07472600000006</ele>
        <time>2016-03-24T13:03:51Z</time>
      </trkpt>
      <trkpt lat="50.626459959894419" lon="6.234490005299449">
        <ele>615.03265899999997</ele>
        <time>2016-03-24T13:03:46Z</time>
      </trkpt>
      <trkpt lat="50.626442022621632" lon="6.234568040817976">
        <ele>614.954973</ele>
        <time>2016-03-24T13:03:42Z</time>
      </trkpt>
      <trkpt lat="50.626391982659698" lon="6.234553037211299">
        <ele>614.87987799999996</ele>
        <time>2016-03-24T13:03:37Z</time>
      </trkpt>
      <trkpt lat="50.626270025968552" lon="6.234457986429334">
        <ele>614.67911400000003</ele>
        <time>2016-03-24T13:03:03Z</time>
      </trkpt>
      <trkpt lat="50.626249993219972" lon="6.234530992805958">
        <ele>614.60468900000001</ele>
        <time>2016-03-24T13:02:59Z</time>
      </trkpt>
      <trkpt lat="50.626219986006618" lon="6.234611039981246">
        <ele>614.51770699999997</ele>
        <time>2016-03-24T13:02:55Z</time>
      </trkpt>
      <trkpt lat="50.626198025420308" lon="6.234688991680741">
        <ele>614.43781100000001</ele>
        <time>2016-03-24T13:02:51Z</time>
      </trkpt>
      <trkpt lat="50.626180004328489" lon="6.234757974743843">
        <ele>614.36798199999998</ele>
        <time>2016-03-24T13:02:48Z</time>
      </trkpt>
      <trkpt lat="50.626152008771896" lon="6.234827963635325">
        <ele>614.290527</ele>
        <time>2016-03-24T13:02:45Z</time>
      </trkpt>
      <trkpt lat="50.626140022650361" lon="6.23490197584033">
        <ele>614.21903899999995</ele>
        <time>2016-03-24T13:02:41Z</time>
      </trkpt>
      <trkpt lat="50.626125019043684" lon="6.23498504050076">
        <ele>614.13826200000005</ele>
        <time>2016-03-24T13:02:36Z</time>
      </trkpt>
      <trkpt lat="50.626101968809962" lon="6.235063998028636">
        <ele>614.05690600000003</ele>
        <time>2016-03-24T13:02:32Z</time>
      </trkpt>
      <trkpt lat="50.626080008223653" lon="6.235143961384893">
        <ele>613.97529499999996</ele>
        <time>2016-03-24T13:02:28Z</time>
      </trkpt>
      <trkpt lat="50.625996021553874" lon="6.235333979129791">
        <ele>613.75254600000005</ele>
        <time>2016-03-24T13:02:16Z</time>
      </trkpt>
      <trkpt lat="50.625959979370236" lon="6.235398016870022">
        <ele>613.67248700000005</ele>
        <time>2016-03-24T13:02:10Z</time>
      </trkpt>
      <trkpt lat="50.625910023227334" lon="6.235435986891389">
        <ele>613.59059000000002</ele>
        <time>2016-03-24T13:02:05Z</time>
      </trkpt>
      <trkpt lat="50.625866018235683" lon="6.235459037125111">
        <ele>613.52219500000001</ele>
        <time>2016-03-24T13:02:01Z</time>
      </trkpt>
      <trkpt lat="50.625824024900794" lon="6.235408997163177">
        <ele>613.44454199999996</ele>
        <time>2016-03-24T13:01:56Z</time>
      </trkpt>
      <trkpt lat="50.625769961625338" lon="6.235378989949822">
        <ele>613.36006599999996</ele>
        <time>2016-03-24T13:01:52Z</time>
      </trkpt>
      <trkpt lat="50.624416032806039" lon="6.23419001698494">
        <ele>611.53934400000003</ele>
        <time>2016-03-24T12:58:47Z</time>
      </trkpt>
      <trkpt lat="50.624374039471149" lon="6.234151963144541">
        <ele>611.493112</ele>
        <time>2016-03-24T12:58:44Z</time>
      </trkpt>
      <trkpt lat="50.624331962317228" lon="6.23410502448678">
        <ele>611.443939</ele>
        <time>2016-03-24T12:58:41Z</time>
      </trkpt>
      <trkpt lat="50.624289968982339" lon="6.234069988131523">
        <ele>611.39858400000003</ele>
        <time>2016-03-24T12:58:38Z</time>
      </trkpt>
      <trkpt lat="50.624240012839437" lon="6.234025983139873">
        <ele>611.34391600000004</ele>
        <time>2016-03-24T12:58:33Z</time>
      </trkpt>
      <trkpt lat="50.624195002019405" lon="6.233992036432028">
        <ele>611.29627600000003</ele>
        <time>2016-03-24T12:58:29Z</time>
      </trkpt>
      <trkpt lat="50.624145967885852" lon="6.233967980369926">
        <ele>611.24729000000002</ele>
        <time>2016-03-24T12:58:26Z</time>
      </trkpt>
      <trkpt lat="50.624096011742949" lon="6.233929004520178">
        <ele>611.19403199999999</ele>
        <time>2016-03-24T12:58:22Z</time>
      </trkpt>
      <trkpt lat="50.62405401840806" lon="6.23389002867043">
        <ele>611.14749600000005</ele>
        <time>2016-03-24T12:58:18Z</time>
      </trkpt>
      <trkpt lat="50.624019987881184" lon="6.233849041163921">
        <ele>611.106628</ele>
        <time>2016-03-24T12:58:15Z</time>
      </trkpt>
      <trkpt lat="50.623980006203055" lon="6.233808975666761">
        <ele>611.06140500000004</ele>
        <time>2016-03-24T12:58:12Z</time>
      </trkpt>
      <trkpt lat="50.623936001211405" lon="6.233774023130536">
        <ele>611.01435400000003</ele>
        <time>2016-03-24T12:58:09Z</time>
      </trkpt>
      <trkpt lat="50.623880010098219" lon="6.233745021745563">
        <ele>610.95808099999999</ele>
        <time>2016-03-24T12:58:05Z</time>
      </trkpt>
      <trkpt lat="50.623832987621427" lon="6.233689030632377">
        <ele>610.90183500000001</ele>
        <time>2016-03-24T12:58:01Z</time>
      </trkpt>
      <trkpt lat="50.623789988458157" lon="6.233644019812346">
        <ele>610.85256100000004</ele>
        <time>2016-03-24T12:57:58Z</time>
      </trkpt>
      <trkpt lat="50.623733997344971" lon="6.233619041740894">
        <ele>610.79699700000003</ele>
        <time>2016-03-24T12:57:55Z</time>
      </trkpt>
      <trkpt lat="50.623687980696559" lon="6.233585011214018">
        <ele>610.74849300000005</ele>
        <time>2016-03-24T12:57:50Z</time>
      </trkpt>
      <trkpt lat="50.623653028160334" lon="6.233538994565606">
        <ele>610.68745799999999</ele>
        <time>2016-03-24T12:57:46Z</time>
      </trkpt>
      <trkpt lat="50.623608017340302" lon="6.233486020937562">
        <ele>610.58503399999995</ele>
        <time>2016-03-24T12:57:42Z</time>
      </trkpt>
      <trkpt lat="50.623566024005413" lon="6.233454002067447">
        <ele>610.49997699999994</ele>
        <time>2016-03-24T12:57:39Z</time>
      </trkpt>
      <trkpt lat="50.623511960729957" lon="6.233420977368951">
        <ele>610.39437599999997</ele>
        <time>2016-03-24T12:57:35Z</time>
      </trkpt>
      <trkpt lat="50.623463010415435" lon="6.23337403871119">
        <ele>610.28979100000004</ele>
        <time>2016-03-24T12:57:31Z</time>
      </trkpt>
      <trkpt lat="50.623416993767023" lon="6.233326010406017">
        <ele>610.18920400000002</ele>
        <time>2016-03-24T12:57:27Z</time>
      </trkpt>
      <trkpt lat="50.623369971290231" lon="6.233284017071128">
        <ele>610.09069299999999</ele>
        <time>2016-03-24T12:57:23Z</time>
      </trkpt>
      <trkpt lat="50.623329989612103" lon="6.233254009857774">
        <ele>610.00992499999995</ele>
        <time>2016-03-24T12:57:20Z</time>
      </trkpt>
      <trkpt lat="50.623269975185394" lon="6.233230959624052">
        <ele>609.897336</ele>
        <time>2016-03-24T12:57:17Z</time>
      </trkpt>
      <trkpt lat="50.623209960758686" lon="6.233216961845756">
        <ele>609.786744</ele>
        <time>2016-03-24T12:57:14Z</time>
      </trkpt>
      <trkpt lat="50.62315003015101" lon="6.233205981552601">
        <ele>609.67660599999999</ele>
        <time>2016-03-24T12:57:11Z</time>
      </trkpt>
      <trkpt lat="50.621589990332723" lon="6.231747027486563">
        <ele>603.60880499999996</ele>
        <time>2016-03-24T12:54:58Z</time>
      </trkpt>
      <trkpt lat="50.62154003418982" lon="6.23169899918139">
        <ele>603.24809600000003</ele>
        <time>2016-03-24T12:54:54Z</time>
      </trkpt>
      <trkpt lat="50.62149996869266" lon="6.231659017503262">
        <ele>602.95622600000002</ele>
        <time>2016-03-24T12:54:51Z</time>
      </trkpt>
      <trkpt lat="50.621444983407855" lon="6.231611995026469">
        <ele>602.57075199999997</ele>
        <time>2016-03-24T12:54:47Z</time>
      </trkpt>
      <trkpt lat="50.621402990072966" lon="6.231582993641496">
        <ele>602.28823499999999</ele>
        <time>2016-03-24T12:54:44Z</time>
      </trkpt>
      <trkpt lat="50.621350016444921" lon="6.231543011963368">
        <ele>601.92617800000005</ele>
        <time>2016-03-24T12:54:40Z</time>
      </trkpt>
      <trkpt lat="50.621325960382819" lon="6.231465982273221">
        <ele>601.590822</ele>
        <time>2016-03-24T12:54:34Z</time>
      </trkpt>
      <trkpt lat="50.621280027553439" lon="6.231418959796429">
        <ele>601.253061</ele>
        <time>2016-03-24T12:54:30Z</time>
      </trkpt>
      <trkpt lat="50.621239962056279" lon="6.231383001431823">
        <ele>600.96925999999996</ele>
        <time>2016-03-24T12:54:27Z</time>
      </trkpt>
      <trkpt lat="50.621193023398519" lon="6.231348970904946">
        <ele>600.65063299999997</ele>
        <time>2016-03-24T12:54:24Z</time>
      </trkpt>
      <trkpt lat="50.621150024235249" lon="6.231308989226818">
        <ele>600.34299499999997</ele>
        <time>2016-03-24T12:54:20Z</time>
      </trkpt>
      <trkpt lat="50.621105013415217" lon="6.231259033083916">
        <ele>600.00376800000004</ele>
        <time>2016-03-24T12:54:16Z</time>
      </trkpt>
      <trkpt lat="50.621060002595186" lon="6.231214022263885">
        <ele>599.67541400000005</ele>
        <time>2016-03-24T12:54:12Z</time>
      </trkpt>
      <trkpt lat="50.621013985946774" lon="6.231189966201782">
        <ele>599.37686799999994</ele>
        <time>2016-03-24T12:54:09Z</time>
      </trkpt>
      <trkpt lat="50.620964029803872" lon="6.231171023100615">
        <ele>599.05997400000001</ele>
        <time>2016-03-24T12:54:06Z</time>
      </trkpt>
      <trkpt lat="50.620925975963473" lon="6.2311199773103">
        <ele>598.75246300000003</ele>
        <time>2016-03-24T12:54:03Z</time>
      </trkpt>
      <trkpt lat="50.620890017598867" lon="6.231059040874243">
        <ele>598.42679699999997</ele>
        <time>2016-03-24T12:54:00Z</time>
      </trkpt>
      <trkpt lat="50.62023002654314" lon="6.230264017358422">
        <ele>593.62558100000001</ele>
        <time>2016-03-24T12:53:04Z</time>
      </trkpt>
      <trkpt lat="50.62020999379456" lon="6.230177013203502">
        <ele>593.30802400000005</ele>
        <time>2016-03-24T12:53:00Z</time>
      </trkpt>
      <trkpt lat="50.620160037651658" lon="6.23013099655509">
        <ele>592.99487499999998</ele>
        <time>2016-03-24T12:52:57Z</time>
      </trkpt>
      <trkpt lat="50.620117038488388" lon="6.230086991563439">
        <ele>592.71757300000002</ele>
        <time>2016-03-24T12:52:54Z</time>
      </trkpt>
      <trkpt lat="50.618730001151562" lon="6.228168960660696">
        <ele>582.94100400000002</ele>
        <time>2016-03-24T12:50:44Z</time>
      </trkpt>
      <trkpt lat="50.618699993938208" lon="6.228116992861033">
        <ele>582.73499800000002</ele>
        <time>2016-03-24T12:50:41Z</time>
      </trkpt>
      <trkpt lat="50.618660012260079" lon="6.22804599814117">
        <ele>582.45668999999998</ele>
        <time>2016-03-24T12:50:37Z</time>
      </trkpt>
      <trkpt lat="50.618620030581951" lon="6.227978020906448">
        <ele>582.18489499999998</ele>
        <time>2016-03-24T12:50:33Z</time>
      </trkpt>
      <trkpt lat="50.618583988398314" lon="6.22791700065136">
        <ele>581.94070799999997</ele>
        <time>2016-03-24T12:50:29Z</time>
      </trkpt>
      <trkpt lat="50.618552975356579" lon="6.227852962911129">
        <ele>581.7047</ele>
        <time>2016-03-24T12:50:25Z</time>
      </trkpt>
      <trkpt lat="50.617529964074492" lon="6.22581004165113">
        <ele>574.65914099999998</ele>
        <time>2016-03-24T12:48:23Z</time>
      </trkpt>
      <trkpt lat="50.617489982396364" lon="6.225755978375673">
        <ele>574.45859900000005</ele>
        <time>2016-03-24T12:48:19Z</time>
      </trkpt>
      <trkpt lat="50.617232993245125" lon="6.225174022838473">
        <ele>572.66891299999997</ele>
        <time>2016-03-24T12:47:48Z</time>
      </trkpt>
      <trkpt lat="50.617210026830435" lon="6.22508299537003">
        <ele>572.43226200000004</ele>
        <time>2016-03-24T12:47:45Z</time>
      </trkpt>
      <trkpt lat="50.616725971922278" lon="6.224284032359719">
        <ele>574.22732499999995</ele>
        <time>2016-03-24T12:46:58Z</time>
      </trkpt>
      <trkpt lat="50.616527991369367" lon="6.224043974652886">
        <ele>575.73669400000006</ele>
        <time>2016-03-24T12:46:43Z</time>
      </trkpt>
      <trkpt lat="50.616496978327632" lon="6.223953031003475">
        <ele>576.11442999999997</ele>
        <time>2016-03-24T12:46:37Z</time>
      </trkpt>
      <trkpt lat="50.615887027233839" lon="6.224614027887583">
        <ele>580.82600300000001</ele>
        <time>2016-03-24T12:45:43Z</time>
      </trkpt>
      <trkpt lat="50.615856014192104" lon="6.22467496432364">
        <ele>581.11182699999995</ele>
        <time>2016-03-24T12:45:39Z</time>
      </trkpt>
      <trkpt lat="50.615832963958383" lon="6.224745037034154">
        <ele>581.40012200000001</ele>
        <time>2016-03-24T12:45:36Z</time>
      </trkpt>
      <trkpt lat="50.615800023078918" lon="6.224807985126972">
        <ele>581.69889499999999</ele>
        <time>2016-03-24T12:45:33Z</time>
      </trkpt>
      <trkpt lat="50.615764986723661" lon="6.224878979846835">
        <ele>581.943579</ele>
        <time>2016-03-24T12:45:30Z</time>
      </trkpt>
      <trkpt lat="50.615737996995449" lon="6.224944023415446">
        <ele>582.09819800000002</ele>
        <time>2016-03-24T12:45:27Z</time>
      </trkpt>
      <trkpt lat="50.615649987012148" lon="6.225005965679884">
        <ele>582.42224799999997</ele>
        <time>2016-03-24T12:45:21Z</time>
      </trkpt>
      <trkpt lat="50.615603970363736" lon="6.224984005093575">
        <ele>582.57302800000002</ele>
        <time>2016-03-24T12:45:18Z</time>
      </trkpt>
      <trkpt lat="50.615046992897987" lon="6.225548023357987">
        <ele>584.70832900000005</ele>
        <time>2016-03-24T12:44:19Z</time>
      </trkpt>
      <trkpt lat="50.615020003169775" lon="6.225606026127935">
        <ele>584.85149699999999</ele>
        <time>2016-03-24T12:44:16Z</time>
      </trkpt>
      <trkpt lat="50.614983038976789" lon="6.225668974220753">
        <ele>585.02234699999997</ele>
        <time>2016-03-24T12:44:11Z</time>
      </trkpt>
      <trkpt lat="50.614955965429544" lon="6.225733011960983">
        <ele>585.17530699999998</ele>
        <time>2016-03-24T12:44:06Z</time>
      </trkpt>
      <trkpt lat="50.61488295905292" lon="6.225836025550962">
        <ele>585.48478299999999</ele>
        <time>2016-03-24T12:43:58Z</time>
      </trkpt>
      <trkpt lat="50.61483995988965" lon="6.225873995572329">
        <ele>585.63941299999999</ele>
        <time>2016-03-24T12:43:55Z</time>
      </trkpt>
      <trkpt lat="50.614783968776464" lon="6.225911965593696">
        <ele>585.83065199999999</ele>
        <time>2016-03-24T12:43:52Z</time>
      </trkpt>
      <trkpt lat="50.61472998932004" lon="6.225964017212391">
        <ele>586.02914299999998</ele>
        <time>2016-03-24T12:43:49Z</time>
      </trkpt>
      <trkpt lat="50.614684978500009" lon="6.226007016375661">
        <ele>586.194208</ele>
        <time>2016-03-24T12:43:46Z</time>
      </trkpt>
      <trkpt lat="50.614642985165119" lon="6.226064013317227">
        <ele>586.36805900000002</ele>
        <time>2016-03-24T12:43:42Z</time>
      </trkpt>
      <trkpt lat="50.614599986001849" lon="6.22611497528851">
        <ele>586.53686000000005</ele>
        <time>2016-03-24T12:43:38Z</time>
      </trkpt>
      <trkpt lat="50.614566961303353" lon="6.226161997765303">
        <ele>586.67637300000001</ele>
        <time>2016-03-24T12:43:33Z</time>
      </trkpt>
      <trkpt lat="50.614539971575141" lon="6.226217988878489">
        <ele>586.81635200000005</ele>
        <time>2016-03-24T12:43:27Z</time>
      </trkpt>
      <trkpt lat="50.614499989897013" lon="6.226251013576984">
        <ele>586.95796700000005</ele>
        <time>2016-03-24T12:43:25Z</time>
      </trkpt>
      <trkpt lat="50.614437041804194" lon="6.226268028840423">
        <ele>587.15844700000002</ele>
        <time>2016-03-24T12:43:23Z</time>
      </trkpt>
      <trkpt lat="50.614376021549106" lon="6.226300969719887">
        <ele>587.36073699999997</ele>
        <time>2016-03-24T12:43:21Z</time>
      </trkpt>
      <trkpt lat="50.614330004900694" lon="6.226327959448099">
        <ele>587.46966699999996</ele>
        <time>2016-03-24T12:43:19Z</time>
      </trkpt>
      <trkpt lat="50.614290023222566" lon="6.226355032995343">
        <ele>587.40114800000003</ele>
        <time>2016-03-24T12:43:16Z</time>
      </trkpt>
      <trkpt lat="50.61423503793776" lon="6.226385040208697">
        <ele>587.30950399999995</ele>
        <time>2016-03-24T12:43:12Z</time>
      </trkpt>
      <trkpt lat="50.61389003880322" lon="6.226516971364617">
        <ele>586.73465699999997</ele>
        <time>2016-03-24T12:42:51Z</time>
      </trkpt>
      <trkpt lat="50.613822983577847" lon="6.226537004113197">
        <ele>586.62728200000004</ele>
        <time>2016-03-24T12:42:48Z</time>
      </trkpt>
      <trkpt lat="50.613551996648312" lon="6.226623002439737">
        <ele>586.18943300000001</ele>
        <time>2016-03-24T12:42:32Z</time>
      </trkpt>
      <trkpt lat="50.613502962514758" lon="6.226634988561273">
        <ele>586.11135000000002</ele>
        <time>2016-03-24T12:42:30Z</time>
      </trkpt>
      <trkpt lat="50.61344001442194" lon="6.226639011874795">
        <ele>586.012069</ele>
        <time>2016-03-24T12:42:27Z</time>
      </trkpt>
      <trkpt lat="50.613389974460006" lon="6.226648986339569">
        <ele>585.93270600000005</ele>
        <time>2016-03-24T12:42:25Z</time>
      </trkpt>
      <trkpt lat="50.613345969468355" lon="6.22667103074491">
        <ele>585.86001999999996</ele>
        <time>2016-03-24T12:42:23Z</time>
      </trkpt>
      <trkpt lat="50.613094009459019" lon="6.226707994937897">
        <ele>585.44912199999999</ele>
        <time>2016-03-24T12:41:51Z</time>
      </trkpt>
      <trkpt lat="50.613037012517452" lon="6.226721992716193">
        <ele>585.35828500000002</ele>
        <time>2016-03-24T12:41:48Z</time>
      </trkpt>
      <trkpt lat="50.612995019182563" lon="6.226744037121534">
        <ele>585.28859299999999</ele>
        <time>2016-03-24T12:41:45Z</time>
      </trkpt>
      <trkpt lat="50.612950008362532" lon="6.226774966344237">
        <ele>585.21126100000004</ele>
        <time>2016-03-24T12:41:41Z</time>
      </trkpt>
      <trkpt lat="50.612910026684403" lon="6.226824000477791">
        <ele>585.131486</ele>
        <time>2016-03-24T12:41:36Z</time>
      </trkpt>
      <trkpt lat="50.612859986722469" lon="6.226841015741229">
        <ele>585.05094299999996</ele>
        <time>2016-03-24T12:41:32Z</time>
      </trkpt>
      <trkpt lat="50.612799972295761" lon="6.2268459610641">
        <ele>584.95633399999997</ele>
        <time>2016-03-24T12:41:28Z</time>
      </trkpt>
      <trkpt lat="50.612742975354195" lon="6.226872028782964">
        <ele>584.86289699999998</ele>
        <time>2016-03-24T12:41:24Z</time>
      </trkpt>
      <trkpt lat="50.612690001726151" lon="6.226888038218021">
        <ele>584.77792399999998</ele>
        <time>2016-03-24T12:41:21Z</time>
      </trkpt>
      <trkpt lat="50.612639961764216" lon="6.226902035996318">
        <ele>584.69795999999997</ele>
        <time>2016-03-24T12:41:19Z</time>
      </trkpt>
      <trkpt lat="50.61258003115654" lon="6.226922990754247">
        <ele>584.70835</ele>
        <time>2016-03-24T12:41:17Z</time>
      </trkpt>
      <trkpt lat="50.612509958446026" lon="6.226940006017685">
        <ele>584.82952699999998</ele>
        <time>2016-03-24T12:41:15Z</time>
      </trkpt>
      <trkpt lat="50.612452961504459" lon="6.226939000189304">
        <ele>584.927055</ele>
        <time>2016-03-24T12:41:13Z</time>
      </trkpt>
      <trkpt lat="50.612399987876415" lon="6.226935982704163">
        <ele>585.01779099999999</ele>
        <time>2016-03-24T12:41:11Z</time>
      </trkpt>
      <trkpt lat="50.612293034791946" lon="6.226960038766265">
        <ele>585.20335499999999</ele>
        <time>2016-03-24T12:41:06Z</time>
      </trkpt>
      <trkpt lat="50.611979970708489" lon="6.227131029590964">
        <ele>585.77013499999998</ele>
        <time>2016-03-24T12:40:31Z</time>
      </trkpt>
      <trkpt lat="50.611939989030361" lon="6.227164976298809">
        <ele>585.847891</ele>
        <time>2016-03-24T12:40:17Z</time>
      </trkpt>
      <trkpt lat="50.611892966553569" lon="6.227149972692132">
        <ele>585.929936</ele>
        <time>2016-03-24T12:40:13Z</time>
      </trkpt>
      <trkpt lat="50.611847033724189" lon="6.227198000997305">
        <ele>586.02432699999997</ele>
        <time>2016-03-24T12:40:08Z</time>
      </trkpt>
      <trkpt lat="50.611800011247396" lon="6.227225996553898">
        <ele>586.11029399999995</ele>
        <time>2016-03-24T12:40:05Z</time>
      </trkpt>
      <trkpt lat="50.611747959628701" lon="6.227260027080774">
        <ele>586.20661500000006</ele>
        <time>2016-03-24T12:40:02Z</time>
      </trkpt>
      <trkpt lat="50.61170001514256" lon="6.227286010980606">
        <ele>586.293454</ele>
        <time>2016-03-24T12:39:59Z</time>
      </trkpt>
      <trkpt lat="50.611600019037724" lon="6.227293973788619">
        <ele>586.47025799999994</ele>
        <time>2016-03-24T12:39:49Z</time>
      </trkpt>
      <trkpt lat="50.610659988597035" lon="6.227565966546536">
        <ele>587.97710600000005</ele>
        <time>2016-03-24T12:38:48Z</time>
      </trkpt>
      <trkpt lat="50.610620006918907" lon="6.227601002901793">
        <ele>588.02579900000001</ele>
        <time>2016-03-24T12:38:44Z</time>
      </trkpt>
      <trkpt lat="50.610577007755637" lon="6.227631010115147">
        <ele>588.07584599999996</ele>
        <time>2016-03-24T12:38:39Z</time>
      </trkpt>
      <trkpt lat="50.610526967793703" lon="6.227684989571571">
        <ele>588.14035699999999</ele>
        <time>2016-03-24T12:38:34Z</time>
      </trkpt>
      <trkpt lat="50.610484974458814" lon="6.227708039805293">
        <ele>588.18767800000001</ele>
        <time>2016-03-24T12:38:31Z</time>
      </trkpt>
      <trkpt lat="50.610435018315911" lon="6.22772203758359">
        <ele>588.24172399999998</ele>
        <time>2016-03-24T12:38:26Z</time>
      </trkpt>
      <trkpt lat="50.610385984182358" lon="6.227737041190267">
        <ele>588.294848</ele>
        <time>2016-03-24T12:38:21Z</time>
      </trkpt>
      <trkpt lat="50.610332004725933" lon="6.227743998169899">
        <ele>588.35251200000005</ele>
        <time>2016-03-24T12:38:16Z</time>
      </trkpt>
      <trkpt lat="50.610290011391044" lon="6.22778900898993">
        <ele>588.406564</ele>
        <time>2016-03-24T12:38:10Z</time>
      </trkpt>
      <trkpt lat="50.610237037763" lon="6.227812981233001">
        <ele>588.46525199999996</ele>
        <time>2016-03-24T12:38:06Z</time>
      </trkpt>
      <trkpt lat="50.610190015286207" lon="6.227833013981581">
        <ele>588.517064</ele>
        <time>2016-03-24T12:38:03Z</time>
      </trkpt>
      <trkpt lat="50.610134024173021" lon="6.22785497456789">
        <ele>588.578486</ele>
        <time>2016-03-24T12:37:59Z</time>
      </trkpt>
      <trkpt lat="50.610090019181371" lon="6.227893028408289">
        <ele>588.63188500000001</ele>
        <time>2016-03-24T12:37:55Z</time>
      </trkpt>
      <trkpt lat="50.609670002013445" lon="6.228020014241338">
        <ele>589.10803499999997</ele>
        <time>2016-03-24T12:37:17Z</time>
      </trkpt>
      <trkpt lat="50.609627002850175" lon="6.227985983714461">
        <ele>589.15923599999996</ele>
        <time>2016-03-24T12:37:08Z</time>
      </trkpt>
      <trkpt lat="50.60957302339375" lon="6.228005010634661">
        <ele>589.218121</ele>
        <time>2016-03-24T12:37:05Z</time>
      </trkpt>
      <trkpt lat="50.60931402258575" lon="6.228008028119803">
        <ele>589.50864000000001</ele>
        <time>2016-03-24T12:36:52Z</time>
      </trkpt>
      <trkpt lat="50.609270017594099" lon="6.227991012856364">
        <ele>589.55685500000004</ele>
        <time>2016-03-24T12:36:50Z</time>
      </trkpt>
      <trkpt lat="50.609202962368727" lon="6.227968968451023">
        <ele>589.62969199999998</ele>
        <time>2016-03-24T12:36:45Z</time>
      </trkpt>
      <trkpt lat="50.609154012054205" lon="6.227933010086417">
        <ele>589.93239400000004</ele>
        <time>2016-03-24T12:36:37Z</time>
      </trkpt>
      <trkpt lat="50.60910003259778" lon="6.227900991216302">
        <ele>590.34248000000002</ele>
        <time>2016-03-24T12:36:33Z</time>
      </trkpt>
      <trkpt lat="50.60862997546792" lon="6.227751038968563">
        <ele>593.81433000000004</ele>
        <time>2016-03-24T12:36:03Z</time>
      </trkpt>
      <trkpt lat="50.608386984094977" lon="6.227622963488102">
        <ele>596.32719599999996</ele>
        <time>2016-03-24T12:35:07Z</time>
      </trkpt>
      <trkpt lat="50.608334010466933" lon="6.22759597375989">
        <ele>596.72312799999997</ele>
        <time>2016-03-24T12:35:05Z</time>
      </trkpt>
      <trkpt lat="50.608287993818521" lon="6.227589016780257">
        <ele>597.05162499999994</ele>
        <time>2016-03-24T12:35:01Z</time>
      </trkpt>
      <trkpt lat="50.608239965513349" lon="6.227580970153213">
        <ele>597.39472000000001</ele>
        <time>2016-03-24T12:34:59Z</time>
      </trkpt>
      <trkpt lat="50.608172994107008" lon="6.227582981809974">
        <ele>597.87105299999996</ele>
        <time>2016-03-24T12:34:56Z</time>
      </trkpt>
      <trkpt lat="50.608099987730384" lon="6.22755297459662">
        <ele>598.40730599999995</ele>
        <time>2016-03-24T12:34:54Z</time>
      </trkpt>
      <trkpt lat="50.607479978352785" lon="6.22738198377192">
        <ele>602.90991599999995</ele>
        <time>2016-03-24T12:34:12Z</time>
      </trkpt>
      <trkpt lat="50.607433039695024" lon="6.227365974336863">
        <ele>603.25334299999997</ele>
        <time>2016-03-24T12:34:09Z</time>
      </trkpt>
      <trkpt lat="50.607375958934426" lon="6.227364968508482">
        <ele>603.66047300000002</ele>
        <time>2016-03-24T12:33:59Z</time>
      </trkpt>
      <trkpt lat="50.607327008619905" lon="6.227348037064076">
        <ele>604.018822</ele>
        <time>2016-03-24T12:33:55Z</time>
      </trkpt>
      <trkpt lat="50.607264982536435" lon="6.227334039285779">
        <ele>604.46616100000006</ele>
        <time>2016-03-24T12:33:52Z</time>
      </trkpt>
      <trkpt lat="50.607203962281346" lon="6.227318029850721">
        <ele>604.90782899999999</ele>
        <time>2016-03-24T12:33:49Z</time>
      </trkpt>
      <trkpt lat="50.607143025845289" lon="6.227293973788619">
        <ele>605.35687800000005</ele>
        <time>2016-03-24T12:33:46Z</time>
      </trkpt>
      <trkpt lat="50.60699500143528" lon="6.22720898129046">
        <ele>606.50930000000005</ele>
        <time>2016-03-24T12:33:35Z</time>
      </trkpt>
      <trkpt lat="50.606772964820266" lon="6.227324986830354">
        <ele>609.27129500000001</ele>
        <time>2016-03-24T12:33:09Z</time>
      </trkpt>
      <trkpt lat="50.605835029855371" lon="6.228661984205246">
        <ele>614.70029899999997</ele>
        <time>2016-03-24T12:31:39Z</time>
      </trkpt>
      <trkpt lat="50.605796976014972" lon="6.228731973096728">
        <ele>614.63984100000005</ele>
        <time>2016-03-24T12:31:35Z</time>
      </trkpt>
      <trkpt lat="50.605769986286759" lon="6.22879701666534">
        <ele>614.58885399999997</ele>
        <time>2016-03-24T12:31:32Z</time>
      </trkpt>
      <trkpt lat="50.605732016265392" lon="6.228854013606906">
        <ele>614.53459699999996</ele>
        <time>2016-03-24T12:31:28Z</time>
      </trkpt>
      <trkpt lat="50.605094991624355" lon="6.229791026562452">
        <ele>613.60925899999995</ele>
        <time>2016-03-24T12:28:40Z</time>
      </trkpt>
      <trkpt lat="50.605063978582621" lon="6.229841988533735">
        <ele>613.56290999999999</ele>
        <time>2016-03-24T12:28:37Z</time>
      </trkpt>
      <trkpt lat="50.605033971369267" lon="6.229897979646921">
        <ele>613.51481100000001</ele>
        <time>2016-03-24T12:28:34Z</time>
      </trkpt>
      <trkpt lat="50.605006981641054" lon="6.229955982416868">
        <ele>613.46760099999995</ele>
        <time>2016-03-24T12:28:31Z</time>
      </trkpt>
      <trkpt lat="50.604034010320902" lon="6.23148400336504">
        <ele>616.496623</ele>
        <time>2016-03-24T12:26:50Z</time>
      </trkpt>
      <trkpt lat="50.603999979794025" lon="6.231537982821465">
        <ele>616.60414400000002</ele>
        <time>2016-03-24T12:26:46Z</time>
      </trkpt>
      <trkpt lat="50.602700030431151" lon="6.233393987640739">
        <ele>620.91620399999999</ele>
        <time>2016-03-24T12:24:37Z</time>
      </trkpt>
      <trkpt lat="50.602684020996094" lon="6.233476968482137">
        <ele>621.03922599999999</ele>
        <time>2016-03-24T12:24:33Z</time>
      </trkpt>
      <trkpt lat="50.602649990469217" lon="6.233532037585974">
        <ele>621.14811199999997</ele>
        <time>2016-03-24T12:24:28Z</time>
      </trkpt>
      <trkpt lat="50.602600034326315" lon="6.233587022870779">
        <ele>621.28437199999996</ele>
        <time>2016-03-24T12:24:24Z</time>
      </trkpt>
      <trkpt lat="50.602356037124991" lon="6.233965968713164">
        <ele>622.10578799999996</ele>
        <time>2016-03-24T12:23:58Z</time>
      </trkpt>
      <trkpt lat="50.602319994941354" lon="6.234022965654731">
        <ele>622.22383500000001</ele>
        <time>2016-03-24T12:23:55Z</time>
      </trkpt>
      <trkpt lat="50.602305997163057" lon="6.234092032536864">
        <ele>622.33017800000005</ele>
        <time>2016-03-24T12:23:52Z</time>
      </trkpt>
      <trkpt lat="50.602169958874583" lon="6.234347010031343">
        <ele>623.78928800000006</ele>
        <time>2016-03-24T11:53:45Z</time>
      </trkpt>
      <trkpt lat="50.602184040471911" lon="6.234422028064728">
        <ele>623.90405299999998</ele>
        <time>2016-03-24T11:53:42Z</time>
      </trkpt>
      <trkpt lat="50.601394968107343" lon="6.236482970416546">
        <ele>626.22149200000001</ele>
        <time>2016-03-24T11:52:01Z</time>
      </trkpt>
      <trkpt lat="50.601352974772453" lon="6.236548013985157">
        <ele>626.26699099999996</ele>
        <time>2016-03-24T11:51:57Z</time>
      </trkpt>
      <trkpt lat="50.600375980138779" lon="6.239296020939946">
        <ele>621.03338399999996</ele>
        <time>2016-03-24T11:49:43Z</time>
      </trkpt>
      <trkpt lat="50.600333986803889" lon="6.239340025931597">
        <ele>620.76278000000002</ele>
        <time>2016-03-24T11:49:40Z</time>
      </trkpt>
      <trkpt lat="50.600303979590535" lon="6.239425018429756">
        <ele>620.43158400000004</ele>
        <time>2016-03-24T11:49:37Z</time>
      </trkpt>
      <trkpt lat="50.600276989862323" lon="6.239496013149619">
        <ele>620.14972899999998</ele>
        <time>2016-03-24T11:49:34Z</time>
      </trkpt>
      <trkpt lat="50.600310014560819" lon="6.239413032308221">
        <ele>618.94848000000002</ele>
        <time>2016-03-24T11:49:09Z</time>
      </trkpt>
      <trkpt lat="50.600285036489367" lon="6.239331979304552">
        <ele>618.64176399999997</ele>
        <time>2016-03-24T11:49:06Z</time>
      </trkpt>
      <trkpt lat="50.600289981812239" lon="6.239259978756309">
        <ele>618.39511400000004</ele>
        <time>2016-03-24T11:49:04Z</time>
      </trkpt>
      <trkpt lat="50.600276989862323" lon="6.239172974601388">
        <ele>618.09074699999996</ele>
        <time>2016-03-24T11:49:02Z</time>
      </trkpt>
      <trkpt lat="50.599632002413273" lon="6.236548013985157">
        <ele>620.86471200000005</ele>
        <time>2016-03-24T11:45:48Z</time>
      </trkpt>
      <trkpt lat="50.599585985764861" lon="6.236466960981488">
        <ele>621.36736199999996</ele>
        <time>2016-03-24T11:45:38Z</time>
      </trkpt>
      <trkpt lat="50.599552039057016" lon="6.236402001231909">
        <ele>621.756889</ele>
        <time>2016-03-24T11:45:35Z</time>
      </trkpt>
      <trkpt lat="50.599509961903095" lon="6.236363025382161">
        <ele>622.11210100000005</ele>
        <time>2016-03-24T11:45:32Z</time>
      </trkpt>
      <trkpt lat="50.599476015195251" lon="6.23631801456213">
        <ele>622.43564200000003</ele>
        <time>2016-03-24T11:45:28Z</time>
      </trkpt>
      <trkpt lat="50.599434021860361" lon="6.236269986256957">
        <ele>622.81369299999994</ele>
        <time>2016-03-24T11:45:25Z</time>
      </trkpt>
      <trkpt lat="50.599409965798259" lon="6.236207038164139">
        <ele>623.15349700000002</ele>
        <time>2016-03-24T11:45:21Z</time>
      </trkpt>
      <trkpt lat="50.599365038797259" lon="6.236162027344108">
        <ele>623.54184099999998</ele>
        <time>2016-03-24T11:45:17Z</time>
      </trkpt>
      <trkpt lat="50.598099958151579" lon="6.233463976532221">
        <ele>638.426558</ele>
        <time>2016-03-24T11:42:39Z</time>
      </trkpt>
      <trkpt lat="50.598063999786973" lon="6.23341703787446">
        <ele>638.69059400000003</ele>
        <time>2016-03-24T11:42:36Z</time>
      </trkpt>
      <trkpt lat="50.598019994795322" lon="6.233359035104513">
        <ele>639.01457800000003</ele>
        <time>2016-03-24T11:42:33Z</time>
      </trkpt>
      <trkpt lat="50.597980013117194" lon="6.23331100679934">
        <ele>639.29853300000002</ele>
        <time>2016-03-24T11:42:30Z</time>
      </trkpt>
      <trkpt lat="50.597959980368614" lon="6.233235988765955">
        <ele>639.59013900000002</ele>
        <time>2016-03-24T11:42:26Z</time>
      </trkpt>
      <trkpt lat="50.597935002297163" lon="6.233159964904189">
        <ele>639.89697799999999</ele>
        <time>2016-03-24T11:42:22Z</time>
      </trkpt>
      <trkpt lat="50.597910024225712" lon="6.233091987669468">
        <ele>640.17866500000002</ele>
        <time>2016-03-24T11:42:19Z</time>
      </trkpt>
      <trkpt lat="50.597889991477132" lon="6.233021998777986">
        <ele>640.45383500000003</ele>
        <time>2016-03-24T11:42:16Z</time>
      </trkpt>
      <trkpt lat="50.597850009799004" lon="6.232944969087839">
        <ele>640.81049900000005</ele>
        <time>2016-03-24T11:42:12Z</time>
      </trkpt>
      <trkpt lat="50.597824025899172" lon="6.23288101516664">
        <ele>641.08287700000005</ele>
        <time>2016-03-24T11:42:07Z</time>
      </trkpt>
      <trkpt lat="50.597789995372295" lon="6.232819994911552">
        <ele>641.373873</ele>
        <time>2016-03-24T11:42:02Z</time>
      </trkpt>
      <trkpt lat="50.597750013694167" lon="6.232764003798366">
        <ele>641.67606799999999</ele>
        <time>2016-03-24T11:41:58Z</time>
      </trkpt>
      <trkpt lat="50.597701985388994" lon="6.232714969664812">
        <ele>641.99906699999997</ele>
        <time>2016-03-24T11:41:55Z</time>
      </trkpt>
      <trkpt lat="50.597655968740582" lon="6.23264598660171">
        <ele>642.35775599999999</ele>
        <time>2016-03-24T11:41:52Z</time>
      </trkpt>
      <trkpt lat="50.597202004864812" lon="6.231736969202757">
        <ele>647.006528</ele>
        <time>2016-03-24T11:41:00Z</time>
      </trkpt>
      <trkpt lat="50.596492979675531" lon="6.230417992919684">
        <ele>654.35627699999998</ele>
        <time>2016-03-24T11:39:46Z</time>
      </trkpt>
      <trkpt lat="50.59644696302712" lon="6.230398965999484">
        <ele>654.66192000000001</ele>
        <time>2016-03-24T11:39:44Z</time>
      </trkpt>
      <trkpt lat="50.59640496969223" lon="6.230371976271272">
        <ele>654.95347100000004</ele>
        <time>2016-03-24T11:39:42Z</time>
      </trkpt>
      <trkpt lat="50.596362976357341" lon="6.230310034006834">
        <ele>655.32340599999998</ele>
        <time>2016-03-24T11:39:38Z</time>
      </trkpt>
      <trkpt lat="50.596340009942651" lon="6.230229986831546">
        <ele>655.15554899999995</ele>
        <time>2016-03-24T11:39:33Z</time>
      </trkpt>
      <trkpt lat="50.596302039921284" lon="6.230164021253586">
        <ele>654.96191399999998</ele>
        <time>2016-03-24T11:39:29Z</time>
      </trkpt>
      <trkpt lat="50.596268009394407" lon="6.230101995170116">
        <ele>654.78386499999999</ele>
        <time>2016-03-24T11:39:25Z</time>
      </trkpt>
      <trkpt lat="50.59623003937304" lon="6.23004499822855">
        <ele>654.60423500000002</ele>
        <time>2016-03-24T11:39:21Z</time>
      </trkpt>
      <trkpt lat="50.596195003017783" lon="6.229994036257267">
        <ele>654.44101799999999</ele>
        <time>2016-03-24T11:39:18Z</time>
      </trkpt>
      <trkpt lat="50.596159966662526" lon="6.229945002123714">
        <ele>654.28071899999998</ele>
        <time>2016-03-24T11:39:15Z</time>
      </trkpt>
      <trkpt lat="50.596115039661527" lon="6.229891022667289">
        <ele>654.08706099999995</ele>
        <time>2016-03-24T11:39:11Z</time>
      </trkpt>
      <trkpt lat="50.596070028841496" lon="6.2298300024122">
        <ele>653.883824</ele>
        <time>2016-03-24T11:39:07Z</time>
      </trkpt>
      <trkpt lat="50.596027029678226" lon="6.229779040440917">
        <ele>653.69956000000002</ele>
        <time>2016-03-24T11:39:04Z</time>
      </trkpt>
      <trkpt lat="50.596000039950013" lon="6.229702010750771">
        <ele>653.50839599999995</ele>
        <time>2016-03-24T11:39:01Z</time>
      </trkpt>
      <trkpt lat="50.595874981954694" lon="6.229372015222907">
        <ele>652.67328699999996</ele>
        <time>2016-03-24T11:38:16Z</time>
      </trkpt>
      <trkpt lat="50.595832988619804" lon="6.22933697886765">
        <ele>652.510625</ele>
        <time>2016-03-24T11:38:08Z</time>
      </trkpt>
      <trkpt lat="50.595817985013127" lon="6.229270007461309">
        <ele>652.35623399999997</ele>
        <time>2016-03-24T11:38:03Z</time>
      </trkpt>
      <trkpt lat="50.595770040526986" lon="6.229235976934433">
        <ele>652.176062</ele>
        <time>2016-03-24T11:38:00Z</time>
      </trkpt>
      <trkpt lat="50.59573701582849" lon="6.229165988042951">
        <ele>651.98658</ele>
        <time>2016-03-24T11:37:51Z</time>
      </trkpt>
      <trkpt lat="50.595463011413813" lon="6.228614961728454">
        <ele>649.14731200000006</ele>
        <time>2016-03-24T11:36:43Z</time>
      </trkpt>
      <trkpt lat="50.595416994765401" lon="6.228572968393564">
        <ele>649.11150499999997</ele>
        <time>2016-03-24T11:36:40Z</time>
      </trkpt>
      <trkpt lat="50.59479002840817" lon="6.227389024570584">
        <ele>648.41792999999996</ele>
        <time>2016-03-24T11:35:36Z</time>
      </trkpt>
      <trkpt lat="50.594783993437886" lon="6.227317024022341">
        <ele>648.38688500000001</ele>
        <time>2016-03-24T11:35:32Z</time>
      </trkpt>
      <trkpt lat="50.594760021194816" lon="6.227248962968588">
        <ele>648.35362299999997</ele>
        <time>2016-03-24T11:35:27Z</time>
      </trkpt>
      <trkpt lat="50.594709981232882" lon="6.227214010432363">
        <ele>648.31677500000001</ele>
        <time>2016-03-24T11:35:24Z</time>
      </trkpt>
      <trkpt lat="50.594560028985143" lon="6.226903963834047">
        <ele>648.14324899999997</ele>
        <time>2016-03-24T11:35:07Z</time>
      </trkpt>
      <trkpt lat="50.59453203342855" lon="6.226829029619694">
        <ele>648.10605099999998</ele>
        <time>2016-03-24T11:35:04Z</time>
      </trkpt>
      <trkpt lat="50.594481993466616" lon="6.22677999548614">
        <ele>648.06639299999995</ele>
        <time>2016-03-24T11:35:00Z</time>
      </trkpt>
      <trkpt lat="50.594440000131726" lon="6.226817965507507">
        <ele>648.03377399999999</ele>
        <time>2016-03-24T11:34:56Z</time>
      </trkpt>
      <trkpt lat="50.594414016231894" lon="6.226883009076119">
        <ele>648.00092900000004</ele>
        <time>2016-03-24T11:34:52Z</time>
      </trkpt>
      <trkpt lat="50.594402030110359" lon="6.226959032937884">
        <ele>647.97373800000003</ele>
        <time>2016-03-24T11:34:48Z</time>
      </trkpt>
      <trkpt lat="50.594402030110359" lon="6.227041007950902">
        <ele>648.04312400000003</ele>
        <time>2016-03-24T11:34:45Z</time>
      </trkpt>
      <trkpt lat="50.594414016231894" lon="6.227132035419345">
        <ele>648.12176999999997</ele>
        <time>2016-03-24T11:34:41Z</time>
      </trkpt>
      <trkpt lat="50.594440000131726" lon="6.227211998775601">
        <ele>648.19781999999998</ele>
        <time>2016-03-24T11:34:37Z</time>
      </trkpt>
      <trkpt lat="50.594460032880306" lon="6.227277964353561">
        <ele>648.25970400000006</ele>
        <time>2016-03-24T11:34:34Z</time>
      </trkpt>
      <trkpt lat="50.594475036486983" lon="6.227364968508482">
        <ele>648.33598800000004</ele>
        <time>2016-03-24T11:34:31Z</time>
      </trkpt>
      <trkpt lat="50.594481993466616" lon="6.227455995976925">
        <ele>648.41355299999998</ele>
        <time>2016-03-24T11:34:27Z</time>
      </trkpt>
      <trkpt lat="50.594498002901673" lon="6.227536965161562">
        <ele>648.48533399999997</ele>
        <time>2016-03-24T11:34:23Z</time>
      </trkpt>
      <trkpt lat="50.594500014558434" lon="6.227611983194947">
        <ele>648.54885300000001</ele>
        <time>2016-03-24T11:34:19Z</time>
      </trkpt>
      <trkpt lat="50.594479981809855" lon="6.227683983743191">
        <ele>648.61535500000002</ele>
        <time>2016-03-24T11:34:15Z</time>
      </trkpt>
      <trkpt lat="50.594430025666952" lon="6.227710973471403">
        <ele>648.68580999999995</ele>
        <time>2016-03-24T11:34:11Z</time>
      </trkpt>
      <trkpt lat="50.594379985705018" lon="6.227720025926828">
        <ele>648.75289199999997</ele>
        <time>2016-03-24T11:34:08Z</time>
      </trkpt>
      <trkpt lat="50.594336986541748" lon="6.227711979299784">
        <ele>648.810608</ele>
        <time>2016-03-24T11:34:06Z</time>
      </trkpt>
      <trkpt lat="50.594289964064956" lon="6.227693036198616">
        <ele>648.87528699999996</ele>
        <time>2016-03-24T11:34:03Z</time>
      </trkpt>
      <trkpt lat="50.594240007922053" lon="6.227667974308133">
        <ele>648.94521199999997</ele>
        <time>2016-03-24T11:33:59Z</time>
      </trkpt>
      <trkpt lat="50.594179993495345" lon="6.227636961266398">
        <ele>649.02938200000006</ele>
        <time>2016-03-24T11:33:55Z</time>
      </trkpt>
      <trkpt lat="50.594140011817217" lon="6.227615000680089">
        <ele>649.08585700000003</ele>
        <time>2016-03-24T11:33:52Z</time>
      </trkpt>
      <trkpt lat="50.594092989340425" lon="6.227587005123496">
        <ele>649.15283599999998</ele>
        <time>2016-03-24T11:33:49Z</time>
      </trkpt>
      <trkpt lat="50.594044039025903" lon="6.227569989860058">
        <ele>649.21971699999995</ele>
        <time>2016-03-24T11:33:45Z</time>
      </trkpt>
      <trkpt lat="50.593998022377491" lon="6.227541994303465">
        <ele>649.28545199999996</ele>
        <time>2016-03-24T11:33:40Z</time>
      </trkpt>
      <trkpt lat="50.593952005729079" lon="6.227517016232014">
        <ele>649.35031500000002</ele>
        <time>2016-03-24T11:33:36Z</time>
      </trkpt>
      <trkpt lat="50.593917975202203" lon="6.227465970441699">
        <ele>649.41289500000005</ele>
        <time>2016-03-24T11:33:31Z</time>
      </trkpt>
      <trkpt lat="50.593109959736466" lon="6.226669019088149">
        <ele>651.045117</ele>
        <time>2016-03-24T11:32:18Z</time>
      </trkpt>
      <trkpt lat="50.593063021078706" lon="6.226633982732892">
        <ele>651.18705599999998</ele>
        <time>2016-03-24T11:32:15Z</time>
      </trkpt>
      <trkpt lat="50.593013986945152" lon="6.22660699300468">
        <ele>651.32878800000003</ele>
        <time>2016-03-24T11:32:12Z</time>
      </trkpt>
      <trkpt lat="50.592956990003586" lon="6.226594001054764">
        <ele>651.48603600000001</ele>
        <time>2016-03-24T11:32:08Z</time>
      </trkpt>
      <trkpt lat="50.592920025810599" lon="6.226554019376636">
        <ele>651.60855800000002</ele>
        <time>2016-03-24T11:32:04Z</time>
      </trkpt>
      <trkpt lat="50.592869985848665" lon="6.226523006334901">
        <ele>651.75526500000001</ele>
        <time>2016-03-24T11:31:59Z</time>
      </trkpt>
      <trkpt lat="50.592820029705763" lon="6.226505991071463">
        <ele>651.89492199999995</ele>
        <time>2016-03-24T11:31:54Z</time>
      </trkpt>
      <trkpt lat="50.592769989743829" lon="6.226475983858109">
        <ele>652.04100300000005</ele>
        <time>2016-03-24T11:31:48Z</time>
      </trkpt>
      <trkpt lat="50.592723973095417" lon="6.226453017443419">
        <ele>652.17277000000001</ele>
        <time>2016-03-24T11:31:44Z</time>
      </trkpt>
      <trkpt lat="50.592678040266037" lon="6.226437008008361">
        <ele>652.30138799999997</ele>
        <time>2016-03-24T11:31:41Z</time>
      </trkpt>
      <trkpt lat="50.592624982818961" lon="6.226418986916542">
        <ele>652.44941700000004</ele>
        <time>2016-03-24T11:31:38Z</time>
      </trkpt>
      <trkpt lat="50.592569997534156" lon="6.226396020501852">
        <ele>652.604783</ele>
        <time>2016-03-24T11:31:35Z</time>
      </trkpt>
      <trkpt lat="50.592509983107448" lon="6.226408006623387">
        <ele>652.76991399999997</ele>
        <time>2016-03-24T11:31:33Z</time>
      </trkpt>
      <trkpt lat="50.591766005381942" lon="6.22622100636363">
        <ele>654.92717100000004</ele>
        <time>2016-03-24T11:30:30Z</time>
      </trkpt>
      <trkpt lat="50.591716971248388" lon="6.226224023848772">
        <ele>655.06105500000001</ele>
        <time>2016-03-24T11:30:27Z</time>
      </trkpt>
      <trkpt lat="50.591670032590628" lon="6.226202985271812">
        <ele>655.19443999999999</ele>
        <time>2016-03-24T11:30:24Z</time>
      </trkpt>
      <trkpt lat="50.591619992628694" lon="6.226186975836754">
        <ele>655.39705400000003</ele>
        <time>2016-03-24T11:30:21Z</time>
      </trkpt>
      <trkpt lat="50.59156802482903" lon="6.2261569686234">
        <ele>655.71955500000001</ele>
        <time>2016-03-24T11:30:17Z</time>
      </trkpt>
      <trkpt lat="50.591526031494141" lon="6.226136013865471">
        <ele>655.97617500000001</ele>
        <time>2016-03-24T11:30:14Z</time>
      </trkpt>
      <trkpt lat="50.591484038159251" lon="6.226097960025072">
        <ele>656.25824399999999</ele>
        <time>2016-03-24T11:30:10Z</time>
      </trkpt>
      <trkpt lat="50.59144196100533" lon="6.226065019145608">
        <ele>656.53157599999997</ele>
        <time>2016-03-24T11:30:06Z</time>
      </trkpt>
      <trkpt lat="50.591389993205667" lon="6.22604900971055">
        <ele>656.84012900000005</ele>
        <time>2016-03-24T11:30:02Z</time>
      </trkpt>
      <trkpt lat="50.591354034841061" lon="6.225996036082506">
        <ele>657.12709400000006</ele>
        <time>2016-03-24T11:29:58Z</time>
      </trkpt>
      <trkpt lat="50.591329978778958" lon="6.22592001222074">
        <ele>657.44091800000001</ele>
        <time>2016-03-24T11:29:54Z</time>
      </trkpt>
      <trkpt lat="50.59131002984941" lon="6.225850023329258">
        <ele>657.72471800000005</ele>
        <time>2016-03-24T11:29:50Z</time>
      </trkpt>
      <trkpt lat="50.591263007372618" lon="6.225815992802382">
        <ele>658.02591299999995</ele>
        <time>2016-03-24T11:29:46Z</time>
      </trkpt>
      <trkpt lat="50.591220008209348" lon="6.225781040266156">
        <ele>658.30778699999996</ele>
        <time>2016-03-24T11:29:42Z</time>
      </trkpt>
      <trkpt lat="50.591174997389317" lon="6.225752038881183">
        <ele>658.59093499999994</ele>
        <time>2016-03-24T11:29:38Z</time>
      </trkpt>
      <trkpt lat="50.591120012104511" lon="6.225721025839448">
        <ele>658.93112299999996</ele>
        <time>2016-03-24T11:29:33Z</time>
      </trkpt>
      <trkpt lat="50.591080030426383" lon="6.225700993090868">
        <ele>659.175522</ele>
        <time>2016-03-24T11:29:29Z</time>
      </trkpt>
      <trkpt lat="50.591022027656436" lon="6.225681966170669">
        <ele>659.52052000000003</ele>
        <time>2016-03-24T11:29:24Z</time>
      </trkpt>
      <trkpt lat="50.590977016836405" lon="6.22566101141274">
        <ele>659.79384300000004</ele>
        <time>2016-03-24T11:29:20Z</time>
      </trkpt>
      <trkpt lat="50.590929994359612" lon="6.225637039169669">
        <ele>660.08157700000004</ele>
        <time>2016-03-24T11:29:16Z</time>
      </trkpt>
      <trkpt lat="50.59088003821671" lon="6.225605020299554">
        <ele>660.39587600000004</ele>
        <time>2016-03-24T11:29:12Z</time>
      </trkpt>
      <trkpt lat="50.590829998254776" lon="6.225564032793045">
        <ele>660.72415100000001</ele>
        <time>2016-03-24T11:29:08Z</time>
      </trkpt>
      <trkpt lat="50.590785993263125" lon="6.225521033629775">
        <ele>661.02570200000002</ele>
        <time>2016-03-24T11:29:04Z</time>
      </trkpt>
      <trkpt lat="50.590739976614714" lon="6.225501000881195">
        <ele>661.30360700000006</ele>
        <time>2016-03-24T11:29:01Z</time>
      </trkpt>
      <trkpt lat="50.590693959966302" lon="6.225477028638125">
        <ele>661.58580700000005</ele>
        <time>2016-03-24T11:28:58Z</time>
      </trkpt>
      <trkpt lat="50.590650038793683" lon="6.225459007546306">
        <ele>661.850548</ele>
        <time>2016-03-24T11:28:55Z</time>
      </trkpt>
      <trkpt lat="50.590609973296523" lon="6.225412990897894">
        <ele>662.13897099999997</ele>
        <time>2016-03-24T11:28:51Z</time>
      </trkpt>
      <trkpt lat="50.590560017153621" lon="6.225390024483204">
        <ele>662.44231500000001</ele>
        <time>2016-03-24T11:28:46Z</time>
      </trkpt>
      <trkpt lat="50.590509977191687" lon="6.225363034754992">
        <ele>662.75013300000001</ele>
        <time>2016-03-24T11:28:41Z</time>
      </trkpt>
      <trkpt lat="50.590465972200036" lon="6.225334033370018">
        <ele>663.02790000000005</ele>
        <time>2016-03-24T11:28:35Z</time>
      </trkpt>
      <trkpt lat="50.590416016057134" lon="6.225292962044478">
        <ele>663.356176</ele>
        <time>2016-03-24T11:28:30Z</time>
      </trkpt>
      <trkpt lat="50.590369999408722" lon="6.225261026993394">
        <ele>663.64902500000005</ele>
        <time>2016-03-24T11:28:25Z</time>
      </trkpt>
      <trkpt lat="50.59032398276031" lon="6.225235965102911">
        <ele>663.93241</ele>
        <time>2016-03-24T11:28:21Z</time>
      </trkpt>
      <trkpt lat="50.590281989425421" lon="6.225201012566686">
        <ele>664.20912399999997</ele>
        <time>2016-03-24T11:28:18Z</time>
      </trkpt>
      <trkpt lat="50.590244019404054" lon="6.225153990089893">
        <ele>664.49049300000001</ele>
        <time>2016-03-24T11:28:14Z</time>
      </trkpt>
      <trkpt lat="50.590200014412403" lon="6.225127000361681">
        <ele>664.765491</ele>
        <time>2016-03-24T11:28:10Z</time>
      </trkpt>
      <trkpt lat="50.590145029127598" lon="6.225114008411765">
        <ele>665.08937700000001</ele>
        <time>2016-03-24T11:28:06Z</time>
      </trkpt>
      <trkpt lat="50.590103035792708" lon="6.225094981491566">
        <ele>665.34385699999996</ele>
        <time>2016-03-24T11:28:02Z</time>
      </trkpt>
      <trkpt lat="50.590057019144297" lon="6.22508198954165">
        <ele>665.61602200000004</ele>
        <time>2016-03-24T11:27:59Z</time>
      </trkpt>
      <trkpt lat="50.589995998889208" lon="6.225053993985057">
        <ele>665.63465799999994</ele>
        <time>2016-03-24T11:27:56Z</time>
      </trkpt>
      <trkpt lat="50.589946964755654" lon="6.225032033398747">
        <ele>665.48491999999999</ele>
        <time>2016-03-24T11:27:53Z</time>
      </trkpt>
      <trkpt lat="50.589897008612752" lon="6.224999008700252">
        <ele>665.32560100000001</ele>
        <time>2016-03-24T11:27:48Z</time>
      </trkpt>
      <trkpt lat="50.58984998613596" lon="6.224967995658517">
        <ele>665.17585599999995</ele>
        <time>2016-03-24T11:27:44Z</time>
      </trkpt>
      <trkpt lat="50.589798018336296" lon="6.224958021193743">
        <ele>665.02190199999995</ele>
        <time>2016-03-24T11:27:41Z</time>
      </trkpt>
      <trkpt lat="50.58974496088922" lon="6.224958021193743">
        <ele>664.86614499999996</ele>
        <time>2016-03-24T11:27:38Z</time>
      </trkpt>
      <trkpt lat="50.589686958119273" lon="6.224957015365362">
        <ele>664.69568300000003</ele>
        <time>2016-03-24T11:27:34Z</time>
      </trkpt>
      <trkpt lat="50.589640019461513" lon="6.224946035072208">
        <ele>664.55604200000005</ele>
        <time>2016-03-24T11:27:31Z</time>
      </trkpt>
      <trkpt lat="50.589600037783384" lon="6.224926002323628">
        <ele>664.43270800000005</ele>
        <time>2016-03-24T11:27:28Z</time>
      </trkpt>
      <trkpt lat="50.588963013142347" lon="6.224598018452525">
        <ele>662.39772200000004</ele>
        <time>2016-03-24T11:26:33Z</time>
      </trkpt>
      <trkpt lat="50.588929988443851" lon="6.224528029561043">
        <ele>662.23504700000001</ele>
        <time>2016-03-24T11:26:29Z</time>
      </trkpt>
      <trkpt lat="50.588875003159046" lon="6.224489975720644">
        <ele>662.05854599999998</ele>
        <time>2016-03-24T11:26:26Z</time>
      </trkpt>
      <trkpt lat="50.588824963197112" lon="6.2244370020926">
        <ele>661.88142900000003</ele>
        <time>2016-03-24T11:26:23Z</time>
      </trkpt>
      <trkpt lat="50.587836988270283" lon="6.223666034638882">
        <ele>660.97441200000003</ele>
        <time>2016-03-24T11:25:03Z</time>
      </trkpt>
      <trkpt lat="50.587794994935393" lon="6.223622029647231">
        <ele>661.01475000000005</ele>
        <time>2016-03-24T11:25:00Z</time>
      </trkpt>
      <trkpt lat="50.587770016863942" lon="6.223565032705665">
        <ele>661.04992500000003</ele>
        <time>2016-03-24T11:24:56Z</time>
      </trkpt>
      <trkpt lat="50.587749984115362" lon="6.223499989137054">
        <ele>661.08659799999998</ele>
        <time>2016-03-24T11:24:53Z</time>
      </trkpt>
      <trkpt lat="50.587710002437234" lon="6.223431006073952">
        <ele>661.13403800000003</ele>
        <time>2016-03-24T11:24:49Z</time>
      </trkpt>
      <trkpt lat="50.587676977738738" lon="6.223370991647244">
        <ele>661.17434300000002</ele>
        <time>2016-03-24T11:24:44Z</time>
      </trkpt>
      <trkpt lat="50.587619980797172" lon="6.223260015249252">
        <ele>661.26659600000005</ele>
        <time>2016-03-24T11:24:38Z</time>
      </trkpt>
      <trkpt lat="50.587555021047592" lon="6.223238976672292">
        <ele>661.319658</ele>
        <time>2016-03-24T11:24:36Z</time>
      </trkpt>
      <trkpt lat="50.587494000792503" lon="6.223205029964447">
        <ele>661.37140399999998</ele>
        <time>2016-03-24T11:24:32Z</time>
      </trkpt>
      <trkpt lat="50.587452007457614" lon="6.223175022751093">
        <ele>661.40828399999998</ele>
        <time>2016-03-24T11:24:29Z</time>
      </trkpt>
      <trkpt lat="50.587405990809202" lon="6.223125988617539">
        <ele>661.45269299999995</ele>
        <time>2016-03-24T11:24:25Z</time>
      </trkpt>
      <trkpt lat="50.58735704049468" lon="6.223079971969128">
        <ele>661.49831099999994</ele>
        <time>2016-03-24T11:24:21Z</time>
      </trkpt>
      <trkpt lat="50.586739964783192" lon="6.2225909717381">
        <ele>664.23168699999997</ele>
        <time>2016-03-24T11:23:38Z</time>
      </trkpt>
      <trkpt lat="50.586690008640289" lon="6.222598012536764">
        <ele>664.806872</ele>
        <time>2016-03-24T11:23:24Z</time>
      </trkpt>
      <trkpt lat="50.586642986163497" lon="6.222609998658299">
        <ele>665.35245199999997</ele>
        <time>2016-03-24T11:23:21Z</time>
      </trkpt>
      <trkpt lat="50.585921974852681" lon="6.222656015306711">
        <ele>673.73846000000003</ele>
        <time>2016-03-24T11:22:30Z</time>
      </trkpt>
      <trkpt lat="50.585857015103102" lon="6.222662972286344">
        <ele>674.48500200000001</ele>
        <time>2016-03-24T11:22:27Z</time>
      </trkpt>
      <trkpt lat="50.585795994848013" lon="6.222671018913388">
        <ele>675.18638999999996</ele>
        <time>2016-03-24T11:22:24Z</time>
      </trkpt>
      <trkpt lat="50.585743021219969" lon="6.222656015306711">
        <ele>675.80341799999997</ele>
        <time>2016-03-24T11:22:20Z</time>
      </trkpt>
      <trkpt lat="50.585692981258035" lon="6.22265400364995">
        <ele>676.37652800000001</ele>
        <time>2016-03-24T11:22:17Z</time>
      </trkpt>
      <trkpt lat="50.585640007629991" lon="6.222642017528415">
        <ele>676.99007200000005</ele>
        <time>2016-03-24T11:22:14Z</time>
      </trkpt>
      <trkpt lat="50.585589967668056" lon="6.222630031406879">
        <ele>677.56961100000001</ele>
        <time>2016-03-24T11:22:10Z</time>
      </trkpt>
      <trkpt lat="50.585536994040012" lon="6.222613016143441">
        <ele>678.18937800000003</ele>
        <time>2016-03-24T11:22:06Z</time>
      </trkpt>
      <trkpt lat="50.58548997156322" lon="6.222603963688016">
        <ele>678.73189400000001</ele>
        <time>2016-03-24T11:22:02Z</time>
      </trkpt>
      <trkpt lat="50.585444960743189" lon="6.222584014758468">
        <ele>679.26766399999997</ele>
        <time>2016-03-24T11:21:57Z</time>
      </trkpt>
      <trkpt lat="50.585400033742189" lon="6.222569011151791">
        <ele>679.79471899999999</ele>
        <time>2016-03-24T11:21:53Z</time>
      </trkpt>
      <trkpt lat="50.585345970466733" lon="6.222556019201875">
        <ele>680.42066499999999</ele>
        <time>2016-03-24T11:21:50Z</time>
      </trkpt>
      <trkpt lat="50.585289979353547" lon="6.222551995888352">
        <ele>681.06300099999999</ele>
        <time>2016-03-24T11:21:46Z</time>
      </trkpt>
      <trkpt lat="50.585243040695786" lon="6.222531963139772">
        <ele>681.62086099999999</ele>
        <time>2016-03-24T11:21:43Z</time>
      </trkpt>
      <trkpt lat="50.585194006562233" lon="6.222510002553463">
        <ele>682.20469700000001</ele>
        <time>2016-03-24T11:21:40Z</time>
      </trkpt>
      <trkpt lat="50.585140027105808" lon="6.222465997561812">
        <ele>682.58468900000003</ele>
        <time>2016-03-24T11:21:34Z</time>
      </trkpt>
      <trkpt lat="50.585094010457397" lon="6.222444958984852">
        <ele>682.68395599999997</ele>
        <time>2016-03-24T11:21:27Z</time>
      </trkpt>
      <trkpt lat="50.585044976323843" lon="6.222413023933768">
        <ele>682.793902</ele>
        <time>2016-03-24T11:21:23Z</time>
      </trkpt>
      <trkpt lat="50.584989991039038" lon="6.222401037812233">
        <ele>682.90898700000002</ele>
        <time>2016-03-24T11:21:19Z</time>
      </trkpt>
      <trkpt lat="50.584950009360909" lon="6.222372036427259">
        <ele>683.00025600000004</ele>
        <time>2016-03-24T11:21:15Z</time>
      </trkpt>
      <trkpt lat="50.584899969398975" lon="6.222327025607228">
        <ele>683.11961599999995</ele>
        <time>2016-03-24T11:21:10Z</time>
      </trkpt>
      <trkpt lat="50.584845989942551" lon="6.222306992858648">
        <ele>683.23459300000002</ele>
        <time>2016-03-24T11:21:05Z</time>
      </trkpt>
      <trkpt lat="50.584248024970293" lon="6.221894016489387">
        <ele>684.70135400000004</ele>
        <time>2016-03-24T11:20:07Z</time>
      </trkpt>
      <trkpt lat="50.584212988615036" lon="6.221844982355833">
        <ele>684.79841499999998</ele>
        <time>2016-03-24T11:20:04Z</time>
      </trkpt>
      <trkpt lat="50.584169989451766" lon="6.221798965707421">
        <ele>684.90615500000001</ele>
        <time>2016-03-24T11:20:01Z</time>
      </trkpt>
      <trkpt lat="50.584130007773638" lon="6.22175102122128">
        <ele>685.01038500000004</ele>
        <time>2016-03-24T11:19:58Z</time>
      </trkpt>
      <trkpt lat="50.58409002609551" lon="6.221682960167527">
        <ele>685.13237600000002</ele>
        <time>2016-03-24T11:19:54Z</time>
      </trkpt>
      <trkpt lat="50.584052978083491" lon="6.221641972661018">
        <ele>685.22614499999997</ele>
        <time>2016-03-24T11:19:51Z</time>
      </trkpt>
      <trkpt lat="50.58400696143508" lon="6.221602996811271">
        <ele>685.33442500000001</ele>
        <time>2016-03-24T11:19:48Z</time>
      </trkpt>
      <trkpt lat="50.583958011120558" lon="6.221573995426297">
        <ele>685.44291899999996</ele>
        <time>2016-03-24T11:19:45Z</time>
      </trkpt>
      <trkpt lat="50.583909982815385" lon="6.22153895907104">
        <ele>685.55255299999999</ele>
        <time>2016-03-24T11:19:42Z</time>
      </trkpt>
      <trkpt lat="50.583862038329244" lon="6.221505012363195">
        <ele>685.66164000000003</ele>
        <time>2016-03-24T11:19:39Z</time>
      </trkpt>
      <trkpt lat="50.583800012245774" lon="6.221480034291744">
        <ele>685.79429000000005</ele>
        <time>2016-03-24T11:19:36Z</time>
      </trkpt>
      <trkpt lat="50.582653032615781" lon="6.220384016633034">
        <ele>691.46859199999994</ele>
        <time>2016-03-24T11:18:03Z</time>
      </trkpt>
      <trkpt lat="50.582602992653847" lon="6.220357026904821">
        <ele>691.70594100000005</ele>
        <time>2016-03-24T11:18:00Z</time>
      </trkpt>
      <trkpt lat="50.582557981833816" lon="6.220326013863087">
        <ele>691.92649300000005</ele>
        <time>2016-03-24T11:17:56Z</time>
      </trkpt>
      <trkpt lat="50.582515988498926" lon="6.220278991386294">
        <ele>692.15785000000005</ele>
        <time>2016-03-24T11:17:52Z</time>
      </trkpt>
      <trkpt lat="50.582469971850514" lon="6.220245966687799">
        <ele>692.38482699999997</ele>
        <time>2016-03-24T11:17:48Z</time>
      </trkpt>
      <trkpt lat="50.582420015707612" lon="6.220224006101489">
        <ele>692.61794199999997</ele>
        <time>2016-03-24T11:17:45Z</time>
      </trkpt>
      <trkpt lat="50.582375004887581" lon="6.220193998888135">
        <ele>692.83736699999997</ele>
        <time>2016-03-24T11:17:40Z</time>
      </trkpt>
      <trkpt lat="50.582320019602776" lon="6.220171032473445">
        <ele>693.092895</ele>
        <time>2016-03-24T11:17:36Z</time>
      </trkpt>
      <trkpt lat="50.582280037924647" lon="6.22014001943171">
        <ele>693.29307900000003</ele>
        <time>2016-03-24T11:17:32Z</time>
      </trkpt>
      <trkpt lat="50.582225974649191" lon="6.220109006389976">
        <ele>693.55116599999997</ele>
        <time>2016-03-24T11:17:28Z</time>
      </trkpt>
      <trkpt lat="50.582176018506289" lon="6.220062989741564">
        <ele>693.81118600000002</ele>
        <time>2016-03-24T11:17:24Z</time>
      </trkpt>
      <trkpt lat="50.582122961059213" lon="6.220025019720197">
        <ele>694.072677</ele>
        <time>2016-03-24T11:17:20Z</time>
      </trkpt>
      <trkpt lat="50.582077028229833" lon="6.219985038042069">
        <ele>694.308628</ele>
        <time>2016-03-24T11:17:16Z</time>
      </trkpt>
      <trkpt lat="50.582023970782757" lon="6.219954025000334">
        <ele>694.27646300000004</ele>
        <time>2016-03-24T11:17:12Z</time>
      </trkpt>
      <trkpt lat="50.581974014639854" lon="6.219900967553258">
        <ele>694.22880799999996</ele>
        <time>2016-03-24T11:17:07Z</time>
      </trkpt>
      <trkpt lat="50.581935960799456" lon="6.219853023067117">
        <ele>694.190291</ele>
        <time>2016-03-24T11:17:03Z</time>
      </trkpt>
      <trkpt lat="50.581886004656553" lon="6.21981798671186">
        <ele>694.14702699999998</ele>
        <time>2016-03-24T11:16:58Z</time>
      </trkpt>
      <trkpt lat="50.581839988008142" lon="6.219804994761944">
        <ele>694.11007400000005</ele>
        <time>2016-03-24T11:16:53Z</time>
      </trkpt>
      <trkpt lat="50.581802017986774" lon="6.219765013083816">
        <ele>694.07393400000001</ele>
        <time>2016-03-24T11:16:49Z</time>
      </trkpt>
      <trkpt lat="50.581745021045208" lon="6.219738023355603">
        <ele>694.02687100000003</ele>
        <time>2016-03-24T11:16:46Z</time>
      </trkpt>
      <trkpt lat="50.581684000790119" lon="6.219703992828727">
        <ele>693.97570700000006</ele>
        <time>2016-03-24T11:16:43Z</time>
      </trkpt>
      <trkpt lat="50.581646030768752" lon="6.219659987837076">
        <ele>693.93841299999997</ele>
        <time>2016-03-24T11:16:40Z</time>
      </trkpt>
      <trkpt lat="50.581607976928353" lon="6.219608020037413">
        <ele>693.89860899999996</ele>
        <time>2016-03-24T11:16:37Z</time>
      </trkpt>
      <trkpt lat="50.581573024392128" lon="6.219544988125563">
        <ele>693.85658100000001</ele>
        <time>2016-03-24T11:16:34Z</time>
      </trkpt>
      <trkpt lat="50.581539999693632" lon="6.219491008669138">
        <ele>693.81895299999996</ele>
        <time>2016-03-24T11:16:31Z</time>
      </trkpt>
      <trkpt lat="50.581500018015504" lon="6.219448009505868">
        <ele>693.78065900000001</ele>
        <time>2016-03-24T11:16:28Z</time>
      </trkpt>
      <trkpt lat="50.581447966396809" lon="6.219415990635753">
        <ele>693.73651600000005</ele>
        <time>2016-03-24T11:16:25Z</time>
      </trkpt>
      <trkpt lat="50.581405973061919" lon="6.219358993694186">
        <ele>693.692677</ele>
        <time>2016-03-24T11:16:21Z</time>
      </trkpt>
      <trkpt lat="50.581366997212172" lon="6.219299985095859">
        <ele>693.64991699999996</ele>
        <time>2016-03-24T11:16:16Z</time>
      </trkpt>
      <trkpt lat="50.581326009705663" lon="6.219242988154292">
        <ele>693.606674</ele>
        <time>2016-03-24T11:16:12Z</time>
      </trkpt>
      <trkpt lat="50.581287033855915" lon="6.219207029789686">
        <ele>693.57093099999997</ele>
        <time>2016-03-24T11:16:09Z</time>
      </trkpt>
      <trkpt lat="50.581245040521026" lon="6.219161013141275">
        <ele>693.53048000000001</ele>
        <time>2016-03-24T11:16:06Z</time>
      </trkpt>
      <trkpt lat="50.581200029700994" lon="6.219126982614398">
        <ele>693.49101599999995</ele>
        <time>2016-03-24T11:16:03Z</time>
      </trkpt>
      <trkpt lat="50.581158036366105" lon="6.219070991501212">
        <ele>693.44750299999998</ele>
        <time>2016-03-24T11:15:59Z</time>
      </trkpt>
      <trkpt lat="50.581130040809512" lon="6.219007959589362">
        <ele>693.40889400000003</ele>
        <time>2016-03-24T11:15:55Z</time>
      </trkpt>
      <trkpt lat="50.581092992797494" lon="6.218949034810066">
        <ele>693.36726099999998</ele>
        <time>2016-03-24T11:15:51Z</time>
      </trkpt>
      <trkpt lat="50.581077989190817" lon="6.218862030655146">
        <ele>693.32199800000001</ele>
        <time>2016-03-24T11:15:47Z</time>
      </trkpt>
      <trkpt lat="50.581055022776127" lon="6.218798998743296">
        <ele>693.28551200000004</ele>
        <time>2016-03-24T11:15:44Z</time>
      </trkpt>
      <trkpt lat="50.581004982814193" lon="6.218746025115252">
        <ele>693.23785599999997</ele>
        <time>2016-03-24T11:15:41Z</time>
      </trkpt>
      <trkpt lat="50.580799961462617" lon="6.218014033511281">
        <ele>694.53632000000005</ele>
        <time>2016-03-24T11:15:01Z</time>
      </trkpt>
      <trkpt lat="50.580813959240913" lon="6.217937003821135">
        <ele>694.93942000000004</ele>
        <time>2016-03-24T11:14:57Z</time>
      </trkpt>
      <trkpt lat="50.580771965906024" lon="6.217876989394426">
        <ele>695.38886200000002</ele>
        <time>2016-03-24T11:14:54Z</time>
      </trkpt>
      <trkpt lat="50.580733995884657" lon="6.217833990231156">
        <ele>695.75973199999999</ele>
        <time>2016-03-24T11:14:51Z</time>
      </trkpt>
      <trkpt lat="50.580710023641586" lon="6.217766012996435">
        <ele>696.15127600000005</ele>
        <time>2016-03-24T11:14:49Z</time>
      </trkpt>
      <trkpt lat="50.580672975629568" lon="6.217697029933333">
        <ele>696.60580000000004</ele>
        <time>2016-03-24T11:14:46Z</time>
      </trkpt>
      <trkpt lat="50.5806540325284" lon="6.217630980536342">
        <ele>696.97050899999999</ele>
        <time>2016-03-24T11:14:43Z</time>
      </trkpt>
      <trkpt lat="50.580612039193511" lon="6.217593010514975">
        <ele>697.354421</ele>
        <time>2016-03-24T11:14:40Z</time>
      </trkpt>
      <trkpt lat="50.580566022545099" lon="6.217552023008466">
        <ele>697.77335200000005</ele>
        <time>2016-03-24T11:14:37Z</time>
      </trkpt>
      <trkpt lat="50.58052402921021" lon="6.217493014410138">
        <ele>698.21942899999999</ele>
        <time>2016-03-24T11:14:33Z</time>
      </trkpt>
      <trkpt lat="50.579913994297385" lon="6.216588020324707">
        <ele>704.98630700000001</ele>
        <time>2016-03-24T11:13:34Z</time>
      </trkpt>
      <trkpt lat="50.579879963770509" lon="6.216519959270954">
        <ele>705.42190600000004</ele>
        <time>2016-03-24T11:13:30Z</time>
      </trkpt>
      <trkpt lat="50.579834030941129" lon="6.216461034491658">
        <ele>705.89211799999998</ele>
        <time>2016-03-24T11:13:27Z</time>
      </trkpt>
      <trkpt lat="50.579783990979195" lon="6.216412000358105">
        <ele>706.358878</ele>
        <time>2016-03-24T11:13:24Z</time>
      </trkpt>
      <trkpt lat="50.579739985987544" lon="6.216364977881312">
        <ele>706.78027199999997</ele>
        <time>2016-03-24T11:13:20Z</time>
      </trkpt>
      <trkpt lat="50.579696986824274" lon="6.216319967061281">
        <ele>707.15061500000002</ele>
        <time>2016-03-24T11:13:16Z</time>
      </trkpt>
      <trkpt lat="50.579662034288049" lon="6.216270010918379">
        <ele>707.12754399999994</ele>
        <time>2016-03-24T11:13:13Z</time>
      </trkpt>
      <trkpt lat="50.579620040953159" lon="6.216243021190167">
        <ele>707.10539500000004</ele>
        <time>2016-03-24T11:13:10Z</time>
      </trkpt>
      <trkpt lat="50.579227013513446" lon="6.21534900739789">
        <ele>706.742256</ele>
        <time>2016-03-24T11:12:15Z</time>
      </trkpt>
      <trkpt lat="50.579216033220291" lon="6.215264014899731">
        <ele>706.71536100000003</ele>
        <time>2016-03-24T11:12:12Z</time>
      </trkpt>
      <trkpt lat="50.579192982986569" lon="6.215186985209584">
        <ele>706.68897900000002</ele>
        <time>2016-03-24T11:12:10Z</time>
      </trkpt>
      <trkpt lat="50.579149983823299" lon="6.21513300575316">
        <ele>706.66212700000005</ele>
        <time>2016-03-24T11:12:08Z</time>
      </trkpt>
      <trkpt lat="50.578712029382586" lon="6.214290959760547">
        <ele>706.31489299999998</ele>
        <time>2016-03-24T11:11:12Z</time>
      </trkpt>
      <trkpt lat="50.578682022169232" lon="6.21423002332449">
        <ele>706.29097200000001</ele>
        <time>2016-03-24T11:11:08Z</time>
      </trkpt>
      <trkpt lat="50.578640028834343" lon="6.2141880299896">
        <ele>706.25212399999998</ele>
        <time>2016-03-24T11:11:05Z</time>
      </trkpt>
      <trkpt lat="50.578598035499454" lon="6.214138995856047">
        <ele>706.18035499999996</ele>
        <time>2016-03-24T11:11:03Z</time>
      </trkpt>
      <trkpt lat="50.578148011118174" lon="6.213432988151908">
        <ele>705.29494199999999</ele>
        <time>2016-03-24T11:10:12Z</time>
      </trkpt>
      <trkpt lat="50.578113980591297" lon="6.213382026180625">
        <ele>705.23046899999997</ele>
        <time>2016-03-24T11:10:08Z</time>
      </trkpt>
      <trkpt lat="50.578060001134872" lon="6.213345983996987">
        <ele>705.14995499999998</ele>
        <time>2016-03-24T11:10:05Z</time>
      </trkpt>
      <trkpt lat="50.578009961172938" lon="6.213304996490479">
        <ele>705.07255399999997</ele>
        <time>2016-03-24T11:10:02Z</time>
      </trkpt>
      <trkpt lat="50.577965034171939" lon="6.213267026469111">
        <ele>705.00244499999997</ele>
        <time>2016-03-24T11:09:59Z</time>
      </trkpt>
      <trkpt lat="50.57792698033154" lon="6.213214974850416">
        <ele>704.93332199999998</ele>
        <time>2016-03-24T11:09:55Z</time>
      </trkpt>
      <trkpt lat="50.577884986996651" lon="6.213181028142571">
        <ele>704.86848099999997</ele>
        <time>2016-03-24T11:09:51Z</time>
      </trkpt>
      <trkpt lat="50.57783997617662" lon="6.213145991787314">
        <ele>704.79957000000002</ele>
        <time>2016-03-24T11:09:47Z</time>
      </trkpt>
      <trkpt lat="50.577784990891814" lon="6.213119002059102">
        <ele>704.72046899999998</ele>
        <time>2016-03-24T11:09:41Z</time>
      </trkpt>
      <trkpt lat="50.577750038355589" lon="6.213073991239071">
        <ele>704.65842899999996</ele>
        <time>2016-03-24T11:09:37Z</time>
      </trkpt>
      <trkpt lat="50.577712990343571" lon="6.213024035096169">
        <ele>704.59148600000003</ele>
        <time>2016-03-24T11:09:33Z</time>
      </trkpt>
      <trkpt lat="50.577609976753592" lon="6.212905012071133">
        <ele>704.41608399999996</ele>
        <time>2016-03-24T11:08:21Z</time>
      </trkpt>
      <trkpt lat="50.577620035037398" lon="6.212838040664792">
        <ele>704.35607300000004</ele>
        <time>2016-03-24T11:08:18Z</time>
      </trkpt>
      <trkpt lat="50.577639983966947" lon="6.212766962125897">
        <ele>704.28835000000004</ele>
        <time>2016-03-24T11:08:15Z</time>
      </trkpt>
      <trkpt lat="50.577679965645075" lon="6.212711976841092">
        <ele>704.21543799999995</ele>
        <time>2016-03-24T11:08:11Z</time>
      </trkpt>
      <trkpt lat="50.577705027535558" lon="6.212650034576654">
        <ele>704.15140199999996</ele>
        <time>2016-03-24T11:08:08Z</time>
      </trkpt>
      <trkpt lat="50.577744003385305" lon="6.212584991008043">
        <ele>704.07343200000003</ele>
        <time>2016-03-24T11:08:04Z</time>
      </trkpt>
      <trkpt lat="50.57777401059866" lon="6.212504021823406">
        <ele>703.99167199999999</ele>
        <time>2016-03-24T11:08:00Z</time>
      </trkpt>
      <trkpt lat="50.577793037518859" lon="6.212434032931924">
        <ele>703.925297</ele>
        <time>2016-03-24T11:07:56Z</time>
      </trkpt>
      <trkpt lat="50.577835030853748" lon="6.212107976898551">
        <ele>703.76727800000003</ele>
        <time>2016-03-24T11:07:39Z</time>
      </trkpt>
      <trkpt lat="50.577842993661761" lon="6.212035976350308">
        <ele>703.75332200000003</ele>
        <time>2016-03-24T11:07:35Z</time>
      </trkpt>
      <trkpt lat="50.577809968963265" lon="6.211988031864166">
        <ele>703.73981400000002</ele>
        <time>2016-03-24T11:07:31Z</time>
      </trkpt>
      <trkpt lat="50.57777401059866" lon="6.211937991902232">
        <ele>703.72538199999997</ele>
        <time>2016-03-24T11:07:28Z</time>
      </trkpt>
      <trkpt lat="50.577739980071783" lon="6.211870014667511">
        <ele>703.70885599999997</ele>
        <time>2016-03-24T11:07:24Z</time>
      </trkpt>
      <trkpt lat="50.577699998393655" lon="6.211816035211086">
        <ele>703.69301399999995</ele>
        <time>2016-03-24T11:07:20Z</time>
      </trkpt>
      <trkpt lat="50.577618023380637" lon="6.211655018851161">
        <ele>703.65072299999997</ele>
        <time>2016-03-24T11:07:09Z</time>
      </trkpt>
      <trkpt lat="50.577567983418703" lon="6.211498025804758">
        <ele>703.61716100000001</ele>
        <time>2016-03-24T11:07:04Z</time>
      </trkpt>
      <trkpt lat="50.576789975166321" lon="6.209406992420554">
        <ele>701.05764499999998</ele>
        <time>2016-03-24T11:04:45Z</time>
      </trkpt>
      <trkpt lat="50.576782012358308" lon="6.209335997700691">
        <ele>700.83536500000002</ele>
        <time>2016-03-24T11:04:41Z</time>
      </trkpt>
      <trkpt lat="50.57678603567183" lon="6.209255028516054">
        <ele>700.584923</ele>
        <time>2016-03-24T11:04:38Z</time>
      </trkpt>
      <trkpt lat="50.576749993488193" lon="6.209194008260965">
        <ele>700.32822399999998</ele>
        <time>2016-03-24T11:04:34Z</time>
      </trkpt>
      <trkpt lat="50.576719986274838" lon="6.209122007712722">
        <ele>700.062771</ele>
        <time>2016-03-24T11:04:30Z</time>
      </trkpt>
      <trkpt lat="50.576519994065166" lon="6.208606017753482">
        <ele>698.00227500000005</ele>
        <time>2016-03-24T11:04:00Z</time>
      </trkpt>
      <trkpt lat="50.576466014608741" lon="6.208573998883367">
        <ele>697.72220700000003</ele>
        <time>2016-03-24T11:03:58Z</time>
      </trkpt>
      <trkpt lat="50.57622998021543" lon="6.208025990054011">
        <ele>695.51098200000001</ele>
        <time>2016-03-24T11:03:29Z</time>
      </trkpt>
      <trkpt lat="50.576156973838806" lon="6.207604967057705">
        <ele>694.15132100000005</ele>
        <time>2016-03-24T11:03:05Z</time>
      </trkpt>
      <trkpt lat="50.576153034344316" lon="6.207518968731165">
        <ele>693.98436100000004</ele>
        <time>2016-03-24T11:03:00Z</time>
      </trkpt>
      <trkpt lat="50.576150016859174" lon="6.20744202286005">
        <ele>693.83499300000005</ele>
        <time>2016-03-24T11:02:55Z</time>
      </trkpt>
      <trkpt lat="50.576134007424116" lon="6.207360969856381">
        <ele>693.670748</ele>
        <time>2016-03-24T11:02:50Z</time>
      </trkpt>
      <trkpt lat="50.57612000964582" lon="6.207287963479757">
        <ele>693.5231</ele>
        <time>2016-03-24T11:02:47Z</time>
      </trkpt>
      <trkpt lat="50.57612000964582" lon="6.207214035093784">
        <ele>693.37982099999999</ele>
        <time>2016-03-24T11:02:45Z</time>
      </trkpt>
      <trkpt lat="50.576110035181046" lon="6.207114960998297">
        <ele>693.18572600000005</ele>
        <time>2016-03-24T11:02:43Z</time>
      </trkpt>
      <trkpt lat="50.576252778992057" lon="6.206287164241076">
        <ele>692.16509499999995</ele>
        <time>2016-03-24T11:02:25Z</time>
      </trkpt>
      <trkpt lat="50.5759949516505" lon="6.20622681453824">
        <ele>692.01769899999999</ele>
        <time>2016-03-24T11:02:23Z</time>
      </trkpt>
      <trkpt lat="50.575782973319292" lon="6.20617501437664">
        <ele>691.00859200000002</ele>
        <time>2016-03-24T11:02:02Z</time>
      </trkpt>
      <trkpt lat="50.575737040489912" lon="6.206142995506525">
        <ele>690.85526600000003</ele>
        <time>2016-03-24T11:01:59Z</time>
      </trkpt>
      <trkpt lat="50.57569001801312" lon="6.206125980243087">
        <ele>690.70823600000006</ele>
        <time>2016-03-24T11:01:52Z</time>
      </trkpt>
      <trkpt lat="50.575348036363721" lon="6.206104019656777">
        <ele>689.60638500000005</ele>
        <time>2016-03-24T11:01:18Z</time>
      </trkpt>
      <trkpt lat="50.575293973088264" lon="6.206080969423056">
        <ele>689.43582800000001</ele>
        <time>2016-03-24T11:01:15Z</time>
      </trkpt>
      <trkpt lat="50.575236976146698" lon="6.206053979694843">
        <ele>689.25434800000005</ele>
        <time>2016-03-24T11:01:11Z</time>
      </trkpt>
      <trkpt lat="50.574931958690286" lon="6.206006035208702">
        <ele>689.52798099999995</ele>
        <time>2016-03-24T11:00:31Z</time>
      </trkpt>
      <trkpt lat="50.574923995882273" lon="6.206077029928565">
        <ele>689.61948700000005</ele>
        <time>2016-03-24T11:00:28Z</time>
      </trkpt>
      <trkpt lat="50.574904968962073" lon="6.206150958314538">
        <ele>689.720778</ele>
        <time>2016-03-24T11:00:25Z</time>
      </trkpt>
      <trkpt lat="50.574870016425848" lon="6.206223964691162">
        <ele>689.83685100000002</ele>
        <time>2016-03-24T11:00:21Z</time>
      </trkpt>
      <trkpt lat="50.574849983677268" lon="6.206285990774632">
        <ele>689.92509700000005</ele>
        <time>2016-03-24T11:00:18Z</time>
      </trkpt>
      <trkpt lat="50.574825005605817" lon="6.20636897161603">
        <ele>690.04167099999995</ele>
        <time>2016-03-24T11:00:14Z</time>
      </trkpt>
      <trkpt lat="50.574794998392463" lon="6.206423034891486">
        <ele>690.13271799999995</ele>
        <time>2016-03-24T11:00:10Z</time>
      </trkpt>
      <trkpt lat="50.574757028371096" lon="6.206479026004672">
        <ele>690.236717</ele>
        <time>2016-03-24T11:00:06Z</time>
      </trkpt>
      <trkpt lat="50.574719980359077" lon="6.206525964662433">
        <ele>690.33170900000005</ele>
        <time>2016-03-24T11:00:02Z</time>
      </trkpt>
      <trkpt lat="50.574684021994472" lon="6.206570975482464">
        <ele>690.42355599999996</ele>
        <time>2016-03-24T10:59:58Z</time>
      </trkpt>
      <trkpt lat="50.574657032266259" lon="6.206640964373946">
        <ele>690.52748699999995</ele>
        <time>2016-03-24T10:59:53Z</time>
      </trkpt>
      <trkpt lat="50.57461503893137" lon="6.206662002950907">
        <ele>690.615542</ele>
        <time>2016-03-24T10:59:49Z</time>
      </trkpt>
      <trkpt lat="50.574561981484294" lon="6.206656973809004">
        <ele>690.72163699999999</ele>
        <time>2016-03-24T10:59:45Z</time>
      </trkpt>
      <trkpt lat="50.574512025341392" lon="6.206629984080792">
        <ele>690.82726000000002</ele>
        <time>2016-03-24T10:59:41Z</time>
      </trkpt>
      <trkpt lat="50.57446701452136" lon="6.206591008231044">
        <ele>690.92989999999998</ele>
        <time>2016-03-24T10:59:38Z</time>
      </trkpt>
      <trkpt lat="50.574410017579794" lon="6.206566030159593">
        <ele>691.048134</ele>
        <time>2016-03-24T10:59:35Z</time>
      </trkpt>
      <trkpt lat="50.574356038123369" lon="6.206553960219026">
        <ele>691.157107</ele>
        <time>2016-03-24T10:59:31Z</time>
      </trkpt>
      <trkpt lat="50.574305998161435" lon="6.206520013511181">
        <ele>691.26593600000001</ele>
        <time>2016-03-24T10:59:26Z</time>
      </trkpt>
      <trkpt lat="50.574270039796829" lon="6.206465028226376">
        <ele>691.36616800000002</ele>
        <time>2016-03-24T10:59:21Z</time>
      </trkpt>
      <trkpt lat="50.574226034805179" lon="6.206424040719867">
        <ele>691.46833100000003</ele>
        <time>2016-03-24T10:59:16Z</time>
      </trkpt>
      <trkpt lat="50.574172977358103" lon="6.20640903711319">
        <ele>691.57593299999996</ele>
        <time>2016-03-24T10:59:12Z</time>
      </trkpt>
      <trkpt lat="50.574120003730059" lon="6.206391016021371">
        <ele>691.68427399999996</ele>
        <time>2016-03-24T10:59:09Z</time>
      </trkpt>
      <trkpt lat="50.573776010423899" lon="6.206102008000016">
        <ele>692.47994800000004</ele>
        <time>2016-03-24T10:58:41Z</time>
      </trkpt>
      <trkpt lat="50.573512986302376" lon="6.206121034920216">
        <ele>692.20453799999996</ele>
        <time>2016-03-24T10:57:39Z</time>
      </trkpt>
      <trkpt lat="50.573444003239274" lon="6.206124974414706">
        <ele>692.03728999999998</ele>
        <time>2016-03-24T10:57:36Z</time>
      </trkpt>
      <trkpt lat="50.573288016021252" lon="6.206159004941583">
        <ele>691.63647900000001</ele>
        <time>2016-03-24T10:57:26Z</time>
      </trkpt>
      <trkpt lat="50.573249962180853" lon="6.206193035468459">
        <ele>691.53061100000002</ele>
        <time>2016-03-24T10:57:23Z</time>
      </trkpt>
      <trkpt lat="50.573195982724428" lon="6.206228993833065">
        <ele>691.38856999999996</ele>
        <time>2016-03-24T10:57:20Z</time>
      </trkpt>
      <trkpt lat="50.573139991611242" lon="6.2062409799546">
        <ele>691.25167399999998</ele>
        <time>2016-03-24T10:57:17Z</time>
      </trkpt>
      <trkpt lat="50.573086012154818" lon="6.206252966076136">
        <ele>691.11957700000005</ele>
        <time>2016-03-24T10:57:14Z</time>
      </trkpt>
      <trkpt lat="50.572878140956163" lon="6.205875864252448">
        <ele>690.49771099999998</ele>
        <time>2016-03-24T10:56:56Z</time>
      </trkpt>
      <trkpt lat="50.572600029408932" lon="6.205838983878493">
        <ele>689.71015499999999</ele>
        <time>2016-03-24T10:56:37Z</time>
      </trkpt>
      <trkpt lat="50.572556024417281" lon="6.205800008028746">
        <ele>689.58785</ele>
        <time>2016-03-24T10:56:34Z</time>
      </trkpt>
      <trkpt lat="50.572505984455347" lon="6.205776035785675">
        <ele>689.46123499999999</ele>
        <time>2016-03-24T10:56:24Z</time>
      </trkpt>
      <trkpt lat="50.572456028312445" lon="6.205773018300533">
        <ele>689.34003600000005</ele>
        <time>2016-03-24T10:56:13Z</time>
      </trkpt>
      <trkpt lat="50.572414034977555" lon="6.205807970836759">
        <ele>689.22493199999997</ele>
        <time>2016-03-24T10:56:06Z</time>
      </trkpt>
      <trkpt lat="50.572359971702099" lon="6.205815011635423">
        <ele>689.09368900000004</ele>
        <time>2016-03-24T10:56:03Z</time>
      </trkpt>
      <trkpt lat="50.572310015559196" lon="6.205812999978662">
        <ele>688.97253799999999</ele>
        <time>2016-03-24T10:56:00Z</time>
      </trkpt>
      <trkpt lat="50.572266010567546" lon="6.205801013857126">
        <ele>688.864372</ele>
        <time>2016-03-24T10:55:55Z</time>
      </trkpt>
      <trkpt lat="50.57221001945436" lon="6.205805959179997">
        <ele>688.72850900000003</ele>
        <time>2016-03-24T10:55:52Z</time>
      </trkpt>
      <trkpt lat="50.572150005027652" lon="6.205802019685507">
        <ele>688.58304499999997</ele>
        <time>2016-03-24T10:55:48Z</time>
      </trkpt>
      <trkpt lat="50.572099965065718" lon="6.205802019685507">
        <ele>688.46193300000004</ele>
        <time>2016-03-24T10:55:45Z</time>
      </trkpt>
      <trkpt lat="50.572055960074067" lon="6.205765977501869">
        <ele>688.34182399999997</ele>
        <time>2016-03-24T10:55:41Z</time>
      </trkpt>
      <trkpt lat="50.571959987282753" lon="6.205750973895192">
        <ele>687.88714400000003</ele>
        <time>2016-03-24T10:55:33Z</time>
      </trkpt>
      <trkpt lat="50.571907013654709" lon="6.205777041614056">
        <ele>687.61885199999995</ele>
        <time>2016-03-24T10:55:29Z</time>
      </trkpt>
      <trkpt lat="50.571850016713142" lon="6.205783998593688">
        <ele>687.342534</ele>
        <time>2016-03-24T10:55:26Z</time>
      </trkpt>
      <trkpt lat="50.571799976751208" lon="6.205764971673489">
        <ele>687.09394699999996</ele>
        <time>2016-03-24T10:55:21Z</time>
      </trkpt>
      <trkpt lat="50.571753960102797" lon="6.205740999430418">
        <ele>686.85974199999998</ele>
        <time>2016-03-24T10:55:17Z</time>
      </trkpt>
      <trkpt lat="50.571711966767907" lon="6.205695988610387">
        <ele>686.61421800000005</ele>
        <time>2016-03-24T10:55:11Z</time>
      </trkpt>
      <trkpt lat="50.571667039766908" lon="6.205655001103878">
        <ele>686.36294599999997</ele>
        <time>2016-03-24T10:55:06Z</time>
      </trkpt>
      <trkpt lat="50.571624962612987" lon="6.20561602525413">
        <ele>686.12729000000002</ele>
        <time>2016-03-24T10:55:02Z</time>
      </trkpt>
      <trkpt lat="50.571586992591619" lon="6.205580988898873">
        <ele>685.91452200000003</ele>
        <time>2016-03-24T10:54:59Z</time>
      </trkpt>
      <trkpt lat="50.571529995650053" lon="6.205555004999042">
        <ele>685.62771399999997</ele>
        <time>2016-03-24T10:54:55Z</time>
      </trkpt>
      <trkpt lat="50.571480039507151" lon="6.205518040806055">
        <ele>685.36070700000005</ele>
        <time>2016-03-24T10:54:51Z</time>
      </trkpt>
      <trkpt lat="50.571425976231694" lon="6.205503959208727">
        <ele>685.09621100000004</ele>
        <time>2016-03-24T10:54:48Z</time>
      </trkpt>
      <trkpt lat="50.571369985118508" lon="6.205488033592701">
        <ele>684.821144</ele>
        <time>2016-03-24T10:54:45Z</time>
      </trkpt>
      <trkpt lat="50.571320028975606" lon="6.205456014722586">
        <ele>684.560294</ele>
        <time>2016-03-24T10:54:42Z</time>
      </trkpt>
      <trkpt lat="50.571033032611012" lon="6.205218974500895">
        <ele>682.89576099999999</ele>
        <time>2016-03-24T10:54:11Z</time>
      </trkpt>
      <trkpt lat="50.570988021790981" lon="6.205216962844133">
        <ele>682.67818999999997</ele>
        <time>2016-03-24T10:54:08Z</time>
      </trkpt>
      <trkpt lat="50.570927001535892" lon="6.20518796145916">
        <ele>682.37023199999999</ele>
        <time>2016-03-24T10:54:05Z</time>
      </trkpt>
      <trkpt lat="50.570885008201003" lon="6.20516600087285">
        <ele>682.15630799999997</ele>
        <time>2016-03-24T10:54:03Z</time>
      </trkpt>
      <trkpt lat="50.570827005431056" lon="6.205134987831116">
        <ele>681.86028399999998</ele>
        <time>2016-03-24T10:54:00Z</time>
      </trkpt>
      <trkpt lat="50.570786017924547" lon="6.20512300170958">
        <ele>681.65873699999997</ele>
        <time>2016-03-24T10:53:58Z</time>
      </trkpt>
      <trkpt lat="50.570719968527555" lon="6.205113027244806">
        <ele>681.33828600000004</ele>
        <time>2016-03-24T10:53:55Z</time>
      </trkpt>
      <trkpt lat="50.570662971585989" lon="6.205114033073187">
        <ele>681.06278799999995</ele>
        <time>2016-03-24T10:53:50Z</time>
      </trkpt>
      <trkpt lat="50.570609997957945" lon="6.205095006152988">
        <ele>680.80008399999997</ele>
        <time>2016-03-24T10:53:43Z</time>
      </trkpt>
      <trkpt lat="50.570563981309533" lon="6.205097017809749">
        <ele>680.57768199999998</ele>
        <time>2016-03-24T10:53:39Z</time>
      </trkpt>
      <trkpt lat="50.570515030995011" lon="6.205094000324607">
        <ele>680.340687</ele>
        <time>2016-03-24T10:53:36Z</time>
      </trkpt>
      <trkpt lat="50.570459961891174" lon="6.205094000324607">
        <ele>680.07487200000003</ele>
        <time>2016-03-24T10:53:32Z</time>
      </trkpt>
      <trkpt lat="50.570407994091511" lon="6.20510196313262">
        <ele>679.82236</ele>
        <time>2016-03-24T10:53:27Z</time>
      </trkpt>
      <trkpt lat="50.570361977443099" lon="6.20507899671793">
        <ele>679.59018000000003</ele>
        <time>2016-03-24T10:53:22Z</time>
      </trkpt>
      <trkpt lat="50.570313027128577" lon="6.205062987282872">
        <ele>679.39984400000003</ele>
        <time>2016-03-24T10:53:19Z</time>
      </trkpt>
      <trkpt lat="50.570270027965307" lon="6.205033985897899">
        <ele>679.22192299999995</ele>
        <time>2016-03-24T10:53:16Z</time>
      </trkpt>
      <trkpt lat="50.570235997438431" lon="6.204986963421106">
        <ele>679.04983600000003</ele>
        <time>2016-03-24T10:53:13Z</time>
      </trkpt>
      <trkpt lat="50.570205990225077" lon="6.20492803864181">
        <ele>678.86726199999998</ele>
        <time>2016-03-24T10:53:10Z</time>
      </trkpt>
      <trkpt lat="50.570056959986687" lon="6.204750007018447">
        <ele>678.10029199999997</ele>
        <time>2016-03-24T10:52:58Z</time>
      </trkpt>
      <trkpt lat="50.570003986358643" lon="6.204742966219783">
        <ele>677.89800100000002</ele>
        <time>2016-03-24T10:52:55Z</time>
      </trkpt>
      <trkpt lat="50.569941960275173" lon="6.20471203699708">
        <ele>677.65058099999999</ele>
        <time>2016-03-24T10:52:52Z</time>
      </trkpt>
      <trkpt lat="50.569897033274174" lon="6.204665014520288">
        <ele>677.44519000000003</ele>
        <time>2016-03-24T10:52:48Z</time>
      </trkpt>
      <trkpt lat="50.569759989157319" lon="6.204610029235482">
        <ele>676.86520800000005</ele>
        <time>2016-03-24T10:52:35Z</time>
      </trkpt>
      <trkpt lat="50.569005785509944" lon="6.203660191968083">
        <ele>672.52407800000003</ele>
        <time>2016-03-24T10:51:14Z</time>
      </trkpt>
      <trkpt lat="50.568781234323978" lon="6.203559441491962">
        <ele>672.36983599999996</ele>
        <time>2016-03-24T10:51:10Z</time>
      </trkpt>
      <trkpt lat="50.568749802187085" lon="6.203530691564083">
        <ele>672.24045599999999</ele>
        <time>2016-03-24T10:51:05Z</time>
      </trkpt>
      <trkpt lat="50.56870998814702" lon="6.203576037660241">
        <ele>672.07656099999997</ele>
        <time>2016-03-24T10:51:01Z</time>
      </trkpt>
      <trkpt lat="50.568670006468892" lon="6.203538989648223">
        <ele>671.93631400000004</ele>
        <time>2016-03-24T10:50:58Z</time>
      </trkpt>
      <trkpt lat="50.568609992042184" lon="6.203529015183449">
        <ele>671.753919</ele>
        <time>2016-03-24T10:50:54Z</time>
      </trkpt>
      <trkpt lat="50.568570010364056" lon="6.203556004911661">
        <ele>671.62235299999998</ele>
        <time>2016-03-24T10:50:50Z</time>
      </trkpt>
      <trkpt lat="50.568519970402122" lon="6.203597998246551">
        <ele>671.45103400000005</ele>
        <time>2016-03-24T10:50:45Z</time>
      </trkpt>
      <trkpt lat="50.568489963188767" lon="6.203650971874595">
        <ele>671.31472199999996</ele>
        <time>2016-03-24T10:50:42Z</time>
      </trkpt>
      <trkpt lat="50.568460039794445" lon="6.203717021271586">
        <ele>671.15888800000005</ele>
        <time>2016-03-24T10:50:39Z</time>
      </trkpt>
      <trkpt lat="50.568446964025497" lon="6.203788015991449">
        <ele>671.01701000000003</ele>
        <time>2016-03-24T10:50:36Z</time>
      </trkpt>
      <trkpt lat="50.568443024531007" lon="6.203862028196454">
        <ele>670.87440900000001</ele>
        <time>2016-03-24T10:50:33Z</time>
      </trkpt>
      <trkpt lat="50.568446964025497" lon="6.20396101847291">
        <ele>670.68393500000002</ele>
        <time>2016-03-24T10:50:30Z</time>
      </trkpt>
      <trkpt lat="50.568449981510639" lon="6.204036958515644">
        <ele>670.53772700000002</ele>
        <time>2016-03-24T10:50:21Z</time>
      </trkpt>
      <trkpt lat="50.568460039794445" lon="6.204124968498945">
        <ele>670.36607500000002</ele>
        <time>2016-03-24T10:50:18Z</time>
      </trkpt>
      <trkpt lat="50.568465990945697" lon="6.20421901345253">
        <ele>670.18467699999997</ele>
        <time>2016-03-24T10:50:15Z</time>
      </trkpt>
      <trkpt lat="50.568477977067232" lon="6.204314986243844">
        <ele>669.99681299999997</ele>
        <time>2016-03-24T10:50:12Z</time>
      </trkpt>
      <trkpt lat="50.568492980673909" lon="6.204410037025809">
        <ele>669.808852</ele>
        <time>2016-03-24T10:50:09Z</time>
      </trkpt>
      <trkpt lat="50.568512007594109" lon="6.204501986503601">
        <ele>669.62310000000002</ele>
        <time>2016-03-24T10:50:05Z</time>
      </trkpt>
      <trkpt lat="50.568527011200786" lon="6.204586979001761">
        <ele>669.45371</ele>
        <time>2016-03-24T10:50:01Z</time>
      </trkpt>
      <trkpt lat="50.568527011200786" lon="6.204667026177049">
        <ele>669.30010200000004</ele>
        <time>2016-03-24T10:49:57Z</time>
      </trkpt>
      <trkpt lat="50.568527011200786" lon="6.204742966219783">
        <ele>669.15417600000001</ele>
        <time>2016-03-24T10:49:54Z</time>
      </trkpt>
      <trkpt lat="50.568534974008799" lon="6.204834999516606">
        <ele>668.97587899999996</ele>
        <time>2016-03-24T10:49:50Z</time>
      </trkpt>
      <trkpt lat="50.568516030907631" lon="6.204918986186385">
        <ele>668.80466899999999</ele>
        <time>2016-03-24T10:49:44Z</time>
      </trkpt>
      <trkpt lat="50.568479988723993" lon="6.204995010048151">
        <ele>668.62262999999996</ele>
        <time>2016-03-24T10:49:40Z</time>
      </trkpt>
      <trkpt lat="50.568446964025497" lon="6.205047983676195">
        <ele>668.48012300000005</ele>
        <time>2016-03-24T10:49:37Z</time>
      </trkpt>
      <trkpt lat="50.568413017317653" lon="6.205117972567678">
        <ele>668.31092000000001</ele>
        <time>2016-03-24T10:49:32Z</time>
      </trkpt>
      <trkpt lat="50.568370018154383" lon="6.205160971730948">
        <ele>668.156926</ele>
        <time>2016-03-24T10:49:28Z</time>
      </trkpt>
      <trkpt lat="50.56825602427125" lon="6.205288963392377">
        <ele>667.73364000000004</ele>
        <time>2016-03-24T10:48:43Z</time>
      </trkpt>
      <trkpt lat="50.568221993744373" lon="6.205339003354311">
        <ele>667.59299399999998</ele>
        <time>2016-03-24T10:48:33Z</time>
      </trkpt>
      <trkpt lat="50.568175977095962" lon="6.205370016396046">
        <ele>667.441731</ele>
        <time>2016-03-24T10:48:30Z</time>
      </trkpt>
      <trkpt lat="50.56812702678144" lon="6.205396000295878">
        <ele>667.30989699999998</ele>
        <time>2016-03-24T10:48:27Z</time>
      </trkpt>
      <trkpt lat="50.568072963505983" lon="6.205414021387696">
        <ele>667.277736</ele>
        <time>2016-03-24T10:48:24Z</time>
      </trkpt>
      <trkpt lat="50.568027030676603" lon="6.205414021387696">
        <ele>667.25093300000003</ele>
        <time>2016-03-24T10:48:21Z</time>
      </trkpt>
      <trkpt lat="50.567966010421515" lon="6.205406980589032">
        <ele>667.21529699999996</ele>
        <time>2016-03-24T10:48:17Z</time>
      </trkpt>
      <trkpt lat="50.567916976287961" lon="6.205391976982355">
        <ele>667.18621199999995</ele>
        <time>2016-03-24T10:48:14Z</time>
      </trkpt>
      <trkpt lat="50.567867020145059" lon="6.205389965325594">
        <ele>667.15706999999998</ele>
        <time>2016-03-24T10:48:11Z</time>
      </trkpt>
      <trkpt lat="50.567819997668266" lon="6.205393988639116">
        <ele>667.12964499999998</ele>
        <time>2016-03-24T10:48:07Z</time>
      </trkpt>
      <trkpt lat="50.567775992676616" lon="6.205405974760652">
        <ele>667.10362599999996</ele>
        <time>2016-03-24T10:48:02Z</time>
      </trkpt>
      <trkpt lat="50.567729976028204" lon="6.20540102943778">
        <ele>667.07676000000004</ele>
        <time>2016-03-24T10:47:56Z</time>
      </trkpt>
      <trkpt lat="50.56767700240016" lon="6.205412009730935">
        <ele>667.04561200000001</ele>
        <time>2016-03-24T10:47:52Z</time>
      </trkpt>
      <trkpt lat="50.567623022943735" lon="6.205417038872838">
        <ele>667.014095</ele>
        <time>2016-03-24T10:47:48Z</time>
      </trkpt>
      <trkpt lat="50.567573988810182" lon="6.205406980589032">
        <ele>666.98530600000004</ele>
        <time>2016-03-24T10:47:44Z</time>
      </trkpt>
      <trkpt lat="50.567524032667279" lon="6.20542299002409">
        <ele>666.95557699999995</ele>
        <time>2016-03-24T10:47:40Z</time>
      </trkpt>
      <trkpt lat="50.567180039361119" lon="6.205588029697537">
        <ele>666.741129</ele>
        <time>2016-03-24T10:47:10Z</time>
      </trkpt>
      <trkpt lat="50.567135028541088" lon="6.205601021647453">
        <ele>666.714472</ele>
        <time>2016-03-24T10:47:06Z</time>
      </trkpt>
      <trkpt lat="50.567084988579154" lon="6.205610996112227">
        <ele>666.68510500000002</ele>
        <time>2016-03-24T10:47:02Z</time>
      </trkpt>
      <trkpt lat="50.567036038264632" lon="6.205617031082511">
        <ele>666.65646800000002</ele>
        <time>2016-03-24T10:46:58Z</time>
      </trkpt>
      <trkpt lat="50.566979963332415" lon="6.205634968355298">
        <ele>666.62316699999997</ele>
        <time>2016-03-24T10:46:54Z</time>
      </trkpt>
      <trkpt lat="50.566933024674654" lon="6.205649971961975">
        <ele>666.59522500000003</ele>
        <time>2016-03-24T10:46:51Z</time>
      </trkpt>
      <trkpt lat="50.56688298471272" lon="6.205665981397033">
        <ele>666.56549600000005</ele>
        <time>2016-03-24T10:46:48Z</time>
      </trkpt>
      <trkpt lat="50.566820036619902" lon="6.205670004710555">
        <ele>666.52875900000004</ele>
        <time>2016-03-24T10:46:44Z</time>
      </trkpt>
      <trkpt lat="50.566769996657968" lon="6.205691965296865">
        <ele>666.49851000000001</ele>
        <time>2016-03-24T10:46:39Z</time>
      </trkpt>
      <trkpt lat="50.566722974181175" lon="6.205717027187347">
        <ele>666.469604</ele>
        <time>2016-03-24T10:46:33Z</time>
      </trkpt>
      <trkpt lat="50.566685004159808" lon="6.205757008865476">
        <ele>666.44296999999995</ele>
        <time>2016-03-24T10:46:29Z</time>
      </trkpt>
      <trkpt lat="50.566630018875003" lon="6.20578701607883">
        <ele>666.40905499999997</ele>
        <time>2016-03-24T10:46:25Z</time>
      </trkpt>
      <trkpt lat="50.566574027761817" lon="6.205794978886843">
        <ele>666.37629200000003</ele>
        <time>2016-03-24T10:46:20Z</time>
      </trkpt>
      <trkpt lat="50.566524993628263" lon="6.205802019685507">
        <ele>666.34762499999999</ele>
        <time>2016-03-24T10:46:13Z</time>
      </trkpt>
      <trkpt lat="50.566470008343458" lon="6.205777041614056">
        <ele>666.31426999999996</ele>
        <time>2016-03-24T10:46:09Z</time>
      </trkpt>
      <trkpt lat="50.566418040543795" lon="6.205734964460135">
        <ele>666.28021699999999</ele>
        <time>2016-03-24T10:46:06Z</time>
      </trkpt>
      <trkpt lat="50.56638996116817" lon="6.205678973346949">
        <ele>666.22346200000004</ele>
        <time>2016-03-24T10:46:03Z</time>
      </trkpt>
      <trkpt lat="50.566370012238622" lon="6.205601021647453">
        <ele>666.12433699999997</ele>
        <time>2016-03-24T10:45:59Z</time>
      </trkpt>
      <trkpt lat="50.566352996975183" lon="6.205515023320913">
        <ele>666.01819699999999</ele>
        <time>2016-03-24T10:45:55Z</time>
      </trkpt>
      <trkpt lat="50.565906995907426" lon="6.204289002344012">
        <ele>664.30544699999996</ele>
        <time>2016-03-24T10:44:50Z</time>
      </trkpt>
      <trkpt lat="50.565889980643988" lon="6.204221025109291">
        <ele>664.21932900000002</ele>
        <time>2016-03-24T10:44:46Z</time>
      </trkpt>
      <trkpt lat="50.56531498208642" lon="6.202748995274305">
        <ele>661.73190599999998</ele>
        <time>2016-03-24T10:43:31Z</time>
      </trkpt>
      <trkpt lat="50.565284974873066" lon="6.202681018039584">
        <ele>661.57898899999998</ele>
        <time>2016-03-24T10:43:28Z</time>
      </trkpt>
      <trkpt lat="50.565239964053035" lon="6.202611029148102">
        <ele>661.39504199999999</ele>
        <time>2016-03-24T10:43:25Z</time>
      </trkpt>
      <trkpt lat="50.565199982374907" lon="6.202559983357787">
        <ele>661.24537299999997</ele>
        <time>2016-03-24T10:43:22Z</time>
      </trkpt>
      <trkpt lat="50.564681980758905" lon="6.201756997033954">
        <ele>659.09124599999996</ele>
        <time>2016-03-24T10:42:30Z</time>
      </trkpt>
      <trkpt lat="50.564648034051061" lon="6.201698994264007">
        <ele>658.94547299999999</ele>
        <time>2016-03-24T10:42:26Z</time>
      </trkpt>
      <trkpt lat="50.564606040716171" lon="6.201644008979201">
        <ele>658.78661999999997</ele>
        <time>2016-03-24T10:42:22Z</time>
      </trkpt>
      <trkpt lat="50.564569998532534" lon="6.201586006209254">
        <ele>658.636842</ele>
        <time>2016-03-24T10:42:18Z</time>
      </trkpt>
      <trkpt lat="50.564533034339547" lon="6.201543007045984">
        <ele>658.50311599999998</ele>
        <time>2016-03-24T10:42:15Z</time>
      </trkpt>
      <trkpt lat="50.564490035176277" lon="6.201503025367856">
        <ele>658.357888</ele>
        <time>2016-03-24T10:42:10Z</time>
      </trkpt>
      <trkpt lat="50.564445024356246" lon="6.20147000066936">
        <ele>658.21353999999997</ele>
        <time>2016-03-24T10:42:05Z</time>
      </trkpt>
      <trkpt lat="50.56439196690917" lon="6.201443010941148">
        <ele>658.05156199999999</ele>
        <time>2016-03-24T10:42:01Z</time>
      </trkpt>
      <trkpt lat="50.564349973574281" lon="6.201415015384555">
        <ele>657.91893900000002</ele>
        <time>2016-03-24T10:41:56Z</time>
      </trkpt>
      <trkpt lat="50.564304040744901" lon="6.201385008171201">
        <ele>657.77416000000005</ele>
        <time>2016-03-24T10:41:50Z</time>
      </trkpt>
      <trkpt lat="50.564246959984303" lon="6.201367992907763">
        <ele>657.72763199999997</ele>
        <time>2016-03-24T10:41:46Z</time>
      </trkpt>
      <trkpt lat="50.564200021326542" lon="6.201366987079382">
        <ele>657.76606500000003</ele>
        <time>2016-03-24T10:41:43Z</time>
      </trkpt>
      <trkpt lat="50.564156016334891" lon="6.201349971815944">
        <ele>657.80310899999995</ele>
        <time>2016-03-24T10:41:40Z</time>
      </trkpt>
      <trkpt lat="50.5640899669379" lon="6.20134100317955">
        <ele>657.85727699999995</ele>
        <time>2016-03-24T10:41:36Z</time>
      </trkpt>
      <trkpt lat="50.564040010794997" lon="6.201333040371537">
        <ele>657.89837</ele>
        <time>2016-03-24T10:41:33Z</time>
      </trkpt>
      <trkpt lat="50.563987959176302" lon="6.201312001794577">
        <ele>657.94226500000002</ele>
        <time>2016-03-24T10:41:30Z</time>
      </trkpt>
      <trkpt lat="50.563942026346922" lon="6.201283000409603">
        <ele>657.98278000000005</ele>
        <time>2016-03-24T10:41:27Z</time>
      </trkpt>
      <trkpt lat="50.56389600969851" lon="6.201256010681391">
        <ele>658.02292199999999</ele>
        <time>2016-03-24T10:41:23Z</time>
      </trkpt>
      <trkpt lat="50.563846975564957" lon="6.20121200568974">
        <ele>658.06904599999996</ele>
        <time>2016-03-24T10:41:19Z</time>
      </trkpt>
      <trkpt lat="50.563797019422054" lon="6.201170012354851">
        <ele>658.11538499999995</ele>
        <time>2016-03-24T10:41:15Z</time>
      </trkpt>
      <trkpt lat="50.563755026087165" lon="6.201121984049678">
        <ele>658.15782100000001</ele>
        <time>2016-03-24T10:41:11Z</time>
      </trkpt>
      <trkpt lat="50.563704986125231" lon="6.201077979058027">
        <ele>658.20465799999999</ele>
        <time>2016-03-24T10:41:07Z</time>
      </trkpt>
      <trkpt lat="50.563652012497187" lon="6.201049983501434">
        <ele>658.25036799999998</ele>
        <time>2016-03-24T10:41:03Z</time>
      </trkpt>
      <trkpt lat="50.563599960878491" lon="6.201014025136828">
        <ele>658.29681600000004</ele>
        <time>2016-03-24T10:40:59Z</time>
      </trkpt>
      <trkpt lat="50.563556961715221" lon="6.200988041236997">
        <ele>658.33447899999999</ele>
        <time>2016-03-24T10:40:56Z</time>
      </trkpt>
      <trkpt lat="50.563514968380332" lon="6.200956022366881">
        <ele>658.37263099999996</ele>
        <time>2016-03-24T10:40:53Z</time>
      </trkpt>
      <trkpt lat="50.563472975045443" lon="6.200929032638669">
        <ele>658.40972599999998</ele>
        <time>2016-03-24T10:40:50Z</time>
      </trkpt>
      <trkpt lat="50.563410026952624" lon="6.200925009325147">
        <ele>658.46127999999999</ele>
        <time>2016-03-24T10:40:45Z</time>
      </trkpt>
      <trkpt lat="50.563354035839438" lon="6.200925009325147">
        <ele>658.507068</ele>
        <time>2016-03-24T10:40:41Z</time>
      </trkpt>
      <trkpt lat="50.563299972563982" lon="6.20093297213316">
        <ele>658.55141700000001</ele>
        <time>2016-03-24T10:40:38Z</time>
      </trkpt>
      <trkpt lat="50.563248004764318" lon="6.200944036245346">
        <ele>658.59431700000005</ele>
        <time>2016-03-24T10:40:35Z</time>
      </trkpt>
      <trkpt lat="50.563197964802384" lon="6.20095401071012">
        <ele>658.63552800000002</ele>
        <time>2016-03-24T10:40:32Z</time>
      </trkpt>
      <trkpt lat="50.563139962032437" lon="6.200978988781571">
        <ele>658.68469700000003</ele>
        <time>2016-03-24T10:40:20Z</time>
      </trkpt>
      <trkpt lat="50.563095035031438" lon="6.200992986559868">
        <ele>658.72220300000004</ele>
        <time>2016-03-24T10:40:17Z</time>
      </trkpt>
      <trkpt lat="50.563039965927601" lon="6.200998015701771">
        <ele>658.76724899999999</ele>
        <time>2016-03-24T10:40:14Z</time>
      </trkpt>
      <trkpt lat="50.562990009784698" lon="6.20099700987339">
        <ele>658.80813499999999</ele>
        <time>2016-03-24T10:40:10Z</time>
      </trkpt>
      <trkpt lat="50.562939969822764" lon="6.200991980731487">
        <ele>658.84910000000002</ele>
        <time>2016-03-24T10:40:06Z</time>
      </trkpt>
      <trkpt lat="50.562880039215088" lon="6.200992986559868">
        <ele>658.89816199999996</ele>
        <time>2016-03-24T10:40:02Z</time>
      </trkpt>
      <trkpt lat="50.562829999253154" lon="6.200992986559868">
        <ele>658.93904499999996</ele>
        <time>2016-03-24T10:39:59Z</time>
      </trkpt>
      <trkpt lat="50.562781970947981" lon="6.200988041236997">
        <ele>658.97837800000002</ele>
        <time>2016-03-24T10:39:56Z</time>
      </trkpt>
      <trkpt lat="50.562730003148317" lon="6.200991980731487">
        <ele>659.02094699999998</ele>
        <time>2016-03-24T10:39:53Z</time>
      </trkpt>
      <trkpt lat="50.562679963186383" lon="6.200998015701771">
        <ele>659.06194800000003</ele>
        <time>2016-03-24T10:39:50Z</time>
      </trkpt>
      <trkpt lat="50.562630007043481" lon="6.201001033186913">
        <ele>659.10285999999996</ele>
        <time>2016-03-24T10:39:47Z</time>
      </trkpt>
      <trkpt lat="50.562576027587056" lon="6.200999021530151">
        <ele>659.14702599999998</ele>
        <time>2016-03-24T10:39:43Z</time>
      </trkpt>
      <trkpt lat="50.562526993453503" lon="6.201002961024642">
        <ele>659.112345</ele>
        <time>2016-03-24T10:39:40Z</time>
      </trkpt>
      <trkpt lat="50.562469996511936" lon="6.201007990166545">
        <ele>658.93604900000003</ele>
        <time>2016-03-24T10:39:37Z</time>
      </trkpt>
      <trkpt lat="50.562420040369034" lon="6.201011007651687">
        <ele>658.78152999999998</ele>
        <time>2016-03-24T10:39:34Z</time>
      </trkpt>
      <trkpt lat="50.5623700004071" lon="6.201014025136828">
        <ele>658.62701200000004</ele>
        <time>2016-03-24T10:39:30Z</time>
      </trkpt>
      <trkpt lat="50.562319960445166" lon="6.201020982116461">
        <ele>658.47199599999999</ele>
        <time>2016-03-24T10:39:26Z</time>
      </trkpt>
      <trkpt lat="50.562260029837489" lon="6.201023999601603">
        <ele>658.28661499999998</ele>
        <time>2016-03-24T10:39:19Z</time>
      </trkpt>
      <trkpt lat="50.562205966562033" lon="6.201025005429983">
        <ele>658.11984500000005</ele>
        <time>2016-03-24T10:39:16Z</time>
      </trkpt>
      <trkpt lat="50.562160033732653" lon="6.2010189704597">
        <ele>657.977305</ele>
        <time>2016-03-24T10:39:13Z</time>
      </trkpt>
      <trkpt lat="50.562106976285577" lon="6.200988963246346">
        <ele>657.80337499999996</ele>
        <time>2016-03-24T10:39:09Z</time>
      </trkpt>
      <trkpt lat="50.56204997934401" lon="6.200986029580236">
        <ele>657.62725399999999</ele>
        <time>2016-03-24T10:39:05Z</time>
      </trkpt>
      <trkpt lat="50.562000023201108" lon="6.200985023751855">
        <ele>657.47283500000003</ele>
        <time>2016-03-24T10:39:02Z</time>
      </trkpt>
      <trkpt lat="50.561943026259542" lon="6.200965996831656">
        <ele>657.29290900000001</ele>
        <time>2016-03-24T10:38:58Z</time>
      </trkpt>
      <trkpt lat="50.561900027096272" lon="6.200925009325147">
        <ele>657.13766099999998</ele>
        <time>2016-03-24T10:38:54Z</time>
      </trkpt>
      <trkpt lat="50.561859961599112" lon="6.200886033475399">
        <ele>656.99236199999996</ele>
        <time>2016-03-24T10:38:50Z</time>
      </trkpt>
      <trkpt lat="50.561419995501637" lon="6.20033198967576">
        <ele>655.21417399999996</ele>
        <time>2016-03-24T10:38:10Z</time>
      </trkpt>
      <trkpt lat="50.561374984681606" lon="6.200286978855729">
        <ele>655.04953999999998</ele>
        <time>2016-03-24T10:38:06Z</time>
      </trkpt>
      <trkpt lat="50.561337014660239" lon="6.200249008834362">
        <ele>654.91051500000003</ele>
        <time>2016-03-24T10:38:03Z</time>
      </trkpt>
      <trkpt lat="50.561289992183447" lon="6.200197041034699">
        <ele>654.73311100000001</ele>
        <time>2016-03-24T10:37:59Z</time>
      </trkpt>
      <trkpt lat="50.561240036040545" lon="6.200166027992964">
        <ele>654.56715999999994</ele>
        <time>2016-03-24T10:37:55Z</time>
      </trkpt>
      <trkpt lat="50.561183961108327" lon="6.20018002577126">
        <ele>654.39205800000002</ele>
        <time>2016-03-24T10:37:51Z</time>
      </trkpt>
      <trkpt lat="50.561141967773438" lon="6.200212966650724">
        <ele>654.24709800000005</ele>
        <time>2016-03-24T10:37:48Z</time>
      </trkpt>
      <trkpt lat="50.561089999973774" lon="6.200240962207317">
        <ele>654.07738099999995</ele>
        <time>2016-03-24T10:37:44Z</time>
      </trkpt>
      <trkpt lat="50.561047000810504" lon="6.200272981077433">
        <ele>653.93050100000005</ele>
        <time>2016-03-24T10:37:40Z</time>
      </trkpt>
      <trkpt lat="50.561011964455247" lon="6.200325032696128">
        <ele>653.781879</ele>
        <time>2016-03-24T10:37:36Z</time>
      </trkpt>
      <trkpt lat="50.560969971120358" lon="6.200366020202637">
        <ele>653.62926300000004</ele>
        <time>2016-03-24T10:37:32Z</time>
      </trkpt>
      <trkpt lat="50.560924960300326" lon="6.200398039072752">
        <ele>653.54543999999999</ele>
        <time>2016-03-24T10:37:28Z</time>
      </trkpt>
      <trkpt lat="50.560880033299327" lon="6.200426034629345">
        <ele>653.469156</ele>
        <time>2016-03-24T10:37:24Z</time>
      </trkpt>
      <trkpt lat="50.560833010822535" lon="6.200478002429009">
        <ele>653.37858900000003</ele>
        <time>2016-03-24T10:37:21Z</time>
      </trkpt>
      <trkpt lat="50.560795040801167" lon="6.200513038784266">
        <ele>653.30918099999997</ele>
        <time>2016-03-24T10:37:18Z</time>
      </trkpt>
      <trkpt lat="50.560750029981136" lon="6.200562994927168">
        <ele>653.22234600000002</ele>
        <time>2016-03-24T10:37:14Z</time>
      </trkpt>
      <trkpt lat="50.560320038348436" lon="6.201028022915125">
        <ele>652.36948800000005</ele>
        <time>2016-03-24T10:36:38Z</time>
      </trkpt>
      <trkpt lat="50.560279972851276" lon="6.20106297545135">
        <ele>652.29734099999996</ele>
        <time>2016-03-24T10:36:35Z</time>
      </trkpt>
      <trkpt lat="50.560239991173148" lon="6.201118966564536">
        <ele>652.21294799999998</ele>
        <time>2016-03-24T10:36:32Z</time>
      </trkpt>
      <trkpt lat="50.56020000949502" lon="6.201143022626638">
        <ele>652.14546299999995</ele>
        <time>2016-03-24T10:36:29Z</time>
      </trkpt>
      <trkpt lat="50.560160027816892" lon="6.20119096711278">
        <ele>652.06616799999995</ele>
        <time>2016-03-24T10:36:25Z</time>
      </trkpt>
      <trkpt lat="50.560119962319732" lon="6.201245030388236">
        <ele>651.98309400000005</ele>
        <time>2016-03-24T10:36:21Z</time>
      </trkpt>
      <trkpt lat="50.560092972591519" lon="6.20131803676486">
        <ele>651.89849500000003</ele>
        <time>2016-03-24T10:36:17Z</time>
      </trkpt>
      <trkpt lat="50.560030024498701" lon="6.201443010941148">
        <ele>651.73794599999997</ele>
        <time>2016-03-24T10:36:09Z</time>
      </trkpt>
      <trkpt lat="50.560004962608218" lon="6.201509982347488">
        <ele>651.66012599999999</ele>
        <time>2016-03-24T10:36:05Z</time>
      </trkpt>
      <trkpt lat="50.559979984536767" lon="6.201572008430958">
        <ele>651.58658000000003</ele>
        <time>2016-03-24T10:36:01Z</time>
      </trkpt>
      <trkpt lat="50.559956012293696" lon="6.201643003150821">
        <ele>651.506033</ele>
        <time>2016-03-24T10:35:57Z</time>
      </trkpt>
      <trkpt lat="50.559919970110059" lon="6.201707040891051">
        <ele>651.42042100000003</ele>
        <time>2016-03-24T10:35:53Z</time>
      </trkpt>
      <trkpt lat="50.559894992038608" lon="6.201778035610914">
        <ele>651.33912199999997</ele>
        <time>2016-03-24T10:35:49Z</time>
      </trkpt>
      <trkpt lat="50.55985601618886" lon="6.20183302089572">
        <ele>651.25657200000001</ele>
        <time>2016-03-24T10:35:46Z</time>
      </trkpt>
      <trkpt lat="50.559809999540448" lon="6.201863028109074">
        <ele>651.17807500000004</ele>
        <time>2016-03-24T10:35:42Z</time>
      </trkpt>
      <trkpt lat="50.559135004878044" lon="6.20099600404501">
        <ele>651.70519000000002</ele>
        <time>2016-03-24T10:34:36Z</time>
      </trkpt>
      <trkpt lat="50.559099968522787" lon="6.200949987396598">
        <ele>651.76825499999995</ele>
        <time>2016-03-24T10:34:32Z</time>
      </trkpt>
      <trkpt lat="50.559050012379885" lon="6.200901037082076">
        <ele>651.84971900000005</ele>
        <time>2016-03-24T10:34:28Z</time>
      </trkpt>
      <trkpt lat="50.559010030701756" lon="6.2008670065552">
        <ele>651.91259500000001</ele>
        <time>2016-03-24T10:34:25Z</time>
      </trkpt>
      <trkpt lat="50.558969965204597" lon="6.200829036533833">
        <ele>651.977216</ele>
        <time>2016-03-24T10:34:22Z</time>
      </trkpt>
      <trkpt lat="50.558929983526468" lon="6.200769022107124">
        <ele>652.05363799999998</ele>
        <time>2016-03-24T10:34:17Z</time>
      </trkpt>
      <trkpt lat="50.558880027383566" lon="6.200715964660049">
        <ele>652.13701400000002</ele>
        <time>2016-03-24T10:34:13Z</time>
      </trkpt>
      <trkpt lat="50.558838034048676" lon="6.200662991032004">
        <ele>652.21146799999997</ele>
        <time>2016-03-24T10:34:10Z</time>
      </trkpt>
      <trkpt lat="50.55878397077322" lon="6.200623009353876">
        <ele>652.29401399999995</ele>
        <time>2016-03-24T10:34:07Z</time>
      </trkpt>
      <trkpt lat="50.558742983266711" lon="6.200593002140522">
        <ele>652.35654999999997</ele>
        <time>2016-03-24T10:34:05Z</time>
      </trkpt>
      <trkpt lat="50.558699984103441" lon="6.200553020462394">
        <ele>652.42563399999995</ele>
        <time>2016-03-24T10:34:03Z</time>
      </trkpt>
      <trkpt lat="50.558650027960539" lon="6.200499963015318">
        <ele>652.50900899999999</ele>
        <time>2016-03-24T10:33:59Z</time>
      </trkpt>
      <trkpt lat="50.558599987998605" lon="6.200483031570911">
        <ele>652.57976099999996</ele>
        <time>2016-03-24T10:33:51Z</time>
      </trkpt>
      <trkpt lat="50.558566963300109" lon="6.200421005487442">
        <ele>652.65083300000003</ele>
        <time>2016-03-24T10:33:47Z</time>
      </trkpt>
      <trkpt lat="50.558529999107122" lon="6.20037398301065">
        <ele>652.71659399999999</ele>
        <time>2016-03-24T10:33:44Z</time>
      </trkpt>
      <trkpt lat="50.558486999943852" lon="6.200323021039367">
        <ele>652.79106200000001</ele>
        <time>2016-03-24T10:33:40Z</time>
      </trkpt>
      <trkpt lat="50.558450035750866" lon="6.200258983299136">
        <ele>652.86709800000006</ele>
        <time>2016-03-24T10:33:36Z</time>
      </trkpt>
      <trkpt lat="50.558413993567228" lon="6.200206009671092">
        <ele>652.93527600000004</ele>
        <time>2016-03-24T10:33:33Z</time>
      </trkpt>
      <trkpt lat="50.558383986353874" lon="6.200154041871429">
        <ele>652.99699699999996</ele>
        <time>2016-03-24T10:33:30Z</time>
      </trkpt>
      <trkpt lat="50.558346016332507" lon="6.200090004131198">
        <ele>653.07397100000003</ele>
        <time>2016-03-24T10:33:26Z</time>
      </trkpt>
      <trkpt lat="50.558304022997618" lon="6.200024960562587">
        <ele>653.15543700000001</ele>
        <time>2016-03-24T10:33:22Z</time>
      </trkpt>
      <trkpt lat="50.558260018005967" lon="6.199970981106162">
        <ele>653.23260700000003</ele>
        <time>2016-03-24T10:33:19Z</time>
      </trkpt>
      <trkpt lat="50.558227999135852" lon="6.199913984164596">
        <ele>653.22087599999998</ele>
        <time>2016-03-24T10:33:16Z</time>
      </trkpt>
      <trkpt lat="50.558179970830679" lon="6.199854975566268">
        <ele>653.08601199999998</ele>
        <time>2016-03-24T10:33:13Z</time>
      </trkpt>
      <trkpt lat="50.558135965839028" lon="6.199790015816689">
        <ele>652.95238400000005</ele>
        <time>2016-03-24T10:33:08Z</time>
      </trkpt>
      <trkpt lat="50.558097995817661" lon="6.19975296780467">
        <ele>652.85343599999999</ele>
        <time>2016-03-24T10:33:03Z</time>
      </trkpt>
      <trkpt lat="50.558063965290785" lon="6.199701000005007">
        <ele>652.74845600000003</ele>
        <time>2016-03-24T10:32:58Z</time>
      </trkpt>
      <trkpt lat="50.558024989441037" lon="6.199648026376963">
        <ele>652.63435700000002</ele>
        <time>2016-03-24T10:32:54Z</time>
      </trkpt>
      <trkpt lat="50.557979978621006" lon="6.199616007506847">
        <ele>652.52500799999996</ele>
        <time>2016-03-24T10:32:51Z</time>
      </trkpt>
      <trkpt lat="50.557919964194298" lon="6.199596980586648">
        <ele>652.38947700000006</ele>
        <time>2016-03-24T10:32:47Z</time>
      </trkpt>
      <trkpt lat="50.557876965031028" lon="6.199567979201675">
        <ele>652.28588200000002</ele>
        <time>2016-03-24T10:32:44Z</time>
      </trkpt>
      <trkpt lat="50.557822985574603" lon="6.199544006958604">
        <ele>652.16162399999996</ele>
        <time>2016-03-24T10:32:41Z</time>
      </trkpt>
      <trkpt lat="50.557765988633037" lon="6.199506958946586">
        <ele>652.02508599999999</ele>
        <time>2016-03-24T10:32:37Z</time>
      </trkpt>
      <trkpt lat="50.557713015004992" lon="6.19949203915894">
        <ele>651.90583700000002</ele>
        <time>2016-03-24T10:32:32Z</time>
      </trkpt>
      <trkpt lat="50.55742995813489" lon="6.19936304166913">
        <ele>651.23958800000003</ele>
        <time>2016-03-24T10:32:10Z</time>
      </trkpt>
      <trkpt lat="50.557372961193323" lon="6.199352983385325">
        <ele>651.11258099999998</ele>
        <time>2016-03-24T10:32:06Z</time>
      </trkpt>
      <trkpt lat="50.557327028363943" lon="6.199350971728563">
        <ele>651.01067599999999</ele>
        <time>2016-03-24T10:32:00Z</time>
      </trkpt>
      <trkpt lat="50.55727799423039" lon="6.199348038062453">
        <ele>650.90208399999995</ele>
        <time>2016-03-24T10:31:56Z</time>
      </trkpt>
      <trkpt lat="50.557219991460443" lon="6.199325993657112">
        <ele>650.76996699999995</ele>
        <time>2016-03-24T10:31:52Z</time>
      </trkpt>
      <trkpt lat="50.557174980640411" lon="6.199304033070803">
        <ele>650.66561899999999</ele>
        <time>2016-03-24T10:31:49Z</time>
      </trkpt>
      <trkpt lat="50.557113960385323" lon="6.199281988665462">
        <ele>650.52703499999996</ele>
        <time>2016-03-24T10:31:46Z</time>
      </trkpt>
      <trkpt lat="50.557053023949265" lon="6.19927603751421">
        <ele>650.39168800000004</ele>
        <time>2016-03-24T10:31:42Z</time>
      </trkpt>
      <trkpt lat="50.55699996650219" lon="6.199249969795346">
        <ele>650.26875299999995</ele>
        <time>2016-03-24T10:31:38Z</time>
      </trkpt>
      <trkpt lat="50.556945987045765" lon="6.199258016422391">
        <ele>650.148642</ele>
        <time>2016-03-24T10:31:35Z</time>
      </trkpt>
      <trkpt lat="50.556896030902863" lon="6.19923303835094">
        <ele>650.032466</ele>
        <time>2016-03-24T10:31:30Z</time>
      </trkpt>
      <trkpt lat="50.556850014254451" lon="6.199210993945599">
        <ele>649.92600100000004</ele>
        <time>2016-03-24T10:31:26Z</time>
      </trkpt>
      <trkpt lat="50.556797040626407" lon="6.199198001995683">
        <ele>649.80721700000004</ele>
        <time>2016-03-24T10:31:22Z</time>
      </trkpt>
      <trkpt lat="50.556754963472486" lon="6.19917101226747">
        <ele>649.70675100000005</ele>
        <time>2016-03-24T10:31:20Z</time>
      </trkpt>
      <trkpt lat="50.556697966530919" lon="6.199132036417723">
        <ele>649.56911500000001</ele>
        <time>2016-03-24T10:31:17Z</time>
      </trkpt>
      <trkpt lat="50.556650022044778" lon="6.199109992012382">
        <ele>649.45840599999997</ele>
        <time>2016-03-24T10:31:15Z</time>
      </trkpt>
      <trkpt lat="50.556595036759973" lon="6.199090965092182">
        <ele>649.33371</ele>
        <time>2016-03-24T10:31:12Z</time>
      </trkpt>
      <trkpt lat="50.556539967656136" lon="6.199075039476156">
        <ele>649.21322999999995</ele>
        <time>2016-03-24T10:31:08Z</time>
      </trkpt>
      <trkpt lat="50.556487999856472" lon="6.19906104169786">
        <ele>649.10157800000002</ele>
        <time>2016-03-24T10:31:02Z</time>
      </trkpt>
      <trkpt lat="50.556435026228428" lon="6.199049977585673">
        <ele>648.98843699999998</ele>
        <time>2016-03-24T10:30:59Z</time>
      </trkpt>
      <trkpt lat="50.556377023458481" lon="6.199051989242435">
        <ele>648.86565499999995</ele>
        <time>2016-03-24T10:30:55Z</time>
      </trkpt>
      <trkpt lat="50.556330000981688" lon="6.199059030041099">
        <ele>648.76573800000006</ele>
        <time>2016-03-24T10:30:51Z</time>
      </trkpt>
      <trkpt lat="50.556274009868503" lon="6.199049977585673">
        <ele>648.64660200000003</ele>
        <time>2016-03-24T10:30:47Z</time>
      </trkpt>
      <trkpt lat="50.555377984419465" lon="6.199148967862129">
        <ele>646.731583</ele>
        <time>2016-03-24T10:29:44Z</time>
      </trkpt>
      <trkpt lat="50.555319981649518" lon="6.199166988953948">
        <ele>646.60646699999995</ele>
        <time>2016-03-24T10:29:40Z</time>
      </trkpt>
      <trkpt lat="50.555263990536332" lon="6.199176963418722">
        <ele>646.48718699999995</ele>
        <time>2016-03-24T10:29:36Z</time>
      </trkpt>
      <trkpt lat="50.55521797388792" lon="6.199179980903864">
        <ele>646.38974800000005</ele>
        <time>2016-03-24T10:29:33Z</time>
      </trkpt>
      <trkpt lat="50.55517204105854" lon="6.199191967025399">
        <ele>646.291065</ele>
        <time>2016-03-24T10:29:30Z</time>
      </trkpt>
      <trkpt lat="50.555119989439845" lon="6.199191967025399">
        <ele>646.18101100000001</ele>
        <time>2016-03-24T10:29:21Z</time>
      </trkpt>
      <trkpt lat="50.555059975013137" lon="6.199188027530909">
        <ele>646.05391099999997</ele>
        <time>2016-03-24T10:29:17Z</time>
      </trkpt>
      <trkpt lat="50.555008007213473" lon="6.199188027530909">
        <ele>645.94385699999998</ele>
        <time>2016-03-24T10:29:13Z</time>
      </trkpt>
      <trkpt lat="50.554950004443526" lon="6.199177969247103">
        <ele>645.82037000000003</ele>
        <time>2016-03-24T10:29:09Z</time>
      </trkpt>
      <trkpt lat="50.55489300750196" lon="6.199176041409373">
        <ele>645.699704</ele>
        <time>2016-03-24T10:29:06Z</time>
      </trkpt>
      <trkpt lat="50.554843973368406" lon="6.199182998389006">
        <ele>645.59557299999994</ele>
        <time>2016-03-24T10:29:03Z</time>
      </trkpt>
      <trkpt lat="50.55478697642684" lon="6.199174029752612">
        <ele>645.467851</ele>
        <time>2016-03-24T10:28:59Z</time>
      </trkpt>
      <trkpt lat="50.554740037769079" lon="6.19917101226747">
        <ele>645.24304199999995</ele>
        <time>2016-03-24T10:28:56Z</time>
      </trkpt>
      <trkpt lat="50.554689997807145" lon="6.199166988953948">
        <ele>645.00377200000003</ele>
        <time>2016-03-24T10:28:53Z</time>
      </trkpt>
      <trkpt lat="50.554645992815495" lon="6.199157014489174">
        <ele>644.79130499999997</ele>
        <time>2016-03-24T10:28:50Z</time>
      </trkpt>
      <trkpt lat="50.554596036672592" lon="6.199144022539258">
        <ele>644.54910500000005</ele>
        <time>2016-03-24T10:28:47Z</time>
      </trkpt>
      <trkpt lat="50.554542979225516" lon="6.199121978133917">
        <ele>644.28714500000001</ele>
        <time>2016-03-24T10:28:43Z</time>
      </trkpt>
      <trkpt lat="50.554484976455569" lon="6.199119966477156">
        <ele>644.00988299999995</ele>
        <time>2016-03-24T10:28:39Z</time>
      </trkpt>
      <trkpt lat="50.554432002827525" lon="6.199110997840762">
        <ele>643.75511300000005</ele>
        <time>2016-03-24T10:28:35Z</time>
      </trkpt>
      <trkpt lat="50.553356017917395" lon="6.199089959263802">
        <ele>638.58068900000001</ele>
        <time>2016-03-24T10:27:17Z</time>
      </trkpt>
      <trkpt lat="50.552339963614941" lon="6.199067998677492">
        <ele>634.44658300000003</ele>
        <time>2016-03-24T10:25:33Z</time>
      </trkpt>
      <trkpt lat="50.552287995815277" lon="6.199050983414054">
        <ele>634.25589100000002</ele>
        <time>2016-03-24T10:25:30Z</time>
      </trkpt>
      <trkpt lat="50.55222999304533" lon="6.199038997292519">
        <ele>634.04584899999998</ele>
        <time>2016-03-24T10:25:27Z</time>
      </trkpt>
      <trkpt lat="50.552184982225299" lon="6.199028016999364">
        <ele>633.882338</ele>
        <time>2016-03-24T10:25:24Z</time>
      </trkpt>
      <trkpt lat="50.552139971405268" lon="6.198992980644107">
        <ele>633.70211099999995</ele>
        <time>2016-03-24T10:25:20Z</time>
      </trkpt>
      <trkpt lat="50.552109964191914" lon="6.19893598370254">
        <ele>633.53325600000005</ele>
        <time>2016-03-24T10:25:16Z</time>
      </trkpt>
      <trkpt lat="50.552066965028644" lon="6.198886027559638">
        <ele>633.34129700000005</ele>
        <time>2016-03-24T10:25:12Z</time>
      </trkpt>
      <trkpt lat="50.551825985312462" lon="6.198828024789691">
        <ele>632.43056799999999</ele>
        <time>2016-03-24T10:24:54Z</time>
      </trkpt>
      <trkpt lat="50.55177996866405" lon="6.198818972334266">
        <ele>632.26413300000002</ele>
        <time>2016-03-24T10:24:51Z</time>
      </trkpt>
      <trkpt lat="50.551726995036006" lon="6.198799023404717">
        <ele>632.068442</ele>
        <time>2016-03-24T10:24:48Z</time>
      </trkpt>
      <trkpt lat="50.551674021407962" lon="6.198801035061479">
        <ele>631.87808900000005</ele>
        <time>2016-03-24T10:24:43Z</time>
      </trkpt>
      <trkpt lat="50.551623981446028" lon="6.198789970949292">
        <ele>631.69681700000001</ele>
        <time>2016-03-24T10:24:38Z</time>
      </trkpt>
      <trkpt lat="50.551579976454377" lon="6.198819978162646">
        <ele>631.52464699999996</ele>
        <time>2016-03-24T10:24:35Z</time>
      </trkpt>
      <trkpt lat="50.551530020311475" lon="6.198830958455801">
        <ele>631.34337500000004</ele>
        <time>2016-03-24T10:24:33Z</time>
      </trkpt>
      <trkpt lat="50.551479980349541" lon="6.198832970112562">
        <ele>631.16379099999995</ele>
        <time>2016-03-24T10:24:31Z</time>
      </trkpt>
      <trkpt lat="50.550910010933876" lon="6.198777984827757">
        <ele>627.961769</ele>
        <time>2016-03-24T10:23:53Z</time>
      </trkpt>
      <trkpt lat="50.550870029255748" lon="6.198722999542952">
        <ele>627.60855200000003</ele>
        <time>2016-03-24T10:23:48Z</time>
      </trkpt>
      <trkpt lat="50.55081001482904" lon="6.198696009814739">
        <ele>627.19356400000004</ele>
        <time>2016-03-24T10:23:44Z</time>
      </trkpt>
      <trkpt lat="50.550761986523867" lon="6.198675977066159">
        <ele>626.86336800000004</ele>
        <time>2016-03-24T10:23:41Z</time>
      </trkpt>
      <trkpt lat="50.5507049895823" lon="6.198652004823089">
        <ele>626.47098800000003</ele>
        <time>2016-03-24T10:23:37Z</time>
      </trkpt>
      <trkpt lat="50.550662996247411" lon="6.198617974296212">
        <ele>626.15690700000005</ele>
        <time>2016-03-24T10:23:33Z</time>
      </trkpt>
      <trkpt lat="50.550616979598999" lon="6.198598025366664">
        <ele>625.83955000000003</ele>
        <time>2016-03-24T10:23:28Z</time>
      </trkpt>
      <trkpt lat="50.550589989870787" lon="6.198541028425098">
        <ele>625.53914199999997</ele>
        <time>2016-03-24T10:23:20Z</time>
      </trkpt>
      <trkpt lat="50.550544979050756" lon="6.198514038696885">
        <ele>625.218884</ele>
        <time>2016-03-24T10:23:16Z</time>
      </trkpt>
      <trkpt lat="50.550495022907853" lon="6.19850599206984">
        <ele>624.88467200000002</ele>
        <time>2016-03-24T10:23:13Z</time>
      </trkpt>
      <trkpt lat="50.5504459887743" lon="6.198475984856486">
        <ele>624.53503499999999</ele>
        <time>2016-03-24T10:23:09Z</time>
      </trkpt>
      <trkpt lat="50.550392009317875" lon="6.198457041755319">
        <ele>624.16707099999996</ele>
        <time>2016-03-24T10:23:03Z</time>
      </trkpt>
      <trkpt lat="50.550345992669463" lon="6.198457041755319">
        <ele>623.86117200000001</ele>
        <time>2016-03-24T10:23:00Z</time>
      </trkpt>
      <trkpt lat="50.55029695853591" lon="6.198443965986371">
        <ele>623.53072599999996</ele>
        <time>2016-03-24T10:22:57Z</time>
      </trkpt>
      <trkpt lat="50.550247002393007" lon="6.198451006785035">
        <ele>623.19691399999999</ele>
        <time>2016-03-24T10:22:54Z</time>
      </trkpt>
      <trkpt lat="50.550185982137918" lon="6.198468022048473">
        <ele>622.78495499999997</ele>
        <time>2016-03-24T10:22:50Z</time>
      </trkpt>
      <trkpt lat="50.550129991024733" lon="6.198484031483531">
        <ele>622.40646900000002</ele>
        <time>2016-03-24T10:22:46Z</time>
      </trkpt>
      <trkpt lat="50.55008003488183" lon="6.198493000119925">
        <ele>622.07180300000005</ele>
        <time>2016-03-24T10:22:43Z</time>
      </trkpt>
      <trkpt lat="50.550029994919896" lon="6.19850498624146">
        <ele>621.73545999999999</ele>
        <time>2016-03-24T10:22:40Z</time>
      </trkpt>
      <trkpt lat="50.549976015463471" lon="6.198514960706234">
        <ele>621.37388399999998</ele>
        <time>2016-03-24T10:22:37Z</time>
      </trkpt>
      <trkpt lat="50.549920024350286" lon="6.198513032868505">
        <ele>621.00139000000001</ele>
        <time>2016-03-24T10:22:33Z</time>
      </trkpt>
      <trkpt lat="50.549869984388351" lon="6.19852501899004">
        <ele>620.66504699999996</ele>
        <time>2016-03-24T10:22:30Z</time>
      </trkpt>
      <trkpt lat="50.54982396773994" lon="6.198541028425098">
        <ele>620.351766</ele>
        <time>2016-03-24T10:22:27Z</time>
      </trkpt>
      <trkpt lat="50.549774011597037" lon="6.198558965697885">
        <ele>620.01067899999998</ele>
        <time>2016-03-24T10:22:24Z</time>
      </trkpt>
      <trkpt lat="50.549717014655471" lon="6.19856801815331">
        <ele>619.629728</ele>
        <time>2016-03-24T10:22:20Z</time>
      </trkpt>
      <trkpt lat="50.549675021320581" lon="6.198600037023425">
        <ele>619.31942000000004</ele>
        <time>2016-03-24T10:22:16Z</time>
      </trkpt>
      <trkpt lat="50.549620036035776" lon="6.198621997609735">
        <ele>618.94204300000001</ele>
        <time>2016-03-24T10:22:12Z</time>
      </trkpt>
      <trkpt lat="50.549563961103559" lon="6.198645969852805">
        <ele>618.55608299999994</ele>
        <time>2016-03-24T10:22:08Z</time>
      </trkpt>
      <trkpt lat="50.54952003993094" lon="6.198668014258146">
        <ele>618.32556799999998</ele>
        <time>2016-03-24T10:22:04Z</time>
      </trkpt>
      <trkpt lat="50.549464970827103" lon="6.198685029521585">
        <ele>618.08528699999999</ele>
        <time>2016-03-24T10:22:00Z</time>
      </trkpt>
      <trkpt lat="50.549416020512581" lon="6.198700033128262">
        <ele>617.87129400000003</ele>
        <time>2016-03-24T10:21:56Z</time>
      </trkpt>
      <trkpt lat="50.549360029399395" lon="6.19872098788619">
        <ele>617.62450899999999</ele>
        <time>2016-03-24T10:21:52Z</time>
      </trkpt>
      <trkpt lat="50.549304960295558" lon="6.198748983442783">
        <ele>617.37670200000002</ele>
        <time>2016-03-24T10:21:48Z</time>
      </trkpt>
      <trkpt lat="50.549255004152656" lon="6.198747977614403">
        <ele>617.16234199999997</ele>
        <time>2016-03-24T10:21:44Z</time>
      </trkpt>
      <trkpt lat="50.549209993332624" lon="6.198748983442783">
        <ele>616.96941400000003</ele>
        <time>2016-03-24T10:21:41Z</time>
      </trkpt>
      <trkpt lat="50.549151990562677" lon="6.198745965957642">
        <ele>616.720642</ele>
        <time>2016-03-24T10:21:37Z</time>
      </trkpt>
      <trkpt lat="50.549106979742646" lon="6.198747977614403">
        <ele>616.52765699999998</ele>
        <time>2016-03-24T10:21:34Z</time>
      </trkpt>
      <trkpt lat="50.549060041084886" lon="6.198745965957642">
        <ele>616.32610099999999</ele>
        <time>2016-03-24T10:21:31Z</time>
      </trkpt>
      <trkpt lat="50.549010001122952" lon="6.198736997321248">
        <ele>616.11036100000001</ele>
        <time>2016-03-24T10:21:28Z</time>
      </trkpt>
      <trkpt lat="50.548959961161017" lon="6.198715036734939">
        <ele>615.88779799999998</ele>
        <time>2016-03-24T10:21:25Z</time>
      </trkpt>
      <trkpt lat="50.548919979482889" lon="6.198673965409398">
        <ele>615.68316100000004</ele>
        <time>2016-03-24T10:21:22Z</time>
      </trkpt>
      <trkpt lat="50.548877986148" lon="6.198637001216412">
        <ele>615.47682399999997</ele>
        <time>2016-03-24T10:21:19Z</time>
      </trkpt>
      <trkpt lat="50.548840016126633" lon="6.198583021759987">
        <ele>615.25734</ele>
        <time>2016-03-24T10:21:14Z</time>
      </trkpt>
      <trkpt lat="50.54863222874701" lon="6.198443714529276">
        <ele>614.00824699999998</ele>
        <time>2016-03-24T10:20:36Z</time>
      </trkpt>
      <trkpt lat="50.548540027812123" lon="6.198340030387044">
        <ele>613.80861700000003</ele>
        <time>2016-03-24T10:20:33Z</time>
      </trkpt>
      <trkpt lat="50.548489987850189" lon="6.198307005688548">
        <ele>613.576188</ele>
        <time>2016-03-24T10:20:30Z</time>
      </trkpt>
      <trkpt lat="50.548446988686919" lon="6.198276998475194">
        <ele>613.374551</ele>
        <time>2016-03-24T10:20:27Z</time>
      </trkpt>
      <trkpt lat="50.548397032544017" lon="6.198235005140305">
        <ele>613.13158599999997</ele>
        <time>2016-03-24T10:20:23Z</time>
      </trkpt>
      <trkpt lat="50.548350010067225" lon="6.198212038725615">
        <ele>612.92058799999995</ele>
        <time>2016-03-24T10:20:15Z</time>
      </trkpt>
      <trkpt lat="50.548306005075574" lon="6.198187982663512">
        <ele>612.720958</ele>
        <time>2016-03-24T10:20:12Z</time>
      </trkpt>
      <trkpt lat="50.54825596511364" lon="6.198171973228455">
        <ele>612.50222900000006</ele>
        <time>2016-03-24T10:20:09Z</time>
      </trkpt>
      <trkpt lat="50.548199974000454" lon="6.198144983500242">
        <ele>612.25115100000005</ele>
        <time>2016-03-24T10:20:05Z</time>
      </trkpt>
      <trkpt lat="50.548156974837184" lon="6.198118999600411">
        <ele>612.05367799999999</ele>
        <time>2016-03-24T10:20:02Z</time>
      </trkpt>
      <trkpt lat="50.548114981502295" lon="6.198097039014101">
        <ele>611.86391900000001</ele>
        <time>2016-03-24T10:19:59Z</time>
      </trkpt>
      <trkpt lat="50.548065025359392" lon="6.198081029579043">
        <ele>611.64518999999996</ele>
        <time>2016-03-24T10:19:56Z</time>
      </trkpt>
      <trkpt lat="50.548015991225839" lon="6.198073988780379">
        <ele>611.43426999999997</ele>
        <time>2016-03-24T10:19:53Z</time>
      </trkpt>
      <trkpt lat="50.547966035082936" lon="6.198058985173702">
        <ele>611.21606699999995</ele>
        <time>2016-03-24T10:19:50Z</time>
      </trkpt>
      <trkpt lat="50.547924041748047" lon="6.198038030415773">
        <ele>611.027151</ele>
        <time>2016-03-24T10:19:47Z</time>
      </trkpt>
      <trkpt lat="50.547880036756396" lon="6.198021015152335">
        <ele>610.83292700000004</ele>
        <time>2016-03-24T10:19:44Z</time>
      </trkpt>
      <trkpt lat="50.547824967652559" lon="6.198002994060516">
        <ele>610.57694600000002</ele>
        <time>2016-03-24T10:19:40Z</time>
      </trkpt>
      <trkpt lat="50.547769982367754" lon="6.197981033474207">
        <ele>610.31086400000004</ele>
        <time>2016-03-24T10:19:35Z</time>
      </trkpt>
      <trkpt lat="50.547725977376103" lon="6.197953959926963">
        <ele>610.08942999999999</ele>
        <time>2016-03-24T10:19:31Z</time>
      </trkpt>
      <trkpt lat="50.547671997919679" lon="6.197930993512273">
        <ele>609.82712800000002</ele>
        <time>2016-03-24T10:19:27Z</time>
      </trkpt>
      <trkpt lat="50.547615000978112" lon="6.197912972420454">
        <ele>609.55454099999997</ele>
        <time>2016-03-24T10:19:23Z</time>
      </trkpt>
      <trkpt lat="50.547569990158081" lon="6.197899980470538">
        <ele>609.34002099999998</ele>
        <time>2016-03-24T10:19:20Z</time>
      </trkpt>
      <trkpt lat="50.547511987388134" lon="6.1978829652071">
        <ele>609.06339700000001</ele>
        <time>2016-03-24T10:19:16Z</time>
      </trkpt>
      <trkpt lat="50.547469994053245" lon="6.197861004620791">
        <ele>608.85584700000004</ele>
        <time>2016-03-24T10:19:13Z</time>
      </trkpt>
      <trkpt lat="50.547423977404833" lon="6.19783996604383">
        <ele>608.63127199999997</ele>
        <time>2016-03-24T10:19:10Z</time>
      </trkpt>
      <trkpt lat="50.547379972413182" lon="6.197824962437153">
        <ele>608.42018099999996</ele>
        <time>2016-03-24T10:19:07Z</time>
      </trkpt>
      <trkpt lat="50.547333033755422" lon="6.197809036821127">
        <ele>608.19471299999998</ele>
        <time>2016-03-24T10:19:04Z</time>
      </trkpt>
      <trkpt lat="50.547282993793488" lon="6.19779403321445">
        <ele>607.956053</ele>
        <time>2016-03-24T10:19:01Z</time>
      </trkpt>
      <trkpt lat="50.547236977145076" lon="6.197780035436153">
        <ele>607.73637399999996</ele>
        <time>2016-03-24T10:18:58Z</time>
      </trkpt>
      <trkpt lat="50.547184003517032" lon="6.197752961888909">
        <ele>607.47517300000004</ele>
        <time>2016-03-24T10:18:54Z</time>
      </trkpt>
      <trkpt lat="50.547139998525381" lon="6.197729995474219">
        <ele>607.25778400000002</ele>
        <time>2016-03-24T10:18:50Z</time>
      </trkpt>
      <trkpt lat="50.547089958563447" lon="6.197709962725639">
        <ele>607.01589200000001</ele>
        <time>2016-03-24T10:18:46Z</time>
      </trkpt>
      <trkpt lat="50.547034973278642" lon="6.197690013796091">
        <ele>606.751215</ele>
        <time>2016-03-24T10:18:42Z</time>
      </trkpt>
      <trkpt lat="50.546977976337075" lon="6.197670986875892">
        <ele>606.478026</ele>
        <time>2016-03-24T10:18:38Z</time>
      </trkpt>
      <trkpt lat="50.546930031850934" lon="6.197655983269215">
        <ele>606.24857099999997</ele>
        <time>2016-03-24T10:18:35Z</time>
      </trkpt>
      <trkpt lat="50.546879991889" lon="6.197648020461202">
        <ele>606.012925</ele>
        <time>2016-03-24T10:18:32Z</time>
      </trkpt>
      <trkpt lat="50.546832969412208" lon="6.197639973834157">
        <ele>605.79126799999995</ele>
        <time>2016-03-24T10:18:29Z</time>
      </trkpt>
      <trkpt lat="50.546783013269305" lon="6.197626981884241">
        <ele>605.55365200000006</ele>
        <time>2016-03-24T10:18:26Z</time>
      </trkpt>
      <trkpt lat="50.546730039641261" lon="6.197616001591086">
        <ele>605.30299600000001</ele>
        <time>2016-03-24T10:18:23Z</time>
      </trkpt>
      <trkpt lat="50.546684022992849" lon="6.197608960792422">
        <ele>605.08630700000003</ele>
        <time>2016-03-24T10:18:20Z</time>
      </trkpt>
      <trkpt lat="50.546634988859296" lon="6.197603009641171">
        <ele>604.855863</ele>
        <time>2016-03-24T10:18:17Z</time>
      </trkpt>
      <trkpt lat="50.546592995524406" lon="6.197594963014126">
        <ele>604.65749800000003</ele>
        <time>2016-03-24T10:18:14Z</time>
      </trkpt>
      <trkpt lat="50.546543039381504" lon="6.197583982720971">
        <ele>604.42078100000003</ele>
        <time>2016-03-24T10:18:11Z</time>
      </trkpt>
      <trkpt lat="50.546485958620906" lon="6.197555987164378">
        <ele>604.14080300000001</ele>
        <time>2016-03-24T10:18:07Z</time>
      </trkpt>
      <trkpt lat="50.546440025791526" lon="6.197541989386082">
        <ele>603.92112399999996</ele>
        <time>2016-03-24T10:18:04Z</time>
      </trkpt>
      <trkpt lat="50.546394009143114" lon="6.197512988001108">
        <ele>603.68877699999996</ele>
        <time>2016-03-24T10:17:59Z</time>
      </trkpt>
      <trkpt lat="50.546340029686689" lon="6.197496978566051">
        <ele>603.43113600000004</ele>
        <time>2016-03-24T10:17:55Z</time>
      </trkpt>
      <trkpt lat="50.546289989724755" lon="6.197463031858206">
        <ele>603.175747</ele>
        <time>2016-03-24T10:17:49Z</time>
      </trkpt>
      <trkpt lat="50.546250008046627" lon="6.197415003553033">
        <ele>602.93988999999999</ele>
        <time>2016-03-24T10:17:44Z</time>
      </trkpt>
      <trkpt lat="50.546203991398215" lon="6.197374016046524">
        <ele>602.69201499999997</ele>
        <time>2016-03-24T10:17:40Z</time>
      </trkpt>
      <trkpt lat="50.546150011941791" lon="6.197341997176409">
        <ele>602.42146500000001</ele>
        <time>2016-03-24T10:17:36Z</time>
      </trkpt>
      <trkpt lat="50.546093015000224" lon="6.197311989963055">
        <ele>602.09620299999995</ele>
        <time>2016-03-24T10:17:32Z</time>
      </trkpt>
      <trkpt lat="50.546046998351812" lon="6.197285000234842">
        <ele>601.81066699999997</ele>
        <time>2016-03-24T10:17:29Z</time>
      </trkpt>
      <trkpt lat="50.545994024723768" lon="6.197254993021488">
        <ele>601.48309099999994</ele>
        <time>2016-03-24T10:17:25Z</time>
      </trkpt>
      <trkpt lat="50.545937027782202" lon="6.197225991636515">
        <ele>601.13468899999998</ele>
        <time>2016-03-24T10:17:22Z</time>
      </trkpt>
      <trkpt lat="50.545880030840635" lon="6.197206964716315">
        <ele>600.79582700000003</ele>
        <time>2016-03-24T10:17:19Z</time>
      </trkpt>
      <trkpt lat="50.545825967565179" lon="6.197187015786767">
        <ele>600.47318700000005</ele>
        <time>2016-03-24T10:17:15Z</time>
      </trkpt>
      <trkpt lat="50.545772993937135" lon="6.197165977209806">
        <ele>600.15532399999995</ele>
        <time>2016-03-24T10:17:11Z</time>
      </trkpt>
      <trkpt lat="50.545723037794232" lon="6.197167988866568">
        <ele>599.86443399999996</ele>
        <time>2016-03-24T10:17:07Z</time>
      </trkpt>
      <trkpt lat="50.545672997832298" lon="6.197174023836851">
        <ele>599.57279500000004</ele>
        <time>2016-03-24T10:17:03Z</time>
      </trkpt>
      <trkpt lat="50.545620024204254" lon="6.197160026058555">
        <ele>599.26023899999996</ele>
        <time>2016-03-24T10:16:59Z</time>
      </trkpt>
      <trkpt lat="50.54556998424232" lon="6.197113003581762">
        <ele>598.921515</ele>
        <time>2016-03-24T10:16:55Z</time>
      </trkpt>
      <trkpt lat="50.545539977028966" lon="6.197061035782099">
        <ele>598.66194599999994</ele>
        <time>2016-03-24T10:16:52Z</time>
      </trkpt>
      <trkpt lat="50.545482980087399" lon="6.197049971669912">
        <ele>598.32795499999997</ele>
        <time>2016-03-24T10:16:49Z</time>
      </trkpt>
      <trkpt lat="50.545450039207935" lon="6.196985011920333">
        <ele>598.02047500000003</ele>
        <time>2016-03-24T10:16:45Z</time>
      </trkpt>
      <trkpt lat="50.545424977317452" lon="6.196902031078935">
        <ele>597.68100800000002</ele>
        <time>2016-03-24T10:16:41Z</time>
      </trkpt>
      <trkpt lat="50.545409973710775" lon="6.196818966418505">
        <ele>597.36209199999996</ele>
        <time>2016-03-24T10:16:38Z</time>
      </trkpt>
      <trkpt lat="50.545382983982563" lon="6.19674202054739">
        <ele>597.03706499999998</ele>
        <time>2016-03-24T10:16:35Z</time>
      </trkpt>
      <trkpt lat="50.545360017567873" lon="6.196675971150398">
        <ele>596.75887</ele>
        <time>2016-03-24T10:16:33Z</time>
      </trkpt>
      <trkpt lat="50.545325987040997" lon="6.196608999744058">
        <ele>596.44198400000005</ele>
        <time>2016-03-24T10:16:30Z</time>
      </trkpt>
      <trkpt lat="50.545279970392585" lon="6.196558037772775">
        <ele>596.11472200000003</ele>
        <time>2016-03-24T10:16:25Z</time>
      </trkpt>
      <trkpt lat="50.545249963179231" lon="6.196503974497318">
        <ele>595.84963200000004</ele>
        <time>2016-03-24T10:16:22Z</time>
      </trkpt>
      <trkpt lat="50.545220039784908" lon="6.196446977555752">
        <ele>595.576099</ele>
        <time>2016-03-24T10:16:19Z</time>
      </trkpt>
      <trkpt lat="50.545177040621638" lon="6.196374977007508">
        <ele>595.21092599999997</ele>
        <time>2016-03-24T10:16:16Z</time>
      </trkpt>
      <trkpt lat="50.545134963467717" lon="6.196313034743071">
        <ele>594.87600399999997</ele>
        <time>2016-03-24T10:16:10Z</time>
      </trkpt>
      <trkpt lat="50.545100010931492" lon="6.196236005052924">
        <ele>594.526117</ele>
        <time>2016-03-24T10:16:06Z</time>
      </trkpt>
      <trkpt lat="50.54507402703166" lon="6.196182025596499">
        <ele>594.27572599999996</ele>
        <time>2016-03-24T10:16:03Z</time>
      </trkpt>
      <trkpt lat="50.545030022040009" lon="6.196115976199508">
        <ele>593.92219399999999</ele>
        <time>2016-03-24T10:15:59Z</time>
      </trkpt>
      <trkpt lat="50.544993979856372" lon="6.196071971207857">
        <ele>593.65708800000004</ele>
        <time>2016-03-24T10:15:56Z</time>
      </trkpt>
      <trkpt lat="50.544956009835005" lon="6.19603400118649">
        <ele>593.39523499999996</ele>
        <time>2016-03-24T10:15:53Z</time>
      </trkpt>
      <trkpt lat="50.544903036206961" lon="6.195983961224556">
        <ele>593.035844</ele>
        <time>2016-03-24T10:15:49Z</time>
      </trkpt>
      <trkpt lat="50.544860037043691" lon="6.195954037830234">
        <ele>592.76228400000002</ele>
        <time>2016-03-24T10:15:46Z</time>
      </trkpt>
      <trkpt lat="50.544819971546531" lon="6.19592696428299">
        <ele>592.50914899999998</ele>
        <time>2016-03-24T10:15:43Z</time>
      </trkpt>
      <trkpt lat="50.544770015403628" lon="6.195890000090003">
        <ele>592.18780500000003</ele>
        <time>2016-03-24T10:15:39Z</time>
      </trkpt>
      <trkpt lat="50.544727016240358" lon="6.19586099870503">
        <ele>591.91572199999996</ele>
        <time>2016-03-24T10:15:36Z</time>
      </trkpt>
      <trkpt lat="50.544673958793283" lon="6.195826968178153">
        <ele>591.33425999999997</ele>
        <time>2016-03-24T10:15:32Z</time>
      </trkpt>
      <trkpt lat="50.54462400265038" lon="6.19579897262156">
        <ele>590.74841800000002</ele>
        <time>2016-03-24T10:15:28Z</time>
      </trkpt>
      <trkpt lat="50.544570023193955" lon="6.195767037570477">
        <ele>590.11146199999996</ele>
        <time>2016-03-24T10:15:24Z</time>
      </trkpt>
      <trkpt lat="50.544519983232021" lon="6.195751028135419">
        <ele>589.54823099999999</ele>
        <time>2016-03-24T10:15:20Z</time>
      </trkpt>
      <trkpt lat="50.544480001553893" lon="6.195720015093684">
        <ele>589.05603799999994</ele>
        <time>2016-03-24T10:15:16Z</time>
      </trkpt>
      <trkpt lat="50.544421998783946" lon="6.195699982345104">
        <ele>588.40060200000005</ele>
        <time>2016-03-24T10:15:12Z</time>
      </trkpt>
      <trkpt lat="50.544372964650393" lon="6.195680033415556">
        <ele>587.84180600000002</ele>
        <time>2016-03-24T10:15:08Z</time>
      </trkpt>
      <trkpt lat="50.54432300850749" lon="6.195672992616892">
        <ele>587.287691</ele>
        <time>2016-03-24T10:15:05Z</time>
      </trkpt>
      <trkpt lat="50.544276991859078" lon="6.195656983181834">
        <ele>586.76765399999999</ele>
        <time>2016-03-24T10:15:02Z</time>
      </trkpt>
      <trkpt lat="50.544219994917512" lon="6.195642985403538">
        <ele>586.13082999999995</ele>
        <time>2016-03-24T10:14:58Z</time>
      </trkpt>
      <trkpt lat="50.5441739782691" lon="6.195595040917397">
        <ele>585.52155300000004</ele>
        <time>2016-03-24T10:14:53Z</time>
      </trkpt>
      <trkpt lat="50.54412997327745" lon="6.19556000456214">
        <ele>584.97732099999996</ele>
        <time>2016-03-24T10:14:50Z</time>
      </trkpt>
      <trkpt lat="50.544083034619689" lon="6.195527985692024">
        <ele>584.41202199999998</ele>
        <time>2016-03-24T10:14:47Z</time>
      </trkpt>
      <trkpt lat="50.54404397495091" lon="6.19549797847867">
        <ele>583.93282799999997</ele>
        <time>2016-03-24T10:14:44Z</time>
      </trkpt>
      <trkpt lat="50.543999969959259" lon="6.195470988750458">
        <ele>583.41150200000004</ele>
        <time>2016-03-24T10:14:41Z</time>
      </trkpt>
      <trkpt lat="50.543944984674454" lon="6.195424972102046">
        <ele>582.72394699999995</ele>
        <time>2016-03-24T10:14:37Z</time>
      </trkpt>
      <trkpt lat="50.543896034359932" lon="6.195394964888692">
        <ele>582.143552</ele>
        <time>2016-03-24T10:14:33Z</time>
      </trkpt>
      <trkpt lat="50.543845994397998" lon="6.195374010130763">
        <ele>581.57229600000005</ele>
        <time>2016-03-24T10:14:30Z</time>
      </trkpt>
      <trkpt lat="50.543799977749586" lon="6.195363029837608">
        <ele>581.05868599999997</ele>
        <time>2016-03-24T10:14:27Z</time>
      </trkpt>
      <trkpt lat="50.543747004121542" lon="6.195350037887693">
        <ele>580.46657000000005</ele>
        <time>2016-03-24T10:14:23Z</time>
      </trkpt>
      <trkpt lat="50.543696964159608" lon="6.195321958512068">
        <ele>579.88072599999998</ele>
        <time>2016-03-24T10:14:18Z</time>
      </trkpt>
      <trkpt lat="50.543550029397011" lon="6.195225985720754">
        <ele>577.95273399999996</ele>
        <time>2016-03-24T10:14:08Z</time>
      </trkpt>
      <trkpt lat="50.543335033580661" lon="6.195206036791205">
        <ele>575.43802900000003</ele>
        <time>2016-03-24T10:13:52Z</time>
      </trkpt>
      <trkpt lat="50.54326999001205" lon="6.1951959785074">
        <ele>574.71709199999998</ele>
        <time>2016-03-24T10:13:50Z</time>
      </trkpt>
      <trkpt lat="50.543223973363638" lon="6.195198995992541">
        <ele>574.20887600000003</ele>
        <time>2016-03-24T10:13:48Z</time>
      </trkpt>
      <trkpt lat="50.543179968371987" lon="6.195178041234613">
        <ele>573.701323</ele>
        <time>2016-03-24T10:13:45Z</time>
      </trkpt>
      <trkpt lat="50.543130012229085" lon="6.195158008486033">
        <ele>573.13183500000002</ele>
        <time>2016-03-24T10:13:42Z</time>
      </trkpt>
      <trkpt lat="50.543106039986014" lon="6.195079972967506">
        <ele>572.52389700000003</ele>
        <time>2016-03-24T10:13:38Z</time>
      </trkpt>
      <trkpt lat="50.543124983087182" lon="6.195016019046307">
        <ele>572.02835900000002</ele>
        <time>2016-03-24T10:13:35Z</time>
      </trkpt>
      <trkpt lat="50.543175023049116" lon="6.194968996569514">
        <ele>571.21257300000002</ele>
        <time>2016-03-24T10:13:32Z</time>
      </trkpt>
      <trkpt lat="50.543223973363638" lon="6.194932032376528">
        <ele>570.44521699999996</ele>
        <time>2016-03-24T10:13:29Z</time>
      </trkpt>
      <trkpt lat="50.543278036639094" lon="6.194889033213258">
        <ele>569.590735</ele>
        <time>2016-03-24T10:13:25Z</time>
      </trkpt>
      <trkpt lat="50.543320029973984" lon="6.19483295828104">
        <ele>568.81349299999999</ele>
        <time>2016-03-24T10:13:21Z</time>
      </trkpt>
      <trkpt lat="50.543339978903532" lon="6.194762969389558">
        <ele>568.12486100000001</ele>
        <time>2016-03-24T10:13:17Z</time>
      </trkpt>
      <trkpt lat="50.543309971690178" lon="6.194694992154837">
        <ele>567.38211999999999</ele>
        <time>2016-03-24T10:13:13Z</time>
      </trkpt>
      <trkpt lat="50.543193463236094" lon="6.194576052948833">
        <ele>564.90134599999999</ele>
        <time>2016-03-24T10:13:05Z</time>
      </trkpt>
      <trkpt lat="50.543045187368989" lon="6.194547219201922">
        <ele>564.092804</ele>
        <time>2016-03-24T10:13:00Z</time>
      </trkpt>
      <trkpt lat="50.542976036667824" lon="6.194677976891398">
        <ele>562.57153300000004</ele>
        <time>2016-03-24T10:12:52Z</time>
      </trkpt>
      <trkpt lat="50.542919961735606" lon="6.194686023518443">
        <ele>561.77762399999995</ele>
        <time>2016-03-24T10:12:47Z</time>
      </trkpt>
      <trkpt lat="50.542873023077846" lon="6.194717958569527">
        <ele>561.05458299999998</ele>
        <time>2016-03-24T10:12:42Z</time>
      </trkpt>
      <trkpt lat="50.542830023914576" lon="6.194750983268023">
        <ele>560.37911499999996</ele>
        <time>2016-03-24T10:12:38Z</time>
      </trkpt>
      <trkpt lat="50.54277797229588" lon="6.194778978824616">
        <ele>559.60313799999994</ele>
        <time>2016-03-24T10:12:34Z</time>
      </trkpt>
      <trkpt lat="50.5427320394665" lon="6.19483002461493">
        <ele>558.80865100000005</ele>
        <time>2016-03-24T10:12:30Z</time>
      </trkpt>
      <trkpt lat="50.542686022818089" lon="6.194878974929452">
        <ele>558.02436299999999</ele>
        <time>2016-03-24T10:12:26Z</time>
      </trkpt>
      <trkpt lat="50.542649980634451" lon="6.194924991577864">
        <ele>557.36960899999997</ele>
        <time>2016-03-24T10:12:23Z</time>
      </trkpt>
      <trkpt lat="50.542600024491549" lon="6.194967990741134">
        <ele>556.565112</ele>
        <time>2016-03-24T10:12:19Z</time>
      </trkpt>
      <trkpt lat="50.542553002014756" lon="6.195005960762501">
        <ele>555.81905400000005</ele>
        <time>2016-03-24T10:12:16Z</time>
      </trkpt>
      <trkpt lat="50.542506985366344" lon="6.195065975189209">
        <ele>554.97546699999998</ele>
        <time>2016-03-24T10:12:12Z</time>
      </trkpt>
      <trkpt lat="50.542459962889552" lon="6.195108974352479">
        <ele>554.20786799999996</ele>
        <time>2016-03-24T10:12:09Z</time>
      </trkpt>
      <trkpt lat="50.542403971776366" lon="6.195144010707736">
        <ele>553.35712599999999</ele>
        <time>2016-03-24T10:12:06Z</time>
      </trkpt>
      <trkpt lat="50.5423469748348" lon="6.195172006264329">
        <ele>552.51404600000001</ele>
        <time>2016-03-24T10:12:03Z</time>
      </trkpt>
      <trkpt lat="50.542294001206756" lon="6.195206958800554">
        <ele>551.70251800000005</ele>
        <time>2016-03-24T10:12:00Z</time>
      </trkpt>
      <trkpt lat="50.542247984558344" lon="6.195252975448966">
        <ele>550.93299400000001</ele>
        <time>2016-03-24T10:11:57Z</time>
      </trkpt>
      <trkpt lat="50.542200040072203" lon="6.195292035117745">
        <ele>550.17027499999995</ele>
        <time>2016-03-24T10:11:54Z</time>
      </trkpt>
      <trkpt lat="50.54215201176703" lon="6.195341991260648">
        <ele>549.357527</ele>
        <time>2016-03-24T10:11:51Z</time>
      </trkpt>
      <trkpt lat="50.542099960148335" lon="6.195371998474002">
        <ele>548.57555400000001</ele>
        <time>2016-03-24T10:11:47Z</time>
      </trkpt>
      <trkpt lat="50.542053021490574" lon="6.195398988202214">
        <ele>547.86912700000005</ele>
        <time>2016-03-24T10:11:44Z</time>
      </trkpt>
      <trkpt lat="50.542010022327304" lon="6.19543100707233">
        <ele>547.197541</ele>
        <time>2016-03-24T10:11:41Z</time>
      </trkpt>
      <trkpt lat="50.54198001511395" lon="6.195489009842277">
        <ele>546.59450300000003</ele>
        <time>2016-03-24T10:11:38Z</time>
      </trkpt>
      <trkpt lat="50.541950007900596" lon="6.195543995127082">
        <ele>546.47285899999997</ele>
        <time>2016-03-24T10:11:35Z</time>
      </trkpt>
      <trkpt lat="50.541897034272552" lon="6.195577019825578">
        <ele>546.32233399999996</ele>
        <time>2016-03-24T10:11:31Z</time>
      </trkpt>
      <trkpt lat="50.541846994310617" lon="6.195609960705042">
        <ele>546.17914699999994</ele>
        <time>2016-03-24T10:11:28Z</time>
      </trkpt>
      <trkpt lat="50.54118700325489" lon="6.196174984797835">
        <ele>544.18816300000003</ele>
        <time>2016-03-24T10:11:01Z</time>
      </trkpt>
      <trkpt lat="50.541121959686279" lon="6.196214966475964">
        <ele>544.00384599999995</ele>
        <time>2016-03-24T10:10:59Z</time>
      </trkpt>
      <trkpt lat="50.541060017421842" lon="6.196251008659601">
        <ele>543.82932100000005</ele>
        <time>2016-03-24T10:10:57Z</time>
      </trkpt>
      <trkpt lat="50.541007965803146" lon="6.196281015872955">
        <ele>543.68305699999996</ele>
        <time>2016-03-24T10:10:55Z</time>
      </trkpt>
      <trkpt lat="50.540954992175102" lon="6.196285961195827">
        <ele>543.54284099999995</ele>
        <time>2016-03-24T10:10:52Z</time>
      </trkpt>
      <trkpt lat="50.540900006890297" lon="6.196271041408181">
        <ele>543.39542800000004</ele>
        <time>2016-03-24T10:10:48Z</time>
      </trkpt>
      <trkpt lat="50.540854996070266" lon="6.196257965639234">
        <ele>543.27460299999996</ele>
        <time>2016-03-24T10:10:45Z</time>
      </trkpt>
      <trkpt lat="50.540805961936712" lon="6.196264000609517">
        <ele>543.14481000000001</ele>
        <time>2016-03-24T10:10:42Z</time>
      </trkpt>
      <trkpt lat="50.54075600579381" lon="6.196303982287645">
        <ele>542.99668099999997</ele>
        <time>2016-03-24T10:10:38Z</time>
      </trkpt>
      <trkpt lat="50.54071401245892" lon="6.196316974237561">
        <ele>542.88363900000002</ele>
        <time>2016-03-24T10:10:35Z</time>
      </trkpt>
      <trkpt lat="50.540657015517354" lon="6.196342036128044">
        <ele>542.72737199999995</ele>
        <time>2016-03-24T10:10:31Z</time>
      </trkpt>
      <trkpt lat="50.540615022182465" lon="6.196376988664269">
        <ele>542.60186099999999</ele>
        <time>2016-03-24T10:10:27Z</time>
      </trkpt>
      <trkpt lat="50.540576968342066" lon="6.196444965898991">
        <ele>542.44988899999998</ele>
        <time>2016-03-24T10:10:23Z</time>
      </trkpt>
      <trkpt lat="50.540543021634221" lon="6.196523001417518">
        <ele>542.29114400000003</ele>
        <time>2016-03-24T10:10:19Z</time>
      </trkpt>
      <trkpt lat="50.540512008592486" lon="6.196581004187465">
        <ele>542.163951</ele>
        <time>2016-03-24T10:10:16Z</time>
      </trkpt>
      <trkpt lat="50.540479989722371" lon="6.196653004735708">
        <ele>542.01649299999997</ele>
        <time>2016-03-24T10:10:12Z</time>
      </trkpt>
      <trkpt lat="50.54045501165092" lon="6.196711007505655">
        <ele>541.89887099999999</ele>
        <time>2016-03-24T10:10:09Z</time>
      </trkpt>
      <trkpt lat="50.540430033579469" lon="6.196791976690292">
        <ele>542.00622899999996</ele>
        <time>2016-03-24T10:10:05Z</time>
      </trkpt>
      <trkpt lat="50.540410000830889" lon="6.196878980845213">
        <ele>542.20790899999997</ele>
        <time>2016-03-24T10:10:01Z</time>
      </trkpt>
      <trkpt lat="50.540386028587818" lon="6.196944024413824">
        <ele>542.37178200000005</ele>
        <time>2016-03-24T10:09:58Z</time>
      </trkpt>
      <trkpt lat="50.540362978354096" lon="6.197029016911984">
        <ele>542.573172</ele>
        <time>2016-03-24T10:09:54Z</time>
      </trkpt>
      <trkpt lat="50.540344035252929" lon="6.197101017460227">
        <ele>542.74311999999998</ele>
        <time>2016-03-24T10:09:50Z</time>
      </trkpt>
      <trkpt lat="50.540325008332729" lon="6.197177041321993">
        <ele>542.92115200000001</ele>
        <time>2016-03-24T10:09:46Z</time>
      </trkpt>
      <trkpt lat="50.540300030261278" lon="6.197255998849869">
        <ele>543.11353499999996</ele>
        <time>2016-03-24T10:09:42Z</time>
      </trkpt>
      <trkpt lat="50.540123004466295" lon="6.197632011026144">
        <ele>544.15539100000001</ele>
        <time>2016-03-24T10:09:22Z</time>
      </trkpt>
      <trkpt lat="50.540070030838251" lon="6.197668975219131">
        <ele>544.35427500000003</ele>
        <time>2016-03-24T10:09:19Z</time>
      </trkpt>
      <trkpt lat="50.540015967562795" lon="6.197701999917626">
        <ele>544.55297900000005</ele>
        <time>2016-03-24T10:09:16Z</time>
      </trkpt>
      <trkpt lat="50.539959976449609" lon="6.197735024616122">
        <ele>544.75809200000003</ele>
        <time>2016-03-24T10:09:13Z</time>
      </trkpt>
      <trkpt lat="50.539905996993184" lon="6.197744999080896">
        <ele>544.94459500000005</ele>
        <time>2016-03-24T10:09:10Z</time>
      </trkpt>
      <trkpt lat="50.539852017536759" lon="6.197733012959361">
        <ele>545.13165700000002</ele>
        <time>2016-03-24T10:09:06Z</time>
      </trkpt>
      <trkpt lat="50.539806000888348" lon="6.197706023231149">
        <ele>545.30006100000003</ele>
        <time>2016-03-24T10:09:01Z</time>
      </trkpt>
      <trkpt lat="50.539756966754794" lon="6.197703005746007">
        <ele>545.46826199999998</ele>
        <time>2016-03-24T10:08:58Z</time>
      </trkpt>
      <trkpt lat="50.539707010611892" lon="6.197692025452852">
        <ele>545.641434</ele>
        <time>2016-03-24T10:08:55Z</time>
      </trkpt>
      <trkpt lat="50.539654036983848" lon="6.197661012411118">
        <ele>545.83538299999998</ele>
        <time>2016-03-24T10:08:51Z</time>
      </trkpt>
      <trkpt lat="50.539608020335436" lon="6.197676016017795">
        <ele>545.99651900000003</ele>
        <time>2016-03-24T10:08:46Z</time>
      </trkpt>
      <trkpt lat="50.539573989808559" lon="6.197732007130981">
        <ele>546.16534999999999</ele>
        <time>2016-03-24T10:08:42Z</time>
      </trkpt>
      <trkpt lat="50.539559992030263" lon="6.197808030992746">
        <ele>546.33784700000001</ele>
        <time>2016-03-24T10:08:38Z</time>
      </trkpt>
      <trkpt lat="50.539559992030263" lon="6.19788003154099">
        <ele>546.49480500000004</ele>
        <time>2016-03-24T10:08:35Z</time>
      </trkpt>
      <trkpt lat="50.53955496288836" lon="6.197953037917614">
        <ele>546.65486399999998</ele>
        <time>2016-03-24T10:08:32Z</time>
      </trkpt>
      <trkpt lat="50.539485979825258" lon="6.198191000148654">
        <ele>547.23875699999996</ele>
        <time>2016-03-24T10:08:22Z</time>
      </trkpt>
      <trkpt lat="50.539467036724091" lon="6.1982680298388">
        <ele>547.41882299999997</ele>
        <time>2016-03-24T10:08:18Z</time>
      </trkpt>
      <trkpt lat="50.539443986490369" lon="6.198341958224773">
        <ele>547.59839799999997</ele>
        <time>2016-03-24T10:08:14Z</time>
      </trkpt>
      <trkpt lat="50.539410039782524" lon="6.198399960994721">
        <ele>547.77040899999997</ele>
        <time>2016-03-24T10:08:10Z</time>
      </trkpt>
      <trkpt lat="50.539364023134112" lon="6.198428040370345">
        <ele>547.93958699999996</ele>
        <time>2016-03-24T10:08:06Z</time>
      </trkpt>
      <trkpt lat="50.539318006485701" lon="6.198438014835119">
        <ele>548.13130799999999</ele>
        <time>2016-03-24T10:08:03Z</time>
      </trkpt>
      <trkpt lat="50.539271989837289" lon="6.198408007621765">
        <ele>548.38217099999997</ele>
        <time>2016-03-24T10:08:00Z</time>
      </trkpt>
      <trkpt lat="50.539223039522767" lon="6.198364002630115">
        <ele>548.66639999999995</ele>
        <time>2016-03-24T10:07:56Z</time>
      </trkpt>
      <trkpt lat="50.539172999560833" lon="6.198339024558663">
        <ele>548.93070899999998</ele>
        <time>2016-03-24T10:07:53Z</time>
      </trkpt>
      <trkpt lat="50.539116002619267" lon="6.198318991810083">
        <ele>549.22492399999999</ele>
        <time>2016-03-24T10:07:50Z</time>
      </trkpt>
      <trkpt lat="50.539060011506081" lon="6.198340030387044">
        <ele>549.51495</ele>
        <time>2016-03-24T10:07:44Z</time>
      </trkpt>
      <trkpt lat="50.539009971544147" lon="6.19837598875165">
        <ele>549.791966</ele>
        <time>2016-03-24T10:07:41Z</time>
      </trkpt>
      <trkpt lat="50.538963032886386" lon="6.198390992358327">
        <ele>550.03357100000005</ele>
        <time>2016-03-24T10:07:39Z</time>
      </trkpt>
      <trkpt lat="50.538920033723116" lon="6.198430974036455">
        <ele>550.28522899999996</ele>
        <time>2016-03-24T10:07:36Z</time>
      </trkpt>
      <trkpt lat="50.538879968225956" lon="6.198494005948305">
        <ele>550.57035900000005</ele>
        <time>2016-03-24T10:07:32Z</time>
      </trkpt>
      <trkpt lat="50.538839986547828" lon="6.198534993454814">
        <ele>550.81086400000004</ele>
        <time>2016-03-24T10:07:28Z</time>
      </trkpt>
      <trkpt lat="50.538806961849332" lon="6.198584027588368">
        <ele>551.03945699999997</ele>
        <time>2016-03-24T10:07:24Z</time>
      </trkpt>
      <trkpt lat="50.538773015141487" lon="6.198631972074509">
        <ele>551.269589</ele>
        <time>2016-03-24T10:07:20Z</time>
      </trkpt>
      <trkpt lat="50.538742002099752" lon="6.198696009814739">
        <ele>551.52723900000001</ele>
        <time>2016-03-24T10:07:16Z</time>
      </trkpt>
      <trkpt lat="50.538709983229637" lon="6.198744960129261">
        <ele>551.75219400000003</ele>
        <time>2016-03-24T10:07:12Z</time>
      </trkpt>
      <trkpt lat="50.538517031818628" lon="6.198989963158965">
        <ele>553.02218900000003</ele>
        <time>2016-03-24T10:06:54Z</time>
      </trkpt>
      <trkpt lat="50.53847998380661" lon="6.199031034484506">
        <ele>553.250181</ele>
        <time>2016-03-24T10:06:51Z</time>
      </trkpt>
      <trkpt lat="50.538440002128482" lon="6.199070010334253">
        <ele>553.48725200000001</ele>
        <time>2016-03-24T10:06:48Z</time>
      </trkpt>
      <trkpt lat="50.538289966061711" lon="6.198914023116231">
        <ele>554.89222500000005</ele>
        <time>2016-03-24T10:06:31Z</time>
      </trkpt>
      <trkpt lat="50.538240009918809" lon="6.198879992589355">
        <ele>555.16663900000003</ele>
        <time>2016-03-24T10:06:27Z</time>
      </trkpt>
      <trkpt lat="50.538189969956875" lon="6.198874963447452">
        <ele>555.41904399999999</ele>
        <time>2016-03-24T10:06:23Z</time>
      </trkpt>
      <trkpt lat="50.538143031299114" lon="6.19884897954762">
        <ele>555.67003499999998</ele>
        <time>2016-03-24T10:06:19Z</time>
      </trkpt>
      <trkpt lat="50.538110006600618" lon="6.198797011747956">
        <ele>555.90532599999995</ele>
        <time>2016-03-24T10:06:15Z</time>
      </trkpt>
      <trkpt lat="50.538089973852038" lon="6.198725011199713">
        <ele>556.15692100000001</ele>
        <time>2016-03-24T10:06:10Z</time>
      </trkpt>
      <trkpt lat="50.538073964416981" lon="6.198656028136611">
        <ele>556.39210000000003</ele>
        <time>2016-03-24T10:06:06Z</time>
      </trkpt>
      <trkpt lat="50.538047980517149" lon="6.198585033416748">
        <ele>556.65447300000005</ele>
        <time>2016-03-24T10:06:02Z</time>
      </trkpt>
      <trkpt lat="50.538001963868737" lon="6.19852895848453">
        <ele>556.94748600000003</ele>
        <time>2016-03-24T10:05:58Z</time>
      </trkpt>
      <trkpt lat="50.537952007725835" lon="6.19848302565515">
        <ele>557.40384600000004</ele>
        <time>2016-03-24T10:05:54Z</time>
      </trkpt>
      <trkpt lat="50.537906996905804" lon="6.198458969593048">
        <ele>557.90904799999998</ele>
        <time>2016-03-24T10:05:51Z</time>
      </trkpt>
      <trkpt lat="50.537849999964237" lon="6.198453018441796">
        <ele>558.51645399999995</ele>
        <time>2016-03-24T10:05:48Z</time>
      </trkpt>
      <trkpt lat="50.537803983315825" lon="6.198446983471513">
        <ele>559.00722499999995</ele>
        <time>2016-03-24T10:05:45Z</time>
      </trkpt>
      <trkpt lat="50.537754027172923" lon="6.198426028713584">
        <ele>559.55746399999998</ele>
        <time>2016-03-24T10:05:42Z</time>
      </trkpt>
      <trkpt lat="50.537697030231357" lon="6.198411025106907">
        <ele>560.17193399999996</ele>
        <time>2016-03-24T10:05:38Z</time>
      </trkpt>
      <trkpt lat="50.537650007754564" lon="6.198411025106907">
        <ele>560.67165999999997</ele>
        <time>2016-03-24T10:05:35Z</time>
      </trkpt>
      <trkpt lat="50.537598039954901" lon="6.198410019278526">
        <ele>561.22459000000003</ele>
        <time>2016-03-24T10:05:31Z</time>
      </trkpt>
      <trkpt lat="50.537550011649728" lon="6.198398033156991">
        <ele>561.74135100000001</ele>
        <time>2016-03-24T10:05:28Z</time>
      </trkpt>
      <trkpt lat="50.537434006109834" lon="6.198237016797066">
        <ele>563.50131299999998</ele>
        <time>2016-03-24T10:05:16Z</time>
      </trkpt>
      <trkpt lat="50.537420008331537" lon="6.198157975450158">
        <ele>564.05553699999996</ele>
        <time>2016-03-24T10:05:12Z</time>
      </trkpt>
      <trkpt lat="50.537395030260086" lon="6.198093015700579">
        <ele>564.56895599999996</ele>
        <time>2016-03-24T10:05:08Z</time>
      </trkpt>
      <trkpt lat="50.537345996126533" lon="6.198078012093902">
        <ele>565.09971599999994</ele>
        <time>2016-03-24T10:05:04Z</time>
      </trkpt>
      <trkpt lat="50.537299979478121" lon="6.198079017922282">
        <ele>565.58885699999996</ele>
        <time>2016-03-24T10:05:00Z</time>
      </trkpt>
      <trkpt lat="50.537250023335218" lon="6.198078012093902">
        <ele>566.12052300000005</ele>
        <time>2016-03-24T10:04:55Z</time>
      </trkpt>
      <trkpt lat="50.537196965888143" lon="6.198067031800747">
        <ele>566.68892600000004</ele>
        <time>2016-03-24T10:04:51Z</time>
      </trkpt>
      <trkpt lat="50.537136029452085" lon="6.198060996830463">
        <ele>567.33877299999995</ele>
        <time>2016-03-24T10:04:47Z</time>
      </trkpt>
      <trkpt lat="50.537085989490151" lon="6.198045993223786">
        <ele>567.87997499999994</ele>
        <time>2016-03-24T10:04:43Z</time>
      </trkpt>
      <trkpt lat="50.536986999213696" lon="6.198028977960348">
        <ele>568.94063100000005</ele>
        <time>2016-03-24T10:04:35Z</time>
      </trkpt>
      <trkpt lat="50.53684601560235" lon="6.197997964918613">
        <ele>570.48610499999995</ele>
        <time>2016-03-24T10:04:21Z</time>
      </trkpt>
      <trkpt lat="50.536792958155274" lon="6.198001988232136">
        <ele>571.05027399999994</ele>
        <time>2016-03-24T10:04:17Z</time>
      </trkpt>
      <trkpt lat="50.53673998452723" lon="6.197999976575375">
        <ele>571.61395700000003</ele>
        <time>2016-03-24T10:04:13Z</time>
      </trkpt>
      <trkpt lat="50.536690028384328" lon="6.198002994060516">
        <ele>572.14596700000004</ele>
        <time>2016-03-24T10:04:09Z</time>
      </trkpt>
      <trkpt lat="50.536430021747947" lon="6.197720021009445">
        <ele>575.708482</ele>
        <time>2016-03-24T10:02:10Z</time>
      </trkpt>
      <trkpt lat="50.53639599122107" lon="6.197657994925976">
        <ele>576.23592199999996</ele>
        <time>2016-03-24T10:02:05Z</time>
      </trkpt>
      <trkpt lat="50.53633002564311" lon="6.19764500297606">
        <ele>576.550611</ele>
        <time>2016-03-24T10:02:02Z</time>
      </trkpt>
      <trkpt lat="50.53626598790288" lon="6.197633016854525">
        <ele>576.85554300000001</ele>
        <time>2016-03-24T10:01:59Z</time>
      </trkpt>
      <trkpt lat="50.536213014274836" lon="6.197536960244179">
        <ele>577.30385100000001</ele>
        <time>2016-03-24T10:01:38Z</time>
      </trkpt>
      <trkpt lat="50.535786040127277" lon="6.197076039388776">
        <ele>579.89183700000001</ele>
        <time>2016-03-24T10:01:02Z</time>
      </trkpt>
      <trkpt lat="50.535740023478866" lon="6.197024993598461">
        <ele>580.15807400000006</ele>
        <time>2016-03-24T10:00:58Z</time>
      </trkpt>
      <trkpt lat="50.535689983516932" lon="6.196962967514992">
        <ele>580.45926599999996</ele>
        <time>2016-03-24T10:00:54Z</time>
      </trkpt>
      <trkpt lat="50.535650001838803" lon="6.196928014978766">
        <ele>580.67580699999996</ele>
        <time>2016-03-24T10:00:51Z</time>
      </trkpt>
      <trkpt lat="50.535599961876869" lon="6.196903958916664">
        <ele>580.92312500000003</ele>
        <time>2016-03-24T10:00:47Z</time>
      </trkpt>
      <trkpt lat="50.535559980198741" lon="6.196858026087284">
        <ele>581.15753299999994</ele>
        <time>2016-03-24T10:00:43Z</time>
      </trkpt>
      <trkpt lat="50.535519998520613" lon="6.196825001388788">
        <ele>581.371216</ele>
        <time>2016-03-24T10:00:40Z</time>
      </trkpt>
      <trkpt lat="50.535110039636493" lon="6.196542028337717">
        <ele>583.51273400000002</ele>
        <time>2016-03-24T10:00:07Z</time>
      </trkpt>
      <trkpt lat="50.535059999674559" lon="6.196515038609505">
        <ele>583.762834</ele>
        <time>2016-03-24T10:00:03Z</time>
      </trkpt>
      <trkpt lat="50.53502001799643" lon="6.196478996425867">
        <ele>583.98085300000002</ele>
        <time>2016-03-24T10:00:00Z</time>
      </trkpt>
      <trkpt lat="50.534972995519638" lon="6.196453012526035">
        <ele>584.21655899999996</ele>
        <time>2016-03-24T09:59:57Z</time>
      </trkpt>
      <trkpt lat="50.534926978871226" lon="6.196417976170778">
        <ele>584.458303</ele>
        <time>2016-03-24T09:59:54Z</time>
      </trkpt>
      <trkpt lat="50.534874005243182" lon="6.196369025856257">
        <ele>584.72598200000004</ele>
        <time>2016-03-24T09:59:51Z</time>
      </trkpt>
      <trkpt lat="50.534832011908293" lon="6.196346981450915">
        <ele>584.73736299999996</ele>
        <time>2016-03-24T09:59:49Z</time>
      </trkpt>
      <trkpt lat="50.534785995259881" lon="6.19629199616611">
        <ele>584.75221699999997</ele>
        <time>2016-03-24T09:59:44Z</time>
      </trkpt>
      <trkpt lat="50.534739978611469" lon="6.196266012266278">
        <ele>584.76478299999997</ele>
        <time>2016-03-24T09:59:40Z</time>
      </trkpt>
      <trkpt lat="50.534690022468567" lon="6.196233993396163">
        <ele>584.77866100000006</ele>
        <time>2016-03-24T09:59:36Z</time>
      </trkpt>
      <trkpt lat="50.534645011648536" lon="6.196212032809854">
        <ele>584.79077600000005</ele>
        <time>2016-03-24T09:59:33Z</time>
      </trkpt>
      <trkpt lat="50.534600000828505" lon="6.196188982576132">
        <ele>584.80294100000003</ele>
        <time>2016-03-24T09:59:30Z</time>
      </trkpt>
      <trkpt lat="50.53454602137208" lon="6.196168027818203">
        <ele>584.81724199999996</ele>
        <time>2016-03-24T09:59:26Z</time>
      </trkpt>
      <trkpt lat="50.534495981410146" lon="6.19614003226161">
        <ele>584.83088699999996</ele>
        <time>2016-03-24T09:59:22Z</time>
      </trkpt>
      <trkpt lat="50.534453988075256" lon="6.196088986471295">
        <ele>584.84452699999997</ele>
        <time>2016-03-24T09:59:18Z</time>
      </trkpt>
      <trkpt lat="50.534405037760735" lon="6.196040036156774">
        <ele>584.85945500000003</ele>
        <time>2016-03-24T09:59:14Z</time>
      </trkpt>
      <trkpt lat="50.534374024719" lon="6.195983039215207">
        <ele>584.871714</ele>
        <time>2016-03-24T09:59:11Z</time>
      </trkpt>
      <trkpt lat="50.534263970330358" lon="6.195899974554777">
        <ele>584.91034300000001</ele>
        <time>2016-03-24T09:59:01Z</time>
      </trkpt>
      <trkpt lat="50.534214014187455" lon="6.195868961513042">
        <ele>584.92416000000003</ele>
        <time>2016-03-24T09:58:57Z</time>
      </trkpt>
      <trkpt lat="50.534157017245889" lon="6.195835014805198">
        <ele>584.93983300000002</ele>
        <time>2016-03-24T09:58:53Z</time>
      </trkpt>
      <trkpt lat="50.533512029796839" lon="6.195548018440604">
        <ele>585.12108000000001</ele>
        <time>2016-03-24T09:58:04Z</time>
      </trkpt>
      <trkpt lat="50.533462995663285" lon="6.19553997181356">
        <ele>585.13374599999997</ele>
        <time>2016-03-24T09:58:01Z</time>
      </trkpt>
      <trkpt lat="50.533413039520383" lon="6.195523962378502">
        <ele>585.14686400000005</ele>
        <time>2016-03-24T09:57:57Z</time>
      </trkpt>
      <trkpt lat="50.533370040357113" lon="6.195480041205883">
        <ele>585.16005199999995</ele>
        <time>2016-03-24T09:57:52Z</time>
      </trkpt>
      <trkpt lat="50.533317988738418" lon="6.195482974871993">
        <ele>585.17343000000005</ele>
        <time>2016-03-24T09:57:49Z</time>
      </trkpt>
      <trkpt lat="50.533253028988838" lon="6.19547501206398">
        <ele>585.24162100000001</ele>
        <time>2016-03-24T09:57:46Z</time>
      </trkpt>
      <trkpt lat="50.533207012340426" lon="6.195466965436935">
        <ele>585.45010000000002</ele>
        <time>2016-03-24T09:57:43Z</time>
      </trkpt>
      <trkpt lat="50.533154038712382" lon="6.195466965436935">
        <ele>585.68885</ele>
        <time>2016-03-24T09:57:39Z</time>
      </trkpt>
      <trkpt lat="50.533099975436926" lon="6.195457996800542">
        <ele>585.93346499999996</ele>
        <time>2016-03-24T09:57:33Z</time>
      </trkpt>
      <trkpt lat="50.533050019294024" lon="6.195422960445285">
        <ele>586.17998999999998</ele>
        <time>2016-03-24T09:57:28Z</time>
      </trkpt>
      <trkpt lat="50.532985981553793" lon="6.195379961282015">
        <ele>586.59371199999998</ele>
        <time>2016-03-24T09:57:18Z</time>
      </trkpt>
      <trkpt lat="50.532936025410891" lon="6.195402005687356">
        <ele>586.82759099999998</ele>
        <time>2016-03-24T09:57:15Z</time>
      </trkpt>
      <trkpt lat="50.532882967963815" lon="6.19540804065764">
        <ele>587.066958</ele>
        <time>2016-03-24T09:57:11Z</time>
      </trkpt>
      <trkpt lat="50.532839968800545" lon="6.195385996252298">
        <ele>587.27064700000005</ele>
        <time>2016-03-24T09:57:06Z</time>
      </trkpt>
      <trkpt lat="50.532795041799545" lon="6.195379961282015">
        <ele>587.47408499999995</ele>
        <time>2016-03-24T09:56:59Z</time>
      </trkpt>
      <trkpt lat="50.532750030979514" lon="6.195361018180847">
        <ele>587.68397100000004</ele>
        <time>2016-03-24T09:56:55Z</time>
      </trkpt>
      <trkpt lat="50.532703008502722" lon="6.195348026230931">
        <ele>587.89894000000004</ele>
        <time>2016-03-24T09:56:51Z</time>
      </trkpt>
      <trkpt lat="50.532130021601915" lon="6.19517401792109">
        <ele>590.97259499999996</ele>
        <time>2016-03-24T09:55:59Z</time>
      </trkpt>
      <trkpt lat="50.532074030488729" lon="6.195180974900723">
        <ele>591.22565399999996</ele>
        <time>2016-03-24T09:55:56Z</time>
      </trkpt>
      <trkpt lat="50.532023990526795" lon="6.195181980729103">
        <ele>591.45090800000003</ele>
        <time>2016-03-24T09:55:53Z</time>
      </trkpt>
      <trkpt lat="50.531979985535145" lon="6.19519698433578">
        <ele>591.65371500000003</ele>
        <time>2016-03-24T09:55:50Z</time>
      </trkpt>
      <trkpt lat="50.53192500025034" lon="6.195205030962825">
        <ele>591.90253099999995</ele>
        <time>2016-03-24T09:55:47Z</time>
      </trkpt>
      <trkpt lat="50.531875966116786" lon="6.195218022912741">
        <ele>592.12637900000004</ele>
        <time>2016-03-24T09:55:44Z</time>
      </trkpt>
      <trkpt lat="50.531821986660361" lon="6.195234032347798">
        <ele>592.37391000000002</ele>
        <time>2016-03-24T09:55:41Z</time>
      </trkpt>
      <trkpt lat="50.531759960576892" lon="6.195221040397883">
        <ele>592.65567199999998</ele>
        <time>2016-03-24T09:55:36Z</time>
      </trkpt>
      <trkpt lat="50.53171000443399" lon="6.195215005427599">
        <ele>592.88156200000003</ele>
        <time>2016-03-24T09:55:32Z</time>
      </trkpt>
      <trkpt lat="50.531661976128817" lon="6.195226991549134">
        <ele>593.10050100000001</ele>
        <time>2016-03-24T09:55:28Z</time>
      </trkpt>
      <trkpt lat="50.531610008329153" lon="6.195240989327431">
        <ele>593.33229500000004</ele>
        <time>2016-03-24T09:55:24Z</time>
      </trkpt>
      <trkpt lat="50.531562985852361" lon="6.19525901041925">
        <ele>593.52399400000002</ele>
        <time>2016-03-24T09:55:21Z</time>
      </trkpt>
      <trkpt lat="50.531516969203949" lon="6.195278959348798">
        <ele>593.71312499999999</ele>
        <time>2016-03-24T09:55:18Z</time>
      </trkpt>
      <trkpt lat="50.531456032767892" lon="6.195293040946126">
        <ele>593.95742499999994</ele>
        <time>2016-03-24T09:55:14Z</time>
      </trkpt>
      <trkpt lat="50.531405992805958" lon="6.195315001532435">
        <ele>594.16317800000002</ele>
        <time>2016-03-24T09:55:11Z</time>
      </trkpt>
      <trkpt lat="50.530346017330885" lon="6.195706017315388">
        <ele>598.53612899999996</ele>
        <time>2016-03-24T09:53:47Z</time>
      </trkpt>
      <trkpt lat="50.530273010954261" lon="6.195706017315388">
        <ele>598.82542599999999</ele>
        <time>2016-03-24T09:53:44Z</time>
      </trkpt>
      <trkpt lat="50.530216014012694" lon="6.195741975679994">
        <ele>599.06884000000002</ele>
        <time>2016-03-24T09:53:40Z</time>
      </trkpt>
      <trkpt lat="50.530166979879141" lon="6.195777012035251">
        <ele>599.282105</ele>
        <time>2016-03-24T09:53:36Z</time>
      </trkpt>
      <trkpt lat="50.53012004122138" lon="6.195802995935082">
        <ele>599.47954600000003</ele>
        <time>2016-03-24T09:53:32Z</time>
      </trkpt>
      <trkpt lat="50.530075030401349" lon="6.19581900537014">
        <ele>599.66237799999999</ele>
        <time>2016-03-24T09:53:28Z</time>
      </trkpt>
      <trkpt lat="50.530030019581318" lon="6.195848006755114">
        <ele>599.85509500000001</ele>
        <time>2016-03-24T09:53:24Z</time>
      </trkpt>
      <trkpt lat="50.529987020418048" lon="6.195876002311707">
        <ele>600.03952400000003</ele>
        <time>2016-03-24T09:53:20Z</time>
      </trkpt>
      <trkpt lat="50.529933962970972" lon="6.195898968726397">
        <ele>600.25740699999994</ele>
        <time>2016-03-24T09:53:15Z</time>
      </trkpt>
      <trkpt lat="50.529876966029406" lon="6.195920007303357">
        <ele>600.54497200000003</ele>
        <time>2016-03-24T09:53:11Z</time>
      </trkpt>
      <trkpt lat="50.529827009886503" lon="6.195916989818215">
        <ele>600.89631699999995</ele>
        <time>2016-03-24T09:53:06Z</time>
      </trkpt>
      <trkpt lat="50.529774036258459" lon="6.19594800285995">
        <ele>601.293363</ele>
        <time>2016-03-24T09:53:01Z</time>
      </trkpt>
      <trkpt lat="50.529723996296525" lon="6.195977004244924">
        <ele>601.66755499999999</ele>
        <time>2016-03-24T09:52:57Z</time>
      </trkpt>
      <trkpt lat="50.529674962162971" lon="6.195998964831233">
        <ele>602.02536099999998</ele>
        <time>2016-03-24T09:52:53Z</time>
      </trkpt>
      <trkpt lat="50.529632968828082" lon="6.196026038378477">
        <ele>602.34395099999995</ele>
        <time>2016-03-24T09:52:48Z</time>
      </trkpt>
      <trkpt lat="50.529587035998702" lon="6.196042969822884">
        <ele>602.675747</ele>
        <time>2016-03-24T09:52:45Z</time>
      </trkpt>
      <trkpt lat="50.52954001352191" lon="6.196055039763451">
        <ele>603.01008899999999</ele>
        <time>2016-03-24T09:52:42Z</time>
      </trkpt>
      <trkpt lat="50.529070040211082" lon="6.196100972592831">
        <ele>606.34894499999996</ele>
        <time>2016-03-24T09:52:13Z</time>
      </trkpt>
      <trkpt lat="50.529020000249147" lon="6.19609996676445">
        <ele>606.700063</ele>
        <time>2016-03-24T09:52:09Z</time>
      </trkpt>
      <trkpt lat="50.528972977772355" lon="6.196122011169791">
        <ele>607.04438700000003</ele>
        <time>2016-03-24T09:51:51Z</time>
      </trkpt>
      <trkpt lat="50.528926961123943" lon="6.19611999951303">
        <ele>607.36751300000003</ele>
        <time>2016-03-24T09:51:47Z</time>
      </trkpt>
      <trkpt lat="50.528869964182377" lon="6.196115976199508">
        <ele>607.76815299999998</ele>
        <time>2016-03-24T09:51:43Z</time>
      </trkpt>
      <trkpt lat="50.528815984725952" lon="6.196137014776468">
        <ele>608.15874399999996</ele>
        <time>2016-03-24T09:51:39Z</time>
      </trkpt>
      <trkpt lat="50.52876703441143" lon="6.196157969534397">
        <ele>608.51535200000001</ele>
        <time>2016-03-24T09:51:35Z</time>
      </trkpt>
      <trkpt lat="50.528710037469864" lon="6.196157969534397">
        <ele>608.91559400000006</ele>
        <time>2016-03-24T09:51:30Z</time>
      </trkpt>
      <trkpt lat="50.52865999750793" lon="6.196168027818203">
        <ele>609.26950899999997</ele>
        <time>2016-03-24T09:51:26Z</time>
      </trkpt>
      <trkpt lat="50.528610041365027" lon="6.19618495926261">
        <ele>609.62870599999997</ele>
        <time>2016-03-24T09:51:23Z</time>
      </trkpt>
      <trkpt lat="50.528556983917952" lon="6.196196023374796">
        <ele>610.00408500000003</ele>
        <time>2016-03-24T09:51:19Z</time>
      </trkpt>
      <trkpt lat="50.528507027775049" lon="6.196179008111358">
        <ele>610.36328200000003</ele>
        <time>2016-03-24T09:51:14Z</time>
      </trkpt>
      <trkpt lat="50.52846503444016" lon="6.196137014776468">
        <ele>610.71274100000005</ele>
        <time>2016-03-24T09:51:09Z</time>
      </trkpt>
      <trkpt lat="50.52842304110527" lon="6.196087980642915">
        <ele>611.07991200000004</ele>
        <time>2016-03-24T09:51:05Z</time>
      </trkpt>
      <trkpt lat="50.528378030285239" lon="6.196059985086322">
        <ele>611.419713</ele>
        <time>2016-03-24T09:51:02Z</time>
      </trkpt>
      <trkpt lat="50.528323967009783" lon="6.196022015064955">
        <ele>611.83510000000001</ele>
        <time>2016-03-24T09:50:58Z</time>
      </trkpt>
      <trkpt lat="50.527979973703623" lon="6.195815987884998">
        <ele>612.64748099999997</ele>
        <time>2016-03-24T09:50:33Z</time>
      </trkpt>
      <trkpt lat="50.527927000075579" lon="6.195800984278321">
        <ele>612.53823</ele>
        <time>2016-03-24T09:50:30Z</time>
      </trkpt>
      <trkpt lat="50.527870003134012" lon="6.195771982893348">
        <ele>612.41669300000001</ele>
        <time>2016-03-24T09:50:26Z</time>
      </trkpt>
      <trkpt lat="50.527813006192446" lon="6.195737030357122">
        <ele>612.29255599999999</ele>
        <time>2016-03-24T09:50:22Z</time>
      </trkpt>
      <trkpt lat="50.527766989544034" lon="6.195683972910047">
        <ele>612.17687799999999</ele>
        <time>2016-03-24T09:50:18Z</time>
      </trkpt>
      <trkpt lat="50.52773698233068" lon="6.195611972361803">
        <ele>612.06585199999995</ele>
        <time>2016-03-24T09:50:14Z</time>
      </trkpt>
      <trkpt lat="50.527718039229512" lon="6.195532009005547">
        <ele>611.95571099999995</ele>
        <time>2016-03-24T09:50:10Z</time>
      </trkpt>
      <trkpt lat="50.527687026187778" lon="6.195457996800542">
        <ele>611.84141499999998</ele>
        <time>2016-03-24T09:50:06Z</time>
      </trkpt>
      <trkpt lat="50.527652995660901" lon="6.195383984595537">
        <ele>611.72366</ele>
        <time>2016-03-24T09:50:02Z</time>
      </trkpt>
      <trkpt lat="50.527202971279621" lon="6.194510003551841">
        <ele>610.26751100000001</ele>
        <time>2016-03-24T09:49:12Z</time>
      </trkpt>
      <trkpt lat="50.527170030400157" lon="6.194454012438655">
        <ele>610.16903000000002</ele>
        <time>2016-03-24T09:49:09Z</time>
      </trkpt>
      <trkpt lat="50.527138011530042" lon="6.194377988576889">
        <ele>610.05146200000001</ele>
        <time>2016-03-24T09:49:05Z</time>
      </trkpt>
      <trkpt lat="50.527106998488307" lon="6.194315040484071">
        <ele>609.948714</ele>
        <time>2016-03-24T09:49:01Z</time>
      </trkpt>
      <trkpt lat="50.527072967961431" lon="6.19424999691546">
        <ele>609.84015299999999</ele>
        <time>2016-03-24T09:48:57Z</time>
      </trkpt>
      <trkpt lat="50.527040027081966" lon="6.1941840313375">
        <ele>609.73185799999999</ele>
        <time>2016-03-24T09:48:53Z</time>
      </trkpt>
      <trkpt lat="50.527010019868612" lon="6.194105995818973">
        <ele>609.614282</ele>
        <time>2016-03-24T09:48:49Z</time>
      </trkpt>
      <trkpt lat="50.526980012655258" lon="6.194033995270729">
        <ele>609.50325399999997</ele>
        <time>2016-03-24T09:48:45Z</time>
      </trkpt>
      <trkpt lat="50.526946987956762" lon="6.193960988894105">
        <ele>609.388644</ele>
        <time>2016-03-24T09:48:41Z</time>
      </trkpt>
      <trkpt lat="50.526904994621873" lon="6.193897034972906">
        <ele>609.28049699999997</ele>
        <time>2016-03-24T09:48:37Z</time>
      </trkpt>
      <trkpt lat="50.526867024600506" lon="6.193835008889437">
        <ele>609.17923900000005</ele>
        <time>2016-03-24T09:48:33Z</time>
      </trkpt>
      <trkpt lat="50.526840034872293" lon="6.19375797919929">
        <ele>609.07584899999995</ele>
        <time>2016-03-24T09:48:29Z</time>
      </trkpt>
      <trkpt lat="50.526806004345417" lon="6.19369201362133">
        <ele>608.97596999999996</ele>
        <time>2016-03-24T09:48:25Z</time>
      </trkpt>
      <trkpt lat="50.526774991303682" lon="6.193633005023003">
        <ele>608.88597500000003</ele>
        <time>2016-03-24T09:48:21Z</time>
      </trkpt>
      <trkpt lat="50.526750013232231" lon="6.193572990596294">
        <ele>608.80162800000005</ele>
        <time>2016-03-24T09:48:17Z</time>
      </trkpt>
      <trkpt lat="50.526707014068961" lon="6.193553041666746">
        <ele>608.71869800000002</ele>
        <time>2016-03-24T09:48:14Z</time>
      </trkpt>
      <trkpt lat="50.526659991592169" lon="6.193525968119502">
        <ele>608.62615700000003</ele>
        <time>2016-03-24T09:48:10Z</time>
      </trkpt>
      <trkpt lat="50.526614980772138" lon="6.193513981997967">
        <ele>608.54174399999999</ele>
        <time>2016-03-24T09:48:06Z</time>
      </trkpt>
      <trkpt lat="50.526572987437248" lon="6.193491015583277">
        <ele>608.45949299999995</ele>
        <time>2016-03-24T09:48:02Z</time>
      </trkpt>
      <trkpt lat="50.526520013809204" lon="6.193466959521174">
        <ele>608.35749099999998</ele>
        <time>2016-03-24T09:47:58Z</time>
      </trkpt>
      <trkpt lat="50.526463016867638" lon="6.193453967571259">
        <ele>608.25096900000005</ele>
        <time>2016-03-24T09:47:54Z</time>
      </trkpt>
      <trkpt lat="50.526409959420562" lon="6.19343301281333">
        <ele>608.14988500000004</ele>
        <time>2016-03-24T09:47:50Z</time>
      </trkpt>
      <trkpt lat="50.526355979964137" lon="6.193422032520175">
        <ele>608.04917999999998</ele>
        <time>2016-03-24T09:47:46Z</time>
      </trkpt>
      <trkpt lat="50.526302000507712" lon="6.193409040570259">
        <ele>607.94814599999995</ele>
        <time>2016-03-24T09:47:42Z</time>
      </trkpt>
      <trkpt lat="50.526252966374159" lon="6.193396970629692">
        <ele>607.85643000000005</ele>
        <time>2016-03-24T09:47:38Z</time>
      </trkpt>
      <trkpt lat="50.526190018281341" lon="6.193383978679776">
        <ele>607.73891500000002</ele>
        <time>2016-03-24T09:47:34Z</time>
      </trkpt>
      <trkpt lat="50.526139978319407" lon="6.193368975073099">
        <ele>607.64477499999998</ele>
        <time>2016-03-24T09:47:29Z</time>
      </trkpt>
      <trkpt lat="50.526093039661646" lon="6.193366041406989">
        <ele>607.55777799999998</ele>
        <time>2016-03-24T09:47:25Z</time>
      </trkpt>
      <trkpt lat="50.526042999699712" lon="6.193360006436706">
        <ele>607.46503600000005</ele>
        <time>2016-03-24T09:47:21Z</time>
      </trkpt>
      <trkpt lat="50.5259969830513" lon="6.193362018093467">
        <ele>607.37992799999995</ele>
        <time>2016-03-24T09:47:17Z</time>
      </trkpt>
      <trkpt lat="50.525949960574508" lon="6.193384984508157">
        <ele>607.28889300000003</ele>
        <time>2016-03-24T09:47:14Z</time>
      </trkpt>
      <trkpt lat="50.525906039401889" lon="6.193408034741879">
        <ele>607.20314099999996</ele>
        <time>2016-03-24T09:47:11Z</time>
      </trkpt>
      <trkpt lat="50.525860022753477" lon="6.193429995328188">
        <ele>607.11422000000005</ele>
        <time>2016-03-24T09:47:08Z</time>
      </trkpt>
      <trkpt lat="50.525805959478021" lon="6.193461008369923">
        <ele>607.00790600000005</ele>
        <time>2016-03-24T09:47:04Z</time>
      </trkpt>
      <trkpt lat="50.525752985849977" lon="6.193492021411657">
        <ele>606.90332599999999</ele>
        <time>2016-03-24T09:47:00Z</time>
      </trkpt>
      <trkpt lat="50.525700012221932" lon="6.193506019189954">
        <ele>606.80393200000003</ele>
        <time>2016-03-24T09:46:55Z</time>
      </trkpt>
      <trkpt lat="50.525279995054007" lon="6.193686984479427">
        <ele>605.92260899999997</ele>
        <time>2016-03-24T09:46:20Z</time>
      </trkpt>
      <trkpt lat="50.525227021425962" lon="6.19371397420764">
        <ele>605.73274100000003</ele>
        <time>2016-03-24T09:46:16Z</time>
      </trkpt>
      <trkpt lat="50.525176981464028" lon="6.193754961714149">
        <ele>605.54057</ele>
        <time>2016-03-24T09:46:12Z</time>
      </trkpt>
      <trkpt lat="50.525124007835984" lon="6.193785974755883">
        <ele>605.34785499999998</ele>
        <time>2016-03-24T09:46:07Z</time>
      </trkpt>
      <trkpt lat="50.52507396787405" lon="6.193789998069406">
        <ele>605.17722900000001</ele>
        <time>2016-03-24T09:46:03Z</time>
      </trkpt>
      <trkpt lat="50.525024011731148" lon="6.193817993625999">
        <ele>604.99634500000002</ele>
        <time>2016-03-24T09:45:59Z</time>
      </trkpt>
      <trkpt lat="50.524980006739497" lon="6.193844983354211">
        <ele>604.83537999999999</ele>
        <time>2016-03-24T09:45:55Z</time>
      </trkpt>
      <trkpt lat="50.524932984262705" lon="6.193869961425662">
        <ele>604.66628700000001</ele>
        <time>2016-03-24T09:45:51Z</time>
      </trkpt>
      <trkpt lat="50.524883028119802" lon="6.193894017487764">
        <ele>604.48812299999997</ele>
        <time>2016-03-24T09:45:47Z</time>
      </trkpt>
      <trkpt lat="50.524829970672727" lon="6.193918995559216">
        <ele>604.29954499999997</ele>
        <time>2016-03-24T09:45:43Z</time>
      </trkpt>
      <trkpt lat="50.524784037843347" lon="6.193959983065724">
        <ele>604.11935200000005</ele>
        <time>2016-03-24T09:45:39Z</time>
      </trkpt>
      <trkpt lat="50.52472997456789" lon="6.193990996107459">
        <ele>603.92343900000003</ele>
        <time>2016-03-24T09:45:35Z</time>
      </trkpt>
      <trkpt lat="50.524684963747859" lon="6.194011028856039">
        <ele>603.76406899999995</ele>
        <time>2016-03-24T09:45:31Z</time>
      </trkpt>
      <trkpt lat="50.52464003674686" lon="6.194039024412632">
        <ele>603.59914000000003</ele>
        <time>2016-03-24T09:45:27Z</time>
      </trkpt>
      <trkpt lat="50.524593014270067" lon="6.194071965292096">
        <ele>603.42372399999999</ele>
        <time>2016-03-24T09:45:23Z</time>
      </trkpt>
      <trkpt lat="50.524540040642023" lon="6.194109013304114">
        <ele>603.22610199999997</ele>
        <time>2016-03-24T09:45:19Z</time>
      </trkpt>
      <trkpt lat="50.524497963488102" lon="6.194147989153862">
        <ele>603.05987900000002</ele>
        <time>2016-03-24T09:45:15Z</time>
      </trkpt>
      <trkpt lat="50.524450019001961" lon="6.194203980267048">
        <ele>602.85620200000005</ele>
        <time>2016-03-24T09:45:11Z</time>
      </trkpt>
      <trkpt lat="50.524410037323833" lon="6.194272041320801">
        <ele>602.65547200000003</ele>
        <time>2016-03-24T09:45:07Z</time>
      </trkpt>
      <trkpt lat="50.524380030110478" lon="6.194333983585239">
        <ele>602.48665200000005</ele>
        <time>2016-03-24T09:45:03Z</time>
      </trkpt>
      <trkpt lat="50.524356979876757" lon="6.19440196081996">
        <ele>602.31976099999997</ele>
        <time>2016-03-24T09:44:59Z</time>
      </trkpt>
      <trkpt lat="50.524329990148544" lon="6.194459963589907">
        <ele>602.16400299999998</ele>
        <time>2016-03-24T09:44:55Z</time>
      </trkpt>
      <trkpt lat="50.524334013462067" lon="6.194537999108434">
        <ele>601.99445000000003</ele>
        <time>2016-03-24T09:44:48Z</time>
      </trkpt>
      <trkpt lat="50.524160005152225" lon="6.196008017286658">
        <ele>599.03520000000003</ele>
        <time>2016-03-24T09:43:37Z</time>
      </trkpt>
      <trkpt lat="50.524150030687451" lon="6.196083035320044">
        <ele>598.911474</ele>
        <time>2016-03-24T09:43:34Z</time>
      </trkpt>
      <trkpt lat="50.52414701320231" lon="6.196153024211526">
        <ele>598.79819799999996</ele>
        <time>2016-03-24T09:43:31Z</time>
      </trkpt>
      <trkpt lat="50.524139972403646" lon="6.196240028366447">
        <ele>598.656611</ele>
        <time>2016-03-24T09:43:27Z</time>
      </trkpt>
      <trkpt lat="50.52412798628211" lon="6.19631202891469">
        <ele>598.53643499999998</ele>
        <time>2016-03-24T09:43:21Z</time>
      </trkpt>
      <trkpt lat="50.524112982675433" lon="6.196391992270947">
        <ele>598.40177000000006</ele>
        <time>2016-03-24T09:43:17Z</time>
      </trkpt>
      <trkpt lat="50.524094039574265" lon="6.196459969505668">
        <ele>598.28184399999998</ele>
        <time>2016-03-24T09:43:12Z</time>
      </trkpt>
      <trkpt lat="50.524080041795969" lon="6.196540016680956">
        <ele>598.147875</ele>
        <time>2016-03-24T09:43:06Z</time>
      </trkpt>
      <trkpt lat="50.524075012654066" lon="6.196611011400819">
        <ele>598.03254100000004</ele>
        <time>2016-03-24T09:43:02Z</time>
      </trkpt>
      <trkpt lat="50.524054979905486" lon="6.196677982807159">
        <ele>597.91303400000004</ele>
        <time>2016-03-24T09:42:58Z</time>
      </trkpt>
      <trkpt lat="50.524050034582615" lon="6.196762975305319">
        <ele>597.77521000000002</ele>
        <time>2016-03-24T09:42:54Z</time>
      </trkpt>
      <trkpt lat="50.524054979905486" lon="6.196834975853562">
        <ele>597.65827000000002</ele>
        <time>2016-03-24T09:42:51Z</time>
      </trkpt>
      <trkpt lat="50.524054979905486" lon="6.196908988058567">
        <ele>597.53879300000006</ele>
        <time>2016-03-24T09:42:48Z</time>
      </trkpt>
      <trkpt lat="50.524063026532531" lon="6.197003033012152">
        <ele>597.38567</ele>
        <time>2016-03-24T09:42:44Z</time>
      </trkpt>
      <trkpt lat="50.524063026532531" lon="6.197076039388776">
        <ele>597.26780699999995</ele>
        <time>2016-03-24T09:42:40Z</time>
      </trkpt>
      <trkpt lat="50.524054979905486" lon="6.197148039937019">
        <ele>597.14979700000004</ele>
        <time>2016-03-24T09:42:36Z</time>
      </trkpt>
      <trkpt lat="50.523993959650397" lon="6.197879025712609">
        <ele>595.91679199999999</ele>
        <time>2016-03-24T09:42:02Z</time>
      </trkpt>
      <trkpt lat="50.523982979357243" lon="6.197959994897246">
        <ele>595.78306199999997</ele>
        <time>2016-03-24T09:41:57Z</time>
      </trkpt>
      <trkpt lat="50.523987002670765" lon="6.198497023433447">
        <ele>595.37371599999994</ele>
        <time>2016-03-24T09:41:29Z</time>
      </trkpt>
      <trkpt lat="50.523982979357243" lon="6.198586039245129">
        <ele>595.37371599999994</ele>
        <time>2016-03-24T09:41:25Z</time>
      </trkpt>
      <trkpt lat="50.523883989080787" lon="6.199583988636732">
        <ele>595.37371599999994</ele>
        <time>2016-03-24T09:40:38Z</time>
      </trkpt>
      <trkpt lat="50.523743173107505" lon="6.200049854815006" />
      <trkpt lat="50.523726996034384" lon="6.20009302161634" />
      <trkpt lat="50.523549132049084" lon="6.200684197247028" />
      <trkpt lat="50.523867141455412" lon="6.200908496975899" />
    </trkseg>
  </trk>

</gpx>